     2              OBSERVATION DATA    GPS                 RINEX VERSION / TYPE
srx-v1.5-(11/13/93) SEISMO 11-MAR-1994                      PGM / RUN BY / DATE
                                                            COMMENT
sig: 9 8 7 6 5 4 1 0                                        COMMENT
sig: 9 8 7 6 5 4 1 0                                        COMMENT
sig: 9 8 7 6 5 4 1 0                                        COMMENT
Original Marker Name: LNCH                                  COMMENT
Campaign Name: jpl 1993-1997                                COMMENT
4-Character Station Name: LNCH                              COMMENT
6-Character Antenna Code: DMRCHT                            COMMENT
Vertical Measurement Point: BPA                             COMMENT
Vertical Offset to Rinex Ref. Point: 0.0000                 COMMENT
Radial Measurement Point: RRP                               COMMENT
Radial Offset to Rinex Ref. Point: 0.0000                   COMMENT
Antenna Height from Field Measurement: 0.0814 m             COMMENT
Additional Antenna Identification Info.:                    COMMENT
Turborogue and Ashtech Choke Ring                           COMMENT
Original XYZ: -2517548.0082 -4633719.3365 3573081.1819      COMMENT
New XYZ position is based on association with SCEC monument COMMENT
E1E9I3I3+0011. Position of that monument is believed to be  COMMENT
valid to within 1 m horizontally; vertical accuracy         COMMENT
should be no worse than 3-times this value.                 COMMENT
                                                            COMMENT
Revised Rinex header created by UCSD GPS archive for        COMMENT
GSAC on 15-Apr-1999 (1999:105) 02:47:23 GMT                 COMMENT
For assistance contact dagnew@ucsd.edu or hjohnson@ucsd.edu COMMENT
                                                            COMMENT
LYNCH                                                       MARKER NAME
LNCH                                                        MARKER NUMBER
GAL JET PROPULSION LABORATORY                               OBSERVER / AGENCY
T262 TURBOROGUE SNR-8000 2.8                                REC # / TYPE / VERS
329 DORNE-MARGOL. TYPE T                                    ANT # / TYPE
 -2517702.0000 -4635197.0000  3574286.0000                  APPROX POSITION XYZ
        0.0814        0.0000        0.0000                  ANTENNA: DELTA H/E/N
     1     1     0                                          WAVELENGTH FACT L1/2
     5    L1    L2    P1    P2    C1                        # / TYPES OF OBSERV
    30                                                      INTERVAL
  1994     2    25     0     0    0.000000                  TIME OF FIRST OBS
  1994     2    25    23    59   30.000000                  TIME OF LAST OBS
    26                                                      # OF SATELLITES
          01   659   659     0   659   659                  PRN / # OF OBS
          02   726   726     0   726   726                  PRN / # OF OBS
          03   451   451   451   451     0                  PRN / # OF OBS
          04    76    76     0    76    76                  PRN / # OF OBS
          05   634   634     0   634   634                  PRN / # OF OBS
          07   617   617     0   617   617                  PRN / # OF OBS
          09   605   605     0   605   605                  PRN / # OF OBS
          12   672   672   672   672     0                  PRN / # OF OBS
          13   579   579   579   579     0                  PRN / # OF OBS
          14   560   560     0   560   560                  PRN / # OF OBS
          15   698   698     0   698   698                  PRN / # OF OBS
          16   665   665     0   665   665                  PRN / # OF OBS
          17   745   745     0   745   745                  PRN / # OF OBS
          18   614   614     0   614   614                  PRN / # OF OBS
          19   747   747     0   747   747                  PRN / # OF OBS
          20   635   635     0   635   635                  PRN / # OF OBS
          21   774   774     0   774   774                  PRN / # OF OBS
          22   689   689     0   689   689                  PRN / # OF OBS
          23   750   750     0   750   750                  PRN / # OF OBS
          24   596   596     0   596   596                  PRN / # OF OBS
          25   483   483     0   483   483                  PRN / # OF OBS
          26   746   746     0   746   746                  PRN / # OF OBS
          27   697   697     0   697   697                  PRN / # OF OBS
          28   666   666     0   666   666                  PRN / # OF OBS
          29   728   728     0   728   728                  PRN / # OF OBS
                                                            END OF HEADER
 94 02 25 00 00 00.0000000  0  6 02 07 15 19 26 27
  -6395956.81449  -4983855.51348         0.00041  20878367.83748  20878367.21549
  -7743946.64849  -6034237.80447         0.00041  20843901.45847  20843900.72849
   -398359.04048   -310408.66445         0.00041  23838672.82245  23838669.53648
   1365802.54048   1064265.48646         0.00041  22657707.76846  22657708.12148
  -8963648.37148  -6984651.95246         0.00041  22759820.25446  22759818.75148
 -12047033.34149  -9387286.51148         0.00041  20681767.16048  20681766.43849
 94 02 25 00 00 30.0000000  0  6 02 07 15 19 26 27
  -6396514.35549  -4984289.95048         0.00041  20878261.86948  20878261.32649
  -7795372.28549  -6074309.69047         0.00041  20834115.21247  20834114.69649
   -423246.48348   -329801.40045         0.00041  23833938.31445  23833933.64248
   1442293.47948   1123868.78646         0.00041  22672263.83746  22672263.45148
  -9008772.14148  -7019813.28846         0.00041  22751232.60646  22751232.50548
 -12001951.59249  -9352157.88048         0.00041  20690345.83148  20690345.40349
 94 02 25 00 01 00.0000000  0  6 02 07 15 19 26 27
  -6396893.43649  -4984585.32948         0.00041  20878189.79548  20878188.81049
  -7846306.86649  -6113998.94048         0.00041  20824423.14148  20824422.41849
   -447627.07048   -348799.26144         0.00041  23829295.44444  23829290.08448
   1519080.18848   1183702.54046         0.00041  22686876.48746  22686875.71948
  -9053391.40548  -7054581.50646         0.00041  22742742.51846  22742741.08748
 -11956421.94149  -9316680.23748         0.00041  20699009.96648  20699009.35549
 94 02 25 00 01 30.0000000  0  6 02 07 15 19 26 27
  -6397123.10049  -4984764.28048         0.00041  20878145.97248  20878144.96349
  -7896781.52749  -6153329.80748         0.00041  20814818.05448  20814817.60849
   -471514.16748   -367412.54344         0.00041  23824748.16244  23824746.22048
   1596137.87948   1243747.45546         0.00041  22701541.42646  22701538.90348
  -9097483.86148  -7088939.21746         0.00041  22734352.56446  22734350.38148
 -11910467.50749  -9280871.59248         0.00041  20707754.92048  20707754.00949
 94 02 25 00 02 00.0000000  0  6 02 07 15 19 26 27
  -6397191.07449  -4984817.24148         0.00041  20878132.77948  20878131.99449
  -7946804.56249  -6192308.76148         0.00041  20805298.78248  20805298.36849
   -494904.43448   -385638.63844         0.00041  23820299.54944  23820296.28048
   1673454.01548   1303993.75746         0.00041  22716253.96446  22716251.40548
  -9141026.51948  -7122868.52346         0.00041  22726066.71046  22726064.52748
 -11864076.79049  -9244722.98748         0.00041  20716582.73348  20716582.33649
 94 02 25 00 02 30.0000000  0  6 02 07 15 19 26 27
  -6397108.10149  -4984752.58248         0.00041  20878149.12848  20878147.92249
  -7996411.79449  -6230963.71248         0.00041  20795858.85248  20795858.18049
   -517822.90448   -403497.14144         0.00041  23815935.98644  23815932.29548
   1750999.14748   1364418.48946         0.00041  22731009.42146  22731007.64948
  -9184047.08248  -7156391.00746         0.00041  22717880.48046  22717878.29548
 -11817257.24149  -9208240.22548         0.00041  20725492.19848  20725491.73349
 94 02 25 00 03 00.0000000  0  6 02 07 15 19 26 27
  -6396848.00149  -4984549.89648         0.00041  20878198.70348  20878197.34649
  -8045596.39449  -6269289.34248         0.00041  20786499.27748  20786498.54049
   -540269.66448   -420988.02644         0.00041  23811663.63944  23811659.16848
   1828768.85948   1425018.21746         0.00041  22745809.49146  22745807.21648
  -9226549.11848  -7189509.44146         0.00041  22709792.12546  22709790.53748
 -11770008.31849  -9171422.88648         0.00041  20734483.65548  20734482.73949
 94 02 25 00 03 30.0000000  0  6 02 07 15 19 26 27
  -6396395.56649  -4984197.33048         0.00041  20878285.15148  20878283.32149
  -8094359.69849  -6307286.68948         0.00041  20777219.96048  20777219.34749
   -562251.66448   -438116.79244         0.00041  23807484.54144  23807478.13748
   1906764.69348   1485794.16546         0.00041  22760651.73646  22760649.89448
  -9268561.96848  -7222246.68346         0.00041  22701796.54346  22701795.58248
 -11722343.36549  -9134281.36548         0.00041  20743553.43948  20743552.83249
 94 02 25 00 04 00.0000000  0  6 02 07 15 19 26 27
  -6395744.47749  -4983689.96848         0.00041  20878408.94948  20878407.06549
  -8142681.44149  -6344939.96048         0.00041  20768024.26348  20768024.00849
   -583774.40448   -454887.72944         0.00041  23803385.16044  23803381.77348
   1984987.49048   1546746.96646         0.00041  22775536.48446  22775535.84248
  -9310125.26248  -7254633.60946         0.00041  22693886.97946  22693886.06048
 -11674264.77849  -9096817.53648         0.00041  20752702.75648  20752702.59649
 94 02 25 00 04 30.0000000  0  6 02 07 15 19 26 27
  -6394907.24849  -4983037.56148         0.00041  20878568.05848  20878566.02249
  -8190535.39349  -6382228.72348         0.00041  20758918.09648  20758917.73849
   -604825.40848   -471291.04644         0.00041  23799381.57644  23799373.99748
   2063460.70048   1607894.88446         0.00041  22790469.85046  22790468.91548
  -9351239.74748  -7286670.82946         0.00041  22686063.80146  22686061.71348
 -11625785.25549  -9059041.28548         0.00041  20761927.98748  20761928.02349
 94 02 25 00 05 00.0000000  0  6 02 07 15 19 26 27
  -6393863.02849  -4982223.86748         0.00041  20878766.32748  20878764.73649
  -8237875.06849  -6419116.74948         0.00041  20749909.76848  20749909.09849
   -625366.47548   -487297.02344         0.00041  23795464.40044  23795466.76748
   2142213.90048   1669260.98246         0.00041  22805457.21546  22805455.04348
  -9391868.79948  -7318329.80646         0.00041  22678332.81746  22678330.15848
 -11576886.33249  -9020938.22948         0.00041  20771232.78048  20771233.17549
 94 02 25 00 05 30.0000000  0  6 02 07 15 19 26 27
  -6392623.06449  -4981257.65648         0.00041  20879002.26048  20879001.17349
  -8284674.41149  -6455583.74248         0.00041  20741004.28148  20741003.53949
   -645377.39148   -502889.91944         0.00041  23791663.87944  23791658.40148
   2221269.43648   1730862.65846         0.00041  22820499.93446  22820498.63648
  -9432000.01548  -7349600.87346         0.00041  22670696.44246  22670692.88948
 -11527561.91549  -8982503.62248         0.00041  20780618.71248  20780619.30449
 94 02 25 00 06 00.0000000  0  6 02 07 15 19 26 27
  -6391219.52049  -4980163.98148         0.00041  20879269.42748  20879268.28849
  -8330939.24649  -6491634.23548         0.00041  20732200.44848  20732199.66149
   -664860.28948   -518071.29244         0.00041  23787955.32744  23787951.75548
   2300617.77748   1792692.49346         0.00041  22835598.79746  22835597.87948
  -9471617.55948  -7380471.65746         0.00041  22663157.16746  22663153.79548
 -11477808.34449  -8943734.61548         0.00041  20790086.92148  20790087.10949
 94 02 25 00 06 30.0000000  0  6 02 07 15 19 26 27
  -6389654.00649  -4978944.09048         0.00041  20879567.52148  20879566.04549
  -8376678.30249  -6527275.03448         0.00041  20723496.51748  20723495.94449
   -683813.39248   -532839.98645         0.00041  23784350.16945  23784345.76448
   2380260.07148   1854751.40246         0.00041  22850752.98846  22850753.00048
  -9510698.07248  -7410924.01046         0.00041  22655720.61446  22655717.03848
 -11427621.91849  -8904628.32548         0.00041  20799637.26148  20799637.27949
 94 02 25 00 07 00.0000000  0  6 02 07 15 19 26 27
  -6387924.95249  -4977596.76648         0.00041  20879896.21648  20879895.04649
  -8421909.61649  -6562520.19148         0.00041  20714889.24048  20714888.73649
   -702258.74348   -547212.88145         0.00041  23780840.29545  23780835.73748
   2460164.63848   1917014.67446         0.00041  22865957.86946  22865958.94448
  -9549266.03848  -7440976.94146         0.00041  22648380.44546  22648378.15948
 -11377017.01049  -8865195.94048         0.00041  20809266.99648  20809266.73649
 94 02 25 00 07 30.0000000  0  6 02 07 15 19 26 27
  -6386056.70549  -4976140.98648         0.00041  20880251.78248  20880250.92349
  -8466665.90949  -6597395.19948         0.00041  20706372.59248  20706371.87349
   -720219.50348   -561208.22445         0.00041  23777421.73745  23777418.46048
   2540309.06648   1979464.84846         0.00041  22881210.15346  22881210.19248
  -9587344.30648  -7470648.30646         0.00041  22641133.84846  22641132.98348
 -11326010.98849  -8825450.99848         0.00041  20818973.31248  20818972.75949
 94 02 25 00 08 00.0000000  0  6 02 07 15 19 26 27
  -6384009.62449  -4974545.85248         0.00041  20880641.46748  20880639.72349
  -8510943.79549  -6631897.41948         0.00041  20697946.88548  20697946.20949
   -737682.45648   -574815.68145         0.00041  23774098.53145  23774096.56948
   2620685.66448   2042095.93246         0.00041  22896504.80446  22896505.44248
  -9624913.63848  -7499923.05446         0.00041  22633985.41646  22633984.43948
 -11274585.76049  -8785379.40448         0.00041  20828759.48048  20828758.69049
 94 02 25 00 08 30.0000000  0  6 02 07 15 19 26 27
  -6381770.55449  -4972801.10948         0.00041  20881067.59848  20881065.21749
  -8554755.31649  -6666036.23248         0.00041  20689609.83348  20689608.88649
   -754654.20348   -588040.39445         0.00041  23770868.88645  23770865.31148
   2701280.82348   2104897.29446         0.00041  22911841.12346  22911841.84248
  -9661995.05848  -7528817.64146         0.00041  22626929.23646  22626928.23248
 -11222767.47849  -8745001.52748         0.00041  20838620.21648  20838619.43349
 94 02 25 00 09 00.0000000  0  6 02 07 15 19 26 27
  -6379333.55649  -4970902.12648         0.00041  20881531.38248  20881528.55549
  -8598093.17549  -6699805.96048         0.00041  20681363.04548  20681361.97249
   -771114.14248   -600866.28645         0.00041  23767735.27445  23767733.16648
   2782111.69848   2167882.37546         0.00041  22927222.08346  22927223.45548
  -9698573.86548  -7557320.57446         0.00041  22619968.64046  22619967.30048
 -11170543.04149  -8704307.17248         0.00041  20848557.88048  20848557.77049
 94 02 25 00 09 30.0000000  0  6 02 07 15 19 26 27
  -6376716.39049  -4968862.74948         0.00041  20882029.34048  20882027.02549
  -8640968.29649  -6733215.11648         0.00041  20673204.02948  20673202.84249
   -787060.96348   -613292.31245         0.00041  23764699.82945  23764700.77848
   2863181.01948   2231053.23046         0.00041  22942648.49546  22942650.45548
  -9734635.69648  -7585420.69646         0.00041  22613106.27046  22613105.00948
 -11117903.11449  -8663289.05548         0.00041  20858574.50148  20858574.90149
 94 02 25 00 10 00.0000000  0  6 02 07 15 19 26 27
  -6373922.46849  -4966685.65248         0.00041  20882561.00448  20882559.72649
  -8683369.07049  -6766254.64848         0.00041  20665135.18348  20665134.00549
   -802488.30848   -625313.53446         0.00041  23761765.66546  23761764.50048
   2944504.23048   2294421.94846         0.00041  22958125.27046  22958124.81348
  -9770177.82848  -7613115.84446         0.00041  22606342.77046  22606340.93548
 -11064844.03849  -8621944.33547         0.00041  20868670.91347  20868671.19049
 94 02 25 00 10 30.0000000  0  6 02 07 15 19 26 27
  -6370962.63449  -4964379.28648         0.00041  20883123.76748  20883122.88849
  -8725271.28149  -6798905.69248         0.00041  20657161.44848  20657160.49349
   -817378.75348   -636916.44645         0.00041  23758932.38245  23758927.32148
   3026129.27148   2358025.83546         0.00041  22973657.79146  22973657.30148
  -9805183.27848  -7640392.81146         0.00041  22599679.87046  22599678.83748
 -11011343.13749  -8580255.32647         0.00041  20878851.96647  20878852.36549
 94 02 25 00 11 00.0000000  0  6 02 07 15 19 26 27
  -6367850.11849  -4961953.94548         0.00041  20883715.92348  20883715.04649
  -8766671.68349  -6831165.71548         0.00041  20649283.33348  20649282.17249
   -831743.47648   -648109.70345         0.00041  23756197.71645  23756193.07548
   3108051.53148   2421861.32846         0.00041  22989248.55446  22989246.46348
  -9839662.07148  -7667259.37746         0.00041  22593118.74346  22593117.26348
 -10957402.72549  -8538223.84547         0.00041  20889117.10147  20889116.98749
 94 02 25 00 11 30.0000000  0  6 02 07 15 19 26 27
  -6364595.38449  -4959417.78048         0.00041  20884335.36148  20884334.48149
  -8807577.03449  -6863039.98948         0.00041  20641499.11348  20641498.13849
   -845601.22248   -658907.88245         0.00041  23753562.03245  23753557.96048
   3190248.87048   2485911.16646         0.00041  23004889.99846  23004887.49648
  -9873641.05548  -7693736.47546         0.00041  22586653.59946  22586651.53948
 -10903047.49149  -8495869.12047         0.00041  20899461.05047  20899460.42249
 94 02 25 00 12 00.0000000  0  6 02 07 15 19 26 27
  -6361195.05249  -4956768.15948         0.00041  20884982.43148  20884981.38949
  -8847984.46949  -6894526.26948         0.00041  20633809.53748  20633808.92749
   -858960.48648   -669317.62145         0.00041  23751016.28545  23751016.49748
   3272707.65348   2550164.73546         0.00041  23020582.29446  23020577.64248
  -9907135.85448  -7719836.28846         0.00041  22580280.00746  22580278.46248
 -10848292.36749  -8453202.78447         0.00041  20909881.05347  20909879.90249
 94 02 25 00 12 30.0000000  0  6 02 07 15 19 26 27
  -6357641.96549  -4953999.50848         0.00041  20885658.46248  20885657.85049
  -8887902.78649  -6925631.42548         0.00041  20626213.30848  20626212.70949
   -871830.15348   -679345.87345         0.00041  23748568.79245  23748566.81548
   3355402.96048   2614602.62046         0.00041  23036320.21246  23036315.22748
  -9940145.07948  -7745557.74246         0.00041  22573999.00846  22573997.58748
 -10793142.09749  -8410228.54047         0.00041  20920375.45847  20920374.28849
 94 02 25 00 13 00.0000000  0  6 02 07 15 19 26 27
  -6353918.70249  -4951098.26148         0.00041  20886366.60848  20886366.59349
  -8927335.39949  -6956358.10848         0.00041  20618709.57148  20618708.87149
   -884206.71548   -688989.89145         0.00041  23746217.23445  23746210.94348
   3438304.77848   2679201.38646         0.00041  23052097.05546  23052093.48348
  -9972669.11848  -7770901.14046         0.00041  22567810.17246  22567808.31748
 -10737607.87749  -8366955.11247         0.00041  20930943.30447  20930942.14349
 94 02 25 00 13 30.0000000  0  6 02 07 15 19 26 27
  -6350008.04949  -4948050.99648         0.00041  20887110.99048  20887110.72149
  -8966278.01549  -6986702.98448         0.00041  20611299.20248  20611298.15349
   -896067.13948   -698231.74045         0.00041  23743955.54345  23743955.28148
   3521424.12148   2743969.68246         0.00041  23067912.59446  23067911.44348
 -10004678.99648  -7795843.88346         0.00041  22561718.75346  22561717.04948
 -10681659.36249  -8323358.86147         0.00041  20941589.82047  20941588.92749
 94 02 25 00 14 00.0000000  0  6 02 07 15 19 26 27
  -6345896.44549  -4944847.14048         0.00041  20887893.33248  20887892.70949
  -9004730.33049  -7016665.80348         0.00041  20603982.07748  20603980.87349
   -907399.35048   -707061.92045         0.00041  23741800.70845  23741797.96048
   3604769.57848   2808914.15745         0.00041  23083771.64845  23083769.68248
 -10036154.64648  -7820370.36146         0.00041  22555728.56246  22555727.48248
 -10625277.80949  -8279425.18147         0.00041  20952318.42447  20952318.25849
 94 02 25 00 14 30.0000000  0  6 02 07 15 19 26 27
  -6341599.58749  -4941498.91648         0.00041  20888711.39648  20888709.77449
  -9042717.58449  -7046266.23748         0.00041  20596753.22548  20596752.19249
   -918207.44847   -715483.77245         0.00041  23739741.42145  23739737.23247
   3688333.47948   2874028.84345         0.00041  23099670.68345  23099669.71348
 -10067104.22348  -7844486.92246         0.00041  22549839.71946  22549837.77748
 -10568477.26649  -8235165.02247         0.00041  20963127.15147  20963127.52449
 94 02 25 00 15 00.0000000  0  6 02 07 15 19 26 27
  -6337116.93049  -4938005.90648         0.00041  20889564.50148  20889562.60649
  -9080240.90549  -7075505.16448         0.00041  20589612.76348  20589611.81849
   -928481.38048   -723489.40744         0.00041  23737791.63744  23737785.14048
   3772128.30648   2939323.47045         0.00041  23115617.29445  23115615.52848
 -10097532.95348  -7868197.63346         0.00041  22544049.55346  22544046.83648
 -10511260.78449  -8190580.75447         0.00041  20974015.33447  20974015.16349
 94 02 25 00 15 30.0000000  0  6 02 07 15 19 26 27
  -6332429.10949  -4934353.03848         0.00041  20890456.42648  20890455.18449
  -9117270.81549  -7104359.61548         0.00041  20582566.13548  20582565.30049
   -938191.41448   -731055.62945         0.00041  23735939.74445  23735940.09348
   3856197.64448   3004831.96945         0.00041  23131615.79845  23131613.73048
 -10127404.44548  -7891474.13646         0.00041  22538364.35846  22538362.59348
 -10453589.74849  -8145642.29247         0.00041  20984989.70647  20984989.11049
 94 02 25 00 16 00.0000000  0  6 02 07 15 19 26 27
  -6327545.91549  -4930547.94348         0.00041  20891385.19748  20891384.80049
  -9153791.81349  -7132817.51148         0.00041  20575616.48648  20575615.77049
   -947338.73748   -738183.33645         0.00041  23734203.17045  23734200.28148
   3940546.26348   3070558.18045         0.00041  23147665.55545  23147665.87348
 -10156720.60048  -7914317.90146         0.00041  22532785.99046  22532784.76948
 -10395477.10549  -8100359.71247         0.00041  20996047.70247  20996047.47549
 94 02 25 00 16 30.0000000  0  6 02 07 15 19 26 27
  -6322510.44149  -4926624.19348         0.00041  20892343.42148  20892343.36249
  -9189826.63349  -7160896.56848         0.00041  20568759.08548  20568758.46849
   -955955.22248   -744897.53644         0.00041  23732561.03844  23732555.84248
   4025132.61948   3136469.56644         0.00041  23163760.70644  23163762.42748
 -10185517.37748  -7936756.94546         0.00041  22527305.64146  22527305.66848
 -10336960.54449  -8054762.39147         0.00041  21007183.19147  21007183.22649
 94 02 25 00 17 00.0000000  0  6 02 07 15 19 26 27
  -6317312.88249  -4922574.14348         0.00041  20893332.62348  20893332.01949
  -9225341.48549  -7188570.45848         0.00041  20562000.58848  20562000.02449
   -964028.81048   -751188.51645         0.00041  23731024.05445  23731022.19348
   4109955.66048   3202565.48844         0.00041  23179902.67944  23179902.08748
 -10213775.16048  -7958775.98146         0.00041  22521928.14446  22521928.79448
 -10278022.22449  -8008836.43747         0.00041  21018398.47147  21018399.20449
 94 02 25 00 17 30.0000000  0  6 02 07 15 19 26 27
  -6311966.00249  -4918407.73548         0.00041  20894350.05048  20894348.76649
  -9260336.47849  -7215839.26148         0.00041  20555341.27748  20555340.53749
   -971569.41648   -757064.27045         0.00041  23729589.29945  23729589.82248
   4194997.02947   3268831.43844         0.00041  23196085.84144  23196082.13047
 -10241493.48448  -7980374.64146         0.00041  22516652.33346  22516654.12748
 -10218662.94749  -7962582.46347         0.00041  21029694.36847  21029694.77849
 94 02 25 00 18 00.0000000  0  6 02 07 15 19 26 27
  -6306479.77049  -4914132.73248         0.00041  20895394.43448  20895392.63049
  -9294822.91149  -7242711.77948         0.00041  20548779.11648  20548778.04249
   -978587.99748   -762533.30445         0.00041  23728253.93545  23728250.34048
   4280240.86847   3335255.14144         0.00041  23212308.59644  23212304.15047
 -10268688.81348  -8001565.76046         0.00041  22511476.52046  22511479.11348
 -10158896.95249  -7916011.56447         0.00041  21041067.26247  21041067.09449
 94 02 25 00 18 30.0000000  0  6 02 07 15 19 26 27
  -6300836.75249  -4909735.55348         0.00041  20896468.43648  20896466.37349
  -9328796.98349  -7269185.05648         0.00041  20542314.26848  20542312.91649
   -985075.97748   -767588.83544         0.00041  23727019.01744  23727016.54148
   4365693.44547   3401841.55244         0.00041  23228567.98744  23228566.73247
 -10295345.54348  -8022337.19546         0.00041  22506404.17646  22506406.23448
 -10098714.59949  -7869116.23247         0.00041  21052519.88447  21052519.45649
 94 02 25 00 19 00.0000000  0  6 02 07 15 19 26 27
  -6295024.14849  -4905206.22948         0.00041  20897574.38048  20897572.57949
  -9362260.74049  -7295260.68448         0.00041  20535946.44648  20535945.01249
   -991031.19448   -772229.20345         0.00041  23725883.85145  23725885.49148
   4451375.47748   3468606.67444         0.00041  23244871.16244  23244872.69948
 -10321460.46748  -8042686.44546         0.00041  22501434.83946  22501436.70948
 -10038109.24549  -7821891.28147         0.00041  21064053.19347  21064052.68649
 94 02 25 00 19 30.0000000  0  6 02 07 15 19 26 27
  -6289042.14249  -4900544.90248         0.00041  20898712.79348  20898711.17649
  -9395231.71949  -7320952.33048         0.00041  20529672.26748  20529671.04049
   -996460.25248   -776459.60944         0.00041  23724857.82244  23724848.84548
   4537309.03848   3535567.91044         0.00041  23261220.58044  23261226.21548
 -10347048.51148  -8062625.16146         0.00041  22496567.33446  22496567.46148
  -9977096.80349  -7774349.12647         0.00041  21075663.41647  21075662.84249
 94 02 25 00 20 00.0000000  0  6 02 07 15 19 26 27
  -6282882.94049  -4895745.50848         0.00041  20899884.90548  20899883.81549
  -9427708.18249  -7346258.64148         0.00041  20523492.02648  20523491.19349
  -1001362.12948   -780279.25544         0.00041  23723926.09644  23723912.82048
   4623500.77748   3602730.26444         0.00041  23277627.28844  23277629.76348
 -10372111.71148  -8082154.92146         0.00041  22491795.98646  22491796.93748
  -9915695.96049  -7726504.32147         0.00041  21087347.79547  21087347.50249
 94 02 25 00 20 30.0000000  0  6 02 07 15 19 26 27
  -6276542.87649  -4890805.18848         0.00041  20901091.06548  20901090.30549
  -9459705.32749  -7371191.45948         0.00041  20517402.93448  20517402.34249
  -1005743.23348   -783693.10945         0.00041  23723090.86145  23723083.93148
   4709940.22648   3670085.67644         0.00041  23294073.39044  23294078.24748
 -10396661.07048  -8101284.29546         0.00041  22487124.85646  22487124.43848
  -9853918.32349  -7678365.90747         0.00041  21099103.57447  21099103.08249
 94 02 25 00 21 00.0000000  0  6 02 07 15 19 26 27
  -6270012.06849  -4885716.23248         0.00041  20902333.87148  20902332.70849
  -9491217.61049  -7395746.46248         0.00041  20511406.15148  20511405.69849
  -1009592.66748   -786692.60944         0.00041  23722349.64644  23722351.85748
   4796643.24248   3737646.25344         0.00041  23310570.03344  23310576.68948
 -10420703.79248  -8120018.86546         0.00041  22482550.10646  22482548.67648
  -9791759.99249  -7629930.84647         0.00041  21110931.41647  21110931.02849
 94 02 25 00 21 30.0000000  0  6 02 07 15 19 26 27
  -6263309.62249  -4880493.52548         0.00041  20903609.36348  20903607.76749
  -9522250.57549  -7419927.97148         0.00041  20505500.70748  20505500.12849
  -1012914.80648   -789281.24745         0.00041  23721720.17645  23721715.69748
   4883583.33248   3805391.71344         0.00041  23327116.40344  23327120.70448
 -10444241.83948  -8138360.16646         0.00041  22478071.20746  22478070.34348
  -9729225.95549  -7581203.03547         0.00041  21122830.77947  21122830.73449
 94 02 25 00 22 00.0000000  0  6 02 07 15 19 26 27
  -6256425.20749  -4875129.02148         0.00041  20904919.48648  20904917.89449
  -9552795.04349  -7443728.83348         0.00041  20499688.38548  20499687.44849
  -1015694.70348   -791447.38544         0.00041  23721190.48244  23721188.73148
   4970742.66148   3873308.15144         0.00041  23343703.40244  23343706.56348
 -10467261.99748  -8156297.91846         0.00041  22473689.47046  22473689.90748
  -9666288.13648  -7532160.59047         0.00041  21134807.97847  21134807.42048
 94 02 25 00 22 30.0000000  0  6 02 07 15 19 26 27
  -6249360.28849  -4869623.86748         0.00041  20906263.67748  20906262.65149
  -9582832.74549  -7467134.80248         0.00041  20493972.40048  20493971.52249
  -1017913.74248   -793176.39145         0.00041  23720772.36345  23720767.96248
   5058138.46348   3941408.67644         0.00041  23360346.68844  23360337.72848
 -10489745.16948  -8173817.25146         0.00041  22469412.64746  22469411.24348
  -9602909.99448  -7482775.05147         0.00041  21146868.83547  21146867.82448
 94 02 25 00 23 00.0000000  0  6 02 07 15 19 26 27
  -6242146.41849  -4864002.65848         0.00041  20907636.06948  20907635.83149
  -9612361.64449  -7490144.29948         0.00041  20488353.29948  20488352.42149
  -1019585.99948   -794479.41344         0.00041  23720452.29044  23720446.82348
   5145758.92548   4009684.31044         0.00041  23377023.12844  23377011.36348
 -10511703.12648  -8190927.34646         0.00041  22465234.27346  22465232.45848
  -9539108.44348  -7433059.56847         0.00041  21159009.22747  21159008.61648
 94 02 25 00 23 30.0000000  0  6 02 07 15 19 26 27
  -6234770.97049  -4858255.55348         0.00041  20909038.84848  20909039.25249
  -9641371.23449  -7512749.13748         0.00041  20482832.95548  20482831.90149
  -1020698.37847   -795346.26444         0.00041  23720237.21344  23720234.92247
   5233603.17048   4078134.26244         0.00041  23393739.29744  23393727.28648
 -10533116.44048  -8207613.04546         0.00041  22461159.79546  22461157.62448
  -9474868.71748  -7383002.65746         0.00041  21171234.01446  21171232.96148
 94 02 25 00 24 00.0000000  0  6 02 07 15 19 26 27
  -6227212.24849  -4852365.64148         0.00041  20910477.17448  20910477.85449
  -9669834.07549  -7534927.93848         0.00041  20477416.64048  20477415.67449
  -1021236.67448   -795765.66744         0.00041  23720135.85544  23720137.86848
   5321702.26648   4146782.92044         0.00041  23410483.69044  23410491.71948
 -10553976.42748  -8223867.58546         0.00041  22457189.99346  22457188.79748
  -9410185.02348  -7332599.79146         0.00041  21183542.65746  21183541.28448
 94 02 25 00 24 30.0000000  0  6 02 07 15 19 26 27
  -6219502.62049  -4846358.13748         0.00041  20911944.71448  20911944.58449
  -9697771.00649  -7556696.93748         0.00041  20472100.28548  20472099.53149
  -1021232.72248   -795762.50844         0.00041  23720140.09544  23720139.17148
   5410052.46147   4215627.29444         0.00041  23427297.12944  23427303.18147
 -10574303.61248  -8239706.94146         0.00041  22453322.31746  22453320.52848
  -9345100.19748  -7281884.36146         0.00041  21195927.96546  21195926.74848
 94 02 25 00 25 00.0000000  0  6 02 07 15 19 26 27
  -6211667.26849  -4840252.65548         0.00041  20913435.97448  20913435.53649
  -9725231.77749  -7578094.90348         0.00041  20466874.46748  20466873.87449
  -1020722.47748   -795364.87244         0.00041  23720236.38544  23720232.34648
   5498607.80547   4284631.31844         0.00041  23444161.36144  23444155.44347
 -10594133.41348  -8255158.70446         0.00041  22449548.97246  22449547.22348
  -9279663.72248  -7230894.92146         0.00041  21208379.92746  21208379.04148
 94 02 25 00 25 30.0000000  0  6 02 07 15 19 26 27
  -6203645.71149  -4834002.07448         0.00041  20914962.49148  20914961.93649
  -9752175.42249  -7599089.91648         0.00041  20461747.30248  20461746.62249
  -1019655.01048   -794533.12444         0.00041  23720429.11644  23720435.81348
   5587411.18347   4353828.71044         0.00041  23461054.80544  23461056.15947
 -10613404.04148  -8270174.75846         0.00041  22445881.30146  22445880.08048
  -9213814.69548  -7179584.00846         0.00041  21220910.52646  21220909.48148
 94 02 25 00 26 00.0000000  0  6 02 07 15 19 26 27
  -6195456.65749  -4827620.98048         0.00041  20916520.92548  20916520.38149
  -9778617.32749  -7619693.96148         0.00041  20456715.46648  20456715.23249
  -1018041.99148   -793276.12744         0.00041  23720744.42244  23720743.70248
   5676451.15547   4423210.57644         0.00041  23477997.53444  23478000.28447
 -10632122.20748  -8284760.32046         0.00041  22442319.67446  22442318.47048
  -9147570.50248  -7127965.17346         0.00041  21233516.72646  21233516.13548
 94 02 25 00 26 30.0000000  0  6 02 07 15 19 26 27
  -6187144.23949  -4821143.75948         0.00041  20918102.61848  20918102.23149
  -9804623.14349  -7639958.20248         0.00041  20451766.59248  20451766.23649
  -1015924.51347   -791626.10144         0.00041  23721142.24844  23721144.38447
   5765661.70948   4492725.30744         0.00041  23494982.11944  23494977.19548
 -10650324.90048  -8298944.20946         0.00041  22438855.97546  22438854.43748
  -9080977.04848  -7076074.18046         0.00041  21246188.81846  21246189.01648
 94 02 25 00 27 00.0000000  0  6 02 07 15 19 26 27
  -6178653.75449  -4814527.78048         0.00041  20919718.37348  20919717.12549
  -9830144.68649  -7659845.09248         0.00041  20446909.83048  20446909.68249
  -1013243.74547   -789537.25444         0.00041  23721659.54844  23721654.53947
   5855075.01648   4562397.98044         0.00041  23511998.03544  23511991.96848
 -10667964.48948  -8312689.31446         0.00041  22435498.88146  22435497.41348
  -9013970.66748  -7023861.42646         0.00041  21258939.57746  21258939.98748
 94 02 25 00 27 30.0000000  0  6 02 07 15 19 26 27
  -6169988.47949  -4807775.59748         0.00041  20921367.36048  20921365.38149
  -9855177.79049  -7679351.38548         0.00041  20442146.26248  20442146.14949
  -1010007.20047   -787015.11944         0.00041  23722270.20544  23722271.18947
   5944683.26448   4632222.53844         0.00041  23529049.56244  23529043.66648
 -10685052.79348  -8326004.85246         0.00041  22432246.64246  22432245.48548
  -8946553.69348  -6971328.73146         0.00041  21271769.07546  21271769.02748
 94 02 25 00 28 00.0000000  0  6 02 07 15 19 26 27
  -6161153.98449  -4800891.55748         0.00041  20923048.20848  20923046.51449
  -9879715.70849  -7698471.82448         0.00041  20437476.68348  20437476.75049
  -1006214.41447   -784059.73744         0.00041  23722990.07044  23722993.18947
   6034484.06748   4702197.18744         0.00041  23546136.29844  23546132.03748
 -10701605.30148  -8338902.89546         0.00041  22429096.62546  22429096.00748
  -8878735.36748  -6918483.29246         0.00041  21284674.71446  21284674.52848
 94 02 25 00 28 30.0000000  0  6 02 07 15 19 26 27
  -6152152.36749  -4793877.29448         0.00041  20924761.39148  20924760.05549
  -9903746.87249  -7717197.38748         0.00041  20432903.61548  20432903.52549
  -1001862.57547   -780668.46444         0.00041  23723823.46344  23723821.62747
   6124484.30847   4772327.19844         0.00041  23563252.86844  23563256.75947
 -10717631.21848  -8351390.60646         0.00041  22426046.93146  22426046.33248
  -8810505.83848  -6865317.43646         0.00041  21297658.35446  21297658.00148
 94 02 25 00 29 00.0000000  0  7 02 07 13 15 19 26 27
  -6143001.68249  -4786746.87448         0.00041  20926502.75948  20926501.50649
  -9927280.42749  -7735535.20348         0.00041  20428425.21948  20428424.92249
         0.36717         0.29516  23387373.40417  23387376.31916         0.00011
   -996972.99647   -776858.43144         0.00041  23724752.86444  23724748.46547
   6214672.59747   4842603.59444         0.00041  23580417.83344  23580417.47047
 -10733161.39248  -8363492.00246         0.00041  22423091.43346  22423090.78948
  -8741883.59548  -6811845.56746         0.00041  21310716.55846  21310716.03048
 94 02 25 00 29 30.0000000  0  7 02 07 13 15 19 26 27
  -6133669.08649  -4779474.70448         0.00041  20928278.49548  20928277.09649
  -9950277.21849  -7753454.75948         0.00041  20424049.25648  20424048.89349
   -112907.96507    -87980.09406  23365887.74007  23365889.85206         0.00001
   -991518.58447   -772608.19444         0.00041  23725794.40644  23725789.86147
   6305093.37047   4913061.19544         0.00041  23597620.63044  23597624.01847
 -10748166.27448  -8375184.10046         0.00041  22420236.71046  22420235.23548
  -8672853.44248  -6758055.84446         0.00041  21323852.53146  21323851.54048
 94 02 25 00 30 00.0000000  0  7 02 07 13 15 19 26 27
  -6124168.07749  -4772071.30348         0.00041  20930086.51448  20930085.05549
  -9972754.08649  -7770969.17748         0.00041  20419772.10648  20419771.70249
   -225590.11007   -175784.19706  23344445.29507  23344447.12706         0.00001
   -985503.79348   -767921.23844         0.00041  23726935.06244  23726936.48048
   6395756.39347   4983707.78944         0.00041  23614876.24844  23614875.41947
 -10762643.97648  -8386465.42146         0.00041  22417481.77146  22417480.11648
  -8603429.48948  -6703959.27646         0.00041  21337063.16646  21337062.91048
 94 02 25 00 30 30.0000000  0  6 02 07 15 19 26 27
  -6114491.78049  -4764531.31248         0.00041  20931927.66448  20931926.77449
  -9994723.23649  -7788087.96548         0.00041  20415591.77648  20415591.13249
   -978926.00047   -762795.59144         0.00041  23728184.11644  23728187.67447
   6486674.88847   5054553.22444         0.00041  23632181.67544  23632177.01147
 -10776578.06648  -8397323.15946         0.00041  22414831.22846  22414828.78648
  -8533619.09848  -6649561.57046         0.00041  21350347.68446  21350347.28948
 94 02 25 00 31 00.0000000  0  6 02 07 15 19 26 27
  -6104648.20449  -4756860.97748         0.00041  20933800.81048  20933800.56849
 -10016202.89849  -7804825.33548         0.00041  20411504.21148  20411503.56249
   -971804.09148   -757246.02244         0.00041  23729546.79444  23729543.58448
   6577828.66348   5125582.09844         0.00041  23649526.54944  23649524.94948
 -10789972.21348  -8407760.16646         0.00041  22412281.88646  22412279.70948
  -8463448.37048  -6594883.09646         0.00041  21363701.23446  21363700.43448
 94 02 25 00 31 30.0000000  0  6 02 07 15 19 26 27
  -6094636.26349  -4749059.45448         0.00041  20935705.91248  20935705.66149
 -10037191.34549  -7821179.93648         0.00041  20407510.22648  20407509.57749
   -964129.81648   -751266.08344         0.00041  23731006.17544  23731003.99348
   6669229.39248   5196803.33144         0.00041  23666925.60444  23666919.48348
 -10802802.77048  -8417758.00746         0.00041  22409840.35546  22409838.57548
  -8392907.13148  -6539915.90746         0.00041  21377124.84146  21377124.43848
 94 02 25 00 32 00.0000000  0  6 02 07 15 19 26 27
  -6084454.65549  -4741125.71848         0.00041  20937643.28648  20937642.79349
 -10057696.23349  -7837157.73848         0.00041  20403608.25448  20403607.70049
   -955903.51948   -744855.89344         0.00041  23732570.28044  23732569.32548
   6760854.75548   5268199.67644         0.00041  23684359.46844  23684356.36148
 -10815075.76348  -8427321.36446         0.00041  22407504.28346  22407502.51848
  -8321984.14048  -6484651.25746         0.00041  21390620.58346  21390620.80348
 94 02 25 00 32 30.0000000  0  6 02 07 15 19 26 27
  -6074116.75249  -4733070.18948         0.00041  20939610.97248  20939610.60449
 -10077713.73849  -7852755.76048         0.00041  20399798.77048  20399798.23149
   -947141.22048   -738028.09945         0.00041  23734235.84945  23734238.01848
   6852666.28048   5339741.00844         0.00041  23701829.19644  23701827.16748
 -10826810.27548  -8436465.10946         0.00041  22405269.73246  22405269.06548
  -8250681.12448  -6429090.47346         0.00041  21404189.24746  21404189.51548
 94 02 25 00 33 00.0000000  0  6 02 07 15 19 26 27
  -6063643.68649  -4724909.34448         0.00041  20941603.64948  20941603.84749
 -10097247.40849  -7867976.76948         0.00041  20396081.56048  20396081.13849
   -937858.84848   -730795.00445         0.00041  23736001.73645  23736004.11948
   6944630.16848   5411400.99544         0.00041  23719328.50144  23719326.70848
 -10838028.58448  -8445206.60546         0.00041  22403135.59946  22403134.52548
  -8178997.38848  -6373233.03946         0.00041  21417830.40046  21417830.15248
 94 02 25 00 33 30.0000000  0  5 02 07 19 26 27
  -6053020.20749  -4716631.29748         0.00041  20943625.37448  20943625.12449
 -10116283.38749  -7882809.97048         0.00041  20392459.11648  20392458.86149
   7036749.62248   5483181.79944         0.00041  23736852.72044  23736856.29248
 -10848723.49348  -8453540.26246         0.00041  22401100.75646  22401099.47448
  -8106913.51848  -6317063.82246         0.00041  21431547.73846  21431547.23248
 94 02 25 00 34 00.0000000  0  5 02 07 19 26 27
  -6042261.54449  -4708247.91148         0.00041  20945672.58048  20945672.14449
 -10134834.56849  -7897265.41448         0.00041  20388928.62248  20388928.82349
   7129000.44948   5555065.21044         0.00041  23754414.22644  23754411.41848
 -10858923.54648  -8461488.33346         0.00041  22399160.07646  22399158.84948
  -8034450.69148  -6260599.30846         0.00041  21445337.40846  21445336.73048
 94 02 25 00 34 30.0000000  0  5 02 07 19 26 27
  -6031356.20049  -4699750.22348         0.00041  20947748.15048  20947747.07449
 -10152884.22049  -7911330.05948         0.00041  20385494.07148  20385494.25249
   7221414.79948   5627076.34244         0.00041  23771997.99444  23771997.46548
 -10868595.85348  -8469025.18946         0.00041  22397320.04046  22397318.74548
  -7961591.58748  -6203825.99846         0.00041  21459201.73946  21459201.06748
 94 02 25 00 35 00.0000000  0  5 02 07 19 26 27
  -6020261.34949  -4691104.86348         0.00041  20949859.54448  20949858.35349
 -10170409.53449  -7924986.12848         0.00041  20382159.45948  20382159.39549
   7314044.55247   5699255.41444         0.00041  23789624.27144  23789624.34147
 -10877706.74448  -8476124.57146         0.00041  22395585.97346  22395584.83048
  -7888304.98348  -6146719.57046         0.00041  21473147.21846  21473147.16448
 94 02 25 00 35 30.0000000  0  5 02 07 19 26 27
  -6008971.49449  -4682307.55448         0.00041  20952007.98848  20952007.20549
 -10187420.52349  -7938241.42648         0.00041  20378922.30548  20378921.98749
   7406900.36247   5771610.34944         0.00041  23807289.02544  23807293.54547
 -10886259.88448  -8482789.33346         0.00041  22393957.62846  22393957.38248
  -7814594.31248  -6089282.69346         0.00041  21487173.60246  21487174.22548
 94 02 25 00 36 00.0000000  0  4 02 07 26 27
  -5997493.90849  -4673363.96348         0.00041  20954191.88948  20954190.84149
 -10203917.88649  -7951096.48948         0.00041  20375783.02848  20375782.62749
 -10894255.44448  -8489019.61946         0.00041  22392435.88646  22392436.03848
  -7740457.22448  -6031513.55146         0.00041  21501280.76746  21501281.37448
 94 02 25 00 36 30.0000000  0  4 02 07 26 27
  -5985861.43349  -4664299.68248         0.00041  20956404.94248  20956404.08649
 -10219931.04349  -7963574.24748         0.00041  20372735.68948  20372735.38349
 -10901730.95748  -8494844.66746         0.00041  22391013.60546  22391013.61448
  -7665933.64948  -5973443.24946         0.00041  21515462.22446  21515461.96348
 94 02 25 00 37 00.0000000  0  5 02 07 15 26 27
  -5974063.95249  -4655106.83148         0.00041  20958649.95048  20958649.75049
 -10235451.76449  -7975668.28848         0.00041  20369782.08548  20369781.95049
        -0.42158        -0.29554         0.00051  23753912.87754  23753913.84958
 -10908695.81748  -8500271.80946         0.00041  22389688.03346  22389687.86848
  -7591028.61648  -5915075.70946         0.00041  21529716.05846  21529715.68548
 94 02 25 00 37 30.0000000  0  6 02 07 13 15 26 27
  -5962043.39349  -4645740.15948         0.00041  20960937.49548  20960937.40749
 -10250407.30149  -7987321.93448         0.00041  20366936.13448  20366936.01549
        -0.50817        -0.05016  23028045.98517  23028049.20416         0.00011
     14360.93548     11190.43244         0.00041  23756648.27744  23756645.60748
 -10915081.21848  -8505247.42646         0.00041  22388473.96446  22388473.21048
  -7515693.74348  -5856373.21846         0.00041  21544052.23146  21544051.48348
 94 02 25 00 38 00.0000000  0  6 02 07 13 15 26 27
  -5949817.82949  -4636213.74148         0.00041  20963264.28048  20963263.76549
 -10264802.98949  -7998539.33248         0.00041  20364196.74448  20364196.21949
   -108728.31107    -84722.96306  23007355.49507  23007358.82106         0.00001
     29321.74348     22848.24744         0.00041  23759489.42644  23759489.56948
 -10920893.13248  -8509776.17246         0.00041  22387368.18846  22387367.08048
  -7439955.24648  -5797356.23046         0.00041  21558464.36346  21558464.75448
 94 02 25 00 38 30.0000000  0  6 02 07 13 15 26 27
  -5937445.75249  -4626573.15048         0.00041  20965618.67448  20965618.09149
 -10278696.21849  -8009365.19948         0.00041  20361553.17648  20361552.18649
   -217198.25507   -169244.96406  22986714.35107  22986716.37806         0.00001
     44829.31148     34932.06844         0.00041  23762440.77444  23762440.89948
 -10926182.16048  -8513897.48846         0.00041  22386361.50446  22386360.72148
  -7363873.03948  -5738071.41346         0.00041  21572942.81446  21572943.05248
 94 02 25 00 39 00.0000000  0  6 02 07 13 15 26 27
  -5924942.48149  -4616830.33748         0.00041  20967997.00248  20967997.58449
 -10292105.44949  -8019813.92248         0.00041  20359001.42748  20359000.36949
   -325405.19407   -253562.03606  22966123.18307  22966127.16206         0.00001
     60885.48348     47443.40544         0.00041  23765489.52144  23765497.21448
 -10930935.85448  -8517601.64946         0.00041  22385457.02546  22385455.76248
  -7287443.46448  -5678515.91846         0.00041  21587487.57446  21587487.20648
 94 02 25 00 39 30.0000000  0  5 02 07 15 26 27
  -5912295.12349  -4606975.26148         0.00041  20970402.95348  20970404.15349
 -10305024.15049  -8029880.41448         0.00041  20356542.86848  20356542.28549
     77506.09848     60394.46844         0.00041  23768657.81844  23768659.51848
 -10935123.42648  -8520864.67846         0.00041  22384659.45246  22384658.01648
  -7210646.57548  -5618674.20946         0.00041  21602102.48246  21602101.21248
 94 02 25 00 40 00.0000000  0  5 02 07 15 26 27
  -5899533.75249  -4597031.34348         0.00041  20972831.86148  20972832.39249
 -10317499.90849  -8039601.76548         0.00041  20354168.87048  20354168.43249
     94653.78048     73756.38244         0.00041  23771919.10644  23771922.95548
 -10938777.63348  -8523712.09746         0.00041  22383965.49446  22383962.39348
  -7133507.79948  -5558566.08846         0.00041  21616781.47046  21616780.14348
 94 02 25 00 40 30.0000000  0  5 02 07 15 26 27
  -5886636.69849  -4586981.68748         0.00041  20975286.17548  20975285.94549
 -10329514.01049  -8048963.39048         0.00041  20351882.32348  20351882.10349
    112346.17148     87542.68944         0.00041  23775292.11844  23775287.91448
 -10941880.92748  -8526130.23146         0.00041  22383373.38246  22383371.88748
  -7055998.25648  -5498169.05946         0.00041  21631531.07846  21631529.66448
 94 02 25 00 41 00.0000000  0  5 02 07 15 26 27
  -5873567.41049  -4576797.81948         0.00041  20977773.72248  20977772.88149
 -10341034.41949  -8057940.32348         0.00041  20349689.93848  20349689.72249
    130593.28248    101761.28244         0.00041  23778767.90044  23778758.96348
 -10944415.92648  -8528105.53246         0.00041  22382890.13946  22382888.95348
  -6978102.33348  -5437470.94647         0.00041  21646354.41647  21646352.91548
 94 02 25 00 41 30.0000000  0  5 02 07 15 26 27
  -5860328.67849  -4566481.91648         0.00041  20980293.15548  20980292.47549
 -10352070.86649  -8066540.14048         0.00041  20347589.86248  20347589.36349
    149364.23448    116387.98844         0.00041  23782340.03144  23782333.36648
 -10946431.11548  -8529675.78246         0.00041  22382506.27746  22382505.97248
  -6899853.24249  -5376497.64146         0.00041  21661244.54746  21661243.53049
 94 02 25 00 42 00.0000000  0  5 02 07 15 26 27
  -5846931.42149  -4556042.48548         0.00041  20982842.51348  20982842.32049
 -10362626.58049  -8074765.35948         0.00041  20345581.18848  20345580.67149
    168651.67948    131417.29444         0.00041  23786005.26344  23786003.24548
 -10947954.51048  -8530862.80446         0.00041  22382215.72046  22382216.11748
  -6821261.15049  -5315257.05746         0.00041  21676199.31346  21676199.18149
 94 02 25 00 42 30.0000000  0  5 02 07 15 26 27
  -5833380.75649  -4545483.51348         0.00041  20985420.87148  20985420.75949
 -10372694.40249  -8082610.39848         0.00041  20343665.58348  20343665.21949
    188454.52248    146848.11744         0.00041  23789779.27144  23789771.41148
 -10948998.84948  -8531676.54646         0.00041  22382018.45146  22382017.68048
  -6742331.57449  -5253753.50246         0.00041  21691219.17946  21691218.83349
 94 02 25 00 43 00.0000000  0  5 02 07 15 26 27
  -5819649.26049  -4534783.63348         0.00041  20988034.48448  20988034.08549
 -10382258.61949  -8090063.01548         0.00041  20341845.74248  20341845.08349
    208799.84648    162701.81144         0.00041  23793647.34944  23793642.60548
 -10949553.02548  -8532108.34146         0.00041  22381913.05046  22381911.18348
  -6663048.20348  -5191974.26946         0.00041  21706306.14346  21706305.72948
 94 02 25 00 43 30.0000000  0  5 02 07 15 26 27
  -5805727.23149  -4523935.28448         0.00041  20990683.70448  20990682.84849
 -10391321.26449  -8097124.79248         0.00041  20340121.03348  20340120.17049
    229717.26348    179000.90844         0.00041  23797634.55944  23797623.60548
 -10949594.29448  -8532140.47646         0.00041  22381905.66046  22381903.11448
  -6583389.90048  -5129902.88946         0.00041  21721464.12646  21721464.07248
 94 02 25 00 44 00.0000000  0  5 02 07 15 26 27
  -5791622.19649  -4512944.33048         0.00041  20993367.23948  20993366.94249
 -10399874.39149  -8103789.53348         0.00041  20338493.43948  20338492.15649
    251217.49648    195754.34744         0.00041  23801718.48644  23801716.77248
 -10949090.28248  -8531747.72846         0.00041  22382001.87646  22381999.32348
  -6503346.03348  -5067531.06446         0.00041  21736695.53446  21736695.79848
 94 02 25 00 44 30.0000000  0  5 02 07 15 26 27
  -5777323.52349  -4501802.49548         0.00041  20996087.83448  20996088.03749
 -10407904.64049  -8110046.82948         0.00041  20336965.50548  20336963.98349
    273312.52348    212971.17344         0.00041  23805920.13144  23805921.75648
 -10948013.67248  -8530908.79346         0.00041  22382207.19546  22382205.43748
  -6422908.36048  -5004852.37446         0.00041  21752001.69846  21752002.55248
 94 02 25 00 45 00.0000000  0  5 02 07 15 26 27
  -5762853.76049  -4490527.34048         0.00041  20998841.42548  20998841.76449
 -10415447.13549  -8115924.06348         0.00041  20335530.11548  20335529.05849
    295978.60247    230633.04044         0.00041  23810233.90744  23810231.60647
 -10946378.74248  -8529634.81646         0.00041  22382517.56446  22382517.00748
  -6342107.07548  -4941890.36046         0.00041  21767378.51646  21767378.63248
 94 02 25 00 45 30.0000000  0  4 02 07 26 27
  -5748165.50149  -4479081.93248         0.00041  21001636.26648  21001637.01749
 -10422449.86849  -8121380.70948         0.00041  20334197.42348  20334196.87149
 -10944129.38648  -8527882.04846         0.00041  22382945.68446  22382945.02848
  -6260900.45848  -4878612.50446         0.00041  21782831.30746  21782831.39848
 94 02 25 00 46 00.0000000  0  6 02 07 09 13 26 27
  -5733306.94149  -4467503.82148         0.00041  21004464.31848  21004464.61849
 -10428946.69349  -8126443.14648         0.00041  20332960.90348  20332960.40749
        -0.16057         0.10754         0.00051  24901762.51254  24901751.83557
        -0.38217         0.19716  22683381.16417  22683379.94616         0.00011
 -10941310.80348  -8525685.74346         0.00041  22383481.51046  22383481.26048
  -6179337.92448  -4815057.30046         0.00041  21798351.93946  21798352.15748
 94 02 25 00 46 30.0000000  0  6 02 07 09 13 26 27
  -5718341.84849  -4455842.70048         0.00041  21007312.34348  21007312.18349
 -10435019.74849  -8131175.37148         0.00041  20331805.22948  20331804.76749
    -99396.09247    -77450.88644         0.00041  24882837.81044  24882839.01647
   -103858.65307    -80928.19606  22663617.54907  22663615.76806         0.00001
 -10938006.80948  -8523111.17846         0.00041  22384110.05646  22384110.33948
  -6097485.39748  -4751276.12946         0.00041  21813928.75646  21813928.37248
 94 02 25 00 47 00.0000000  0  6 02 07 09 13 26 27
  -5703204.88649  -4444047.65148         0.00041  21010192.87848  21010192.02549
 -10440604.70649  -8135527.25948         0.00041  20330742.62848  20330741.74849
   -198803.77247   -154911.40044         0.00041  24863915.42044  24863922.84247
   -207395.27307   -161605.90306  22643914.80207  22643911.49506         0.00001
 -10934158.81148  -8520112.71446         0.00041  22384842.46746  22384842.60948
  -6015269.71348  -4687211.97746         0.00041  21829574.09046  21829573.33348
 94 02 25 00 47 30.0000000  0  5 02 07 13 26 27
  -5687954.14749  -4432163.94048         0.00041  21013095.19148  21013094.06049
 -10445727.77949  -8139519.23448         0.00041  20329767.56748  20329766.93549
   -310647.63407   -242062.11406  22624265.77007  22624263.68306         0.00001
 -10929809.47748  -8516723.60146         0.00041  22385669.95546  22385670.02348
  -5932720.62248  -4622888.03846         0.00041  21845283.17846  21845281.91748
 94 02 25 00 48 00.0000000  0  6 02 07 13 15 26 27
  -5672588.89249  -4420191.00048         0.00041  21016019.48648  21016018.17049
 -10450369.61949  -8143136.23248         0.00041  20328883.91348  20328883.82949
   -413589.34507   -322276.34106  22604675.73607  22604676.01406         0.00001
        -0.69157        -0.67054         0.00051  23838348.09354  23838341.88057
 -10924938.79048  -8512928.23746         0.00041  22386597.19446  22386597.04048
  -5849813.85448  -4558285.38646         0.00041  21861059.89846  21861058.78148
 94 02 25 00 48 30.0000000  0  6 02 07 13 15 26 27
  -5657090.01949  -4408113.94348         0.00041  21018968.62448  21018967.84149
 -10454520.63949  -8146370.77748         0.00041  20328093.83148  20328094.24749
   -516207.95107   -402238.80106  22585147.41107  22585149.33406         0.00001
     26502.64148     20651.28044         0.00041  23843383.35444  23843387.73148
 -10919555.69848  -8508733.60446         0.00041  22387621.94746  22387621.07948
  -5766533.95748  -4493391.98746         0.00041  21876908.13146  21876906.88348
 94 02 25 00 49 00.0000000  0  6 02 07 13 15 26 27
  -5641390.68449  -4395880.68848         0.00041  21021955.73548  21021955.33449
 -10458096.75049  -8149157.34548         0.00041  20327412.91848  20327413.50949
   -618431.02806   -481893.05306  22565694.89106  22565697.56706         0.00001
     53626.09448     41786.48644         0.00041  23848547.37844  23848549.37348
 -10913590.90748  -8504085.68646         0.00041  22388756.48846  22388755.96948
  -5682822.24548  -4428162.10446         0.00041  21892837.69746  21892836.81048
 94 02 25 00 49 30.0000000  0  6 02 07 13 15 26 27
  -5625543.87949  -4383532.51848         0.00041  21024971.03748  21024970.33949
 -10461172.37949  -8151553.93148         0.00041  20326827.59548  20326827.70549
   -720321.59107   -561288.22806  22546305.67007  22546308.48406         0.00001
     81303.17648     63353.09744         0.00041  23853813.56944  23853812.15648
 -10907115.45848  -8499039.85646         0.00041  22389989.19846  22389988.39648
  -5598760.89548  -4362659.78246         0.00041  21908834.56546  21908833.45748
 94 02 25 00 50 00.0000000  0  6 02 07 13 15 26 27
  -5609537.15549  -4371059.73248         0.00041  21028017.29348  21028016.24949
 -10463780.71949  -8153586.39348         0.00041  20326331.37748  20326330.94249
   -821894.45807   -640435.84706  22526977.05407  22526979.81306         0.00001
    109516.07548     85337.11244         0.00041  23859185.79544  23859179.87848
 -10900152.77348  -8493614.36646         0.00041  22391314.62546  22391313.50848
  -5514376.83648  -4296905.98646         0.00041  21924891.21846  21924891.25048
 94 02 25 00 50 30.0000000  0  6 02 07 13 15 26 27
  -5593326.32549  -4358427.91348         0.00041  21031101.91148  21031101.09449
 -10465903.49249  -8155240.49348         0.00041  20325927.77648  20325927.44649
   -923124.00607   -719315.91706  22507713.45107  22507716.23006         0.00001
    138287.25748    107756.27445         0.00041  23864661.26745  23864656.04948
 -10892681.41948  -8487792.51146         0.00041  22392736.04246  22392735.12948
  -5429650.16948  -4230885.24146         0.00041  21941014.42046  21941014.12248
 94 02 25 00 51 00.0000000  0  6 02 07 13 15 26 27
  -5576905.25849  -4345632.27248         0.00041  21034226.81148  21034225.87649
 -10467549.49749  -8156523.08548         0.00041  20325614.74448  20325614.19449
  -1024003.36607   -797923.07806  22488516.16907  22488519.10106         0.00001
    167619.91448    130612.94345         0.00041  23870240.44345  23870238.89448
 -10884674.98648  -8481553.71846         0.00041  22394260.03946  22394257.97948
  -5344581.98848  -4164598.37746         0.00041  21957202.86946  21957202.01548
 94 02 25 00 51 30.0000000  0  6 02 07 13 15 26 27
  -5560273.60549  -4332672.53548         0.00041  21037391.29848  21037390.57949
 -10468727.56349  -8157441.04548         0.00041  20325390.99548  20325390.08549
  -1124536.95407   -876260.79106  22469385.47507  22469387.49106         0.00001
    197506.57848    153901.31045         0.00041  23875925.82745  23875927.48548
 -10876127.84348  -8474893.61446         0.00041  22395885.96746  22395884.30548
  -5259169.51548  -4098043.23946         0.00041  21973455.84446  21973455.60048
 94 02 25 00 52 00.0000000  0  7 02 07 09 13 15 26 27
  -5543464.21249  -4319574.29448         0.00041  21040590.52948  21040589.38349
 -10469443.48149  -8157998.89148         0.00041  20325254.75648  20325253.90149
        -0.92357        -0.07154         0.00051  24674731.77854  24674727.83257
  -1224737.52007   -954338.99606  22450317.94607  22450320.04206         0.00001
    227931.26848    177608.84646         0.00041  23881718.67846  23881717.41748
 -10867049.98948  -8467819.99846         0.00041  22397613.86546  22397611.14648
  -5173415.72048  -4031222.13046         0.00041  21989774.57546  21989773.89848
 94 02 25 00 52 30.0000000  0  7 02 07 09 13 15 26 27
  -5526521.85849  -4306372.44948         0.00041  21043814.37048  21043813.53849
 -10469719.36149  -8158213.84748         0.00041  20325202.17948  20325201.27349
    -99385.21248    -77442.43144         0.00041  24655813.83244  24655816.93448
  -1324630.63707  -1032177.66306  22431308.77207  22431311.00106         0.00001
    258864.98248    201713.06746         0.00041  23887605.02446  23887603.61648
 -10857468.57948  -8460353.97946         0.00041  22399437.24146  22399435.29448
  -5087345.51048  -3964154.45246         0.00041  22006153.75046  22006152.53448
 94 02 25 00 53 00.0000000  0  7 02 07 09 13 15 26 27
  -5509436.42149  -4293059.11448         0.00041  21047065.39248  21047064.56449
 -10469529.35749  -8158065.77648         0.00041  20325238.06648  20325237.44549
   -198793.57648   -154903.75644         0.00041  24636910.38044  24636900.58748
  -1424190.86907  -1109756.99106  22412362.78207  22412365.81606         0.00001
    290329.56548    226230.92646         0.00041  23893593.20646  23893591.53848
 -10847353.81748  -8452472.34646         0.00041  22401361.13946  22401361.06448
  -5000938.94048  -3896824.67946         0.00041  22022596.42946  22022595.43748
 94 02 25 00 53 30.0000000  0  6 02 07 09 15 26 27
  -5492202.67249  -4279630.21748         0.00041  21050344.68248  21050344.45249
 -10468840.19349  -8157528.74548         0.00041  20325369.46548  20325368.95249
   -298192.74448   -232358.16144         0.00041  24617992.19744  24617985.64048
    322343.85048    251177.12346         0.00041  23899682.34246  23899682.68548
 -10836699.62148  -8444170.35646         0.00041  22403388.02846  22403388.36648
  -4914173.37248  -3829215.16146         0.00041  22039107.78646  22039106.59448
 94 02 25 00 54 00.0000000  0  6 02 07 09 15 26 27
  -5474833.76449  -4266096.00448         0.00041  21053649.76748  21053649.40349
 -10467675.21449  -8156620.94548         0.00041  20325591.34748  20325590.46449
   -397579.64348   -309802.37944         0.00041  24599069.09944  24599073.67848
    354903.75448    276548.48345         0.00041  23905881.11145  23905878.21448
 -10825524.26848  -8435462.27546         0.00041  22405514.20646  22405514.99648
  -4827048.60448  -3761325.74046         0.00041  22055686.56746  22055685.37848
 94 02 25 00 54 30.0000000  0  6 02 07 09 15 26 27
  -5457316.94149  -4252446.52948         0.00041  21056983.46848  21056982.67249
 -10466053.97449  -8155357.61548         0.00041  20325899.76948  20325898.83949
   -496947.78548   -387232.14044         0.00041  24580172.05944  24580165.68248
    387999.36348    302337.27045         0.00041  23912179.08745  23912175.64948
 -10813839.33848  -8426357.11446         0.00041  22407737.61746  22407737.93148
  -4739582.17248  -3693170.09146         0.00041  22072331.68646  22072329.40448
 94 02 25 00 55 00.0000000  0  6 02 07 09 15 26 27
  -5439626.59349  -4238661.83348         0.00041  21060349.96448  21060349.30549
 -10463950.65549  -8153718.63848         0.00041  20326300.10248  20326299.15649
   -596271.73748   -464627.32944         0.00041  24561267.24844  24561264.71248
    421649.25048    328558.00045         0.00041  23918584.22745  23918579.57848
 -10801627.74748  -8416841.57346         0.00041  22410062.42146  22410061.64648
  -4651752.55648  -3624731.43346         0.00041  22089044.30946  22089042.28548
 94 02 25 00 55 30.0000000  0  6 02 07 09 15 26 27
  -5421752.41149  -4224733.88548         0.00041  21063750.97648  21063750.11849
 -10461372.85249  -8151709.93948         0.00041  20326790.37948  20326789.72349
   -695560.59248   -541996.08744         0.00041  24542372.72544  24542370.34848
    455850.44248    355208.29045         0.00041  23925087.36345  23925088.17948
 -10788913.02848  -8406933.99546         0.00041  22412482.01046  22412481.03048
  -4563561.84748  -3556011.42546         0.00041  22105826.40046  22105824.43348
 94 02 25 00 56 00.0000000  0  6 02 07 09 15 26 27
  -5403701.69849  -4210668.38248         0.00041  21067185.98248  21067184.85049
 -10458344.61449  -8149350.25648         0.00041  20327366.52348  20327365.99549
   -794841.92948   -619358.39044         0.00041  24523473.73944  24523478.13248
    490576.23148    382267.34144         0.00041  23931696.54144  23931695.62348
 -10775722.94948  -8396656.00446         0.00041  22414991.89646  22414991.06048
  -4475050.68848  -3487041.70846         0.00041  22122670.47146  22122667.32548
 94 02 25 00 56 30.0000000  0  6 02 07 09 15 26 27
  -5385471.22149  -4196462.80048         0.00041  21070655.34648  21070654.19149
 -10454845.44149  -8146623.61048         0.00041  20328032.36848  20328031.87749
   -894115.60347   -696714.93644         0.00041  24504589.62844  24504585.15647
    525822.50448    409732.00544         0.00041  23938400.72044  23938401.38948
 -10762052.06448  -8386003.34046         0.00041  22417593.55646  22417592.93648
  -4386239.40548  -3417838.11946         0.00041  22139569.74446  22139567.33248
 94 02 25 00 57 00.0000000  0  6 02 07 09 15 26 27
  -5367056.75149  -4182113.85048         0.00041  21074159.57048  21074158.66649
 -10450836.09649  -8143499.42448         0.00041  20328795.29348  20328794.79449
   -993349.34747   -774039.43944         0.00041  24485704.42444  24485702.06747
    561619.81947    437626.06944         0.00041  23945218.85244  23945210.60347
 -10747867.44648  -8374950.35746         0.00041  22420292.78246  22420292.25648
  -4297099.39348  -3348378.39246         0.00041  22156532.92246  22156530.19248
 94 02 25 00 57 30.0000000  0  6 02 07 13 15 26 27
  -5348468.94949  -4167629.84448         0.00041  21077696.49748  21077696.27449
 -10446337.53249  -8139994.03048         0.00041  20329651.45748  20329650.90349
        -0.20717        -0.41216  22244914.87017  22244915.97116         0.00011
    597964.62247    465946.65444         0.00041  23952128.59244  23952125.62747
 -10733166.30548  -8363494.87646         0.00041  22423088.69146  22423089.57648
  -4207649.75748  -3278677.39746         0.00041  22173554.04946  22173552.12548
 94 02 25 00 58 00.0000000  0  6 02 07 13 15 26 27
  -5329729.58949  -4153027.73948         0.00041  21081262.01548  21081262.31049
 -10441350.98849  -8136108.39048         0.00041  20330600.32748  20330599.81749
    -95932.17307    -74752.57106  22226659.78907  22226660.56606         0.00001
    634852.80848    494690.76144         0.00041  23959152.51144  23959146.54348
 -10717930.94248  -8351623.13546         0.00041  22425988.53246  22425988.81648
  -4117901.96848  -3208744.08146         0.00041  22190632.82946  22190630.71848
 94 02 25 00 58 30.0000000  0  6 02 07 13 15 26 27
  -5310817.73849  -4138291.22648         0.00041  21084860.81548  21084861.09649
 -10435862.25849  -8131831.44048         0.00041  20331644.82448  20331644.38549
   -191449.05707   -149181.27306  22208483.08707  22208484.01506         0.00001
    672316.65248    523883.33444         0.00041  23966279.15844  23966276.87048
 -10702125.16148  -8339306.92946         0.00041  22428995.61546  22428996.34648
  -4027815.40048  -3138546.78746         0.00041  22207775.70346  22207773.26748
 94 02 25 00 59 00.0000000  0  6 02 07 13 15 26 27
  -5291737.96749  -4123423.86248         0.00041  21088491.68448  21088491.73749
 -10429894.54049  -8127181.25848         0.00041  20332780.30848  20332780.02649
   -286557.92407   -223292.04407  22190383.77407  22190385.05807         0.00001
    710345.57048    553516.35144         0.00041  23973515.89444  23973514.79048
 -10685768.20348  -8326561.26546         0.00041  22432109.57546  22432108.42948
  -3937395.59648  -3068089.81746         0.00041  22224983.28046  22224979.89048
 94 02 25 00 59 30.0000000  0  6 02 07 13 15 26 27
  -5272487.18049  -4108423.23548         0.00041  21092155.08948  21092155.11249
 -10423481.53349  -8122184.09748         0.00041  20334000.72448  20334000.49549
   -381283.60007   -297104.17707  22172358.20807  22172359.50607         0.00001
    748911.34548    583567.58945         0.00041  23980858.90645  23980853.64548
 -10668895.76548  -8313413.92046         0.00041  22435319.93446  22435318.58348
  -3846664.13848  -2997389.99346         0.00041  22242247.97446  22242246.15348
 94 02 25 01 00 00.0000000  0  6 02 07 09 15 26 27
  -5253032.42949  -4093263.67948         0.00041  21095857.23748  21095857.12149
 -10416589.64249  -8116813.78348         0.00041  20335312.06448  20335312.13149
        -0.68357        -0.51354         0.00051  24372608.22254  24372595.15657
    788035.28848    614053.75445         0.00041  23988301.43445  23988300.70948
 -10651500.03148  -8299858.82146         0.00041  22438631.43546  22438628.79748
  -3755579.90348  -2926415.30746         0.00041  22259580.43446  22259578.09948
 94 02 25 01 00 30.0000000  0  6 02 07 09 15 26 27
  -5233400.55449  -4077966.10548         0.00041  21099593.14648  21099592.97949
 -10409267.82649  -8111108.46148         0.00041  20336705.33648  20336705.34949
    -98900.85147    -77065.44544         0.00041  24353780.79044  24353775.37847
    827673.79348    644940.90444         0.00041  23995844.85944  23995843.77748
 -10633634.80348  -8285937.89246         0.00041  22442030.68846  22442028.58348
  -3664175.75648  -2855191.32046         0.00041  22276974.69046  22276971.64648
 94 02 25 01 01 00.0000000  0  6 02 07 09 15 26 27
  -5213608.24849  -4062543.51548         0.00041  21103359.55448  21103359.10349
 -10401517.37249  -8105069.13448         0.00041  20338180.27848  20338179.88049
   -197775.09247   -154110.24244         0.00041  24334960.02044  24334960.74447
    867813.09748    676218.24545         0.00041  24003481.23245  24003481.55148
 -10615307.03748  -8271656.52146         0.00041  22445518.16946  22445516.10748
  -3572468.62148  -2783731.24046         0.00041  22294425.33346  22294423.66848
 94 02 25 01 01 30.0000000  0  5 02 07 09 26 27
  -5193659.43949  -4046998.97448         0.00041  21107156.17648  21107155.23249
 -10393322.44849  -8098683.46348         0.00041  20339739.71048  20339738.92249
   -296615.78847   -231128.84444         0.00041  24316152.41044  24316152.08547
 -10596500.11348  -8257001.77746         0.00041  22449096.28446  22449095.55748
  -3480445.74748  -2712025.12346         0.00041  22311936.91246  22311936.17348
 94 02 25 01 02 00.0000000  0  5 02 07 09 26 27
  -5173581.10349  -4031353.50348         0.00041  21110976.90848  21110975.71249
 -10384679.78849  -8091948.90548         0.00041  20341384.37148  20341383.42849
   -395411.88447   -308112.70544         0.00041  24297352.18944  24297352.52247
 -10577196.25448  -8241959.81546         0.00041  22452769.57046  22452769.03048
  -3388115.13848  -2640079.22346         0.00041  22329506.54746  22329505.71948
 94 02 25 01 02 30.0000000  0  6 02 07 09 13 26 27
  -5153331.45649  -4015574.55148         0.00041  21114829.91648  21114829.08449
 -10375543.39749  -8084829.61948         0.00041  20343122.92048  20343122.06749
   -494120.28547   -385028.27444         0.00041  24278562.29744  24278567.30447
         0.16517        -0.43317  22065730.21517  22065733.01417         0.00011
 -10557336.74448  -8226484.86446         0.00041  22456549.09246  22456547.36948
  -3295451.26848  -2567873.63746         0.00041  22347138.46046  22347139.09148
 94 02 25 01 03 00.0000000  0  5 02 07 13 26 27
  -5132961.43649  -3999701.80248         0.00041  21118706.08248  21118705.39049
 -10365954.94949  -8077358.08248         0.00041  20344947.40848  20344946.73749
    -92029.82208    -71712.06207  22048217.97008  22048220.26407         0.00001
 -10536976.63848  -8210619.88346         0.00041  22460422.24746  22460420.06048
  -3202509.57748  -2495451.56446         0.00041  22364827.21246  22364825.23848
 94 02 25 01 03 30.0000000  0  5 02 07 13 26 27
  -5112460.12549  -3983726.75148         0.00041  21122607.40148  21122607.10549
 -10355926.75949  -8069543.89048         0.00041  20346855.60048  20346855.23649
   -183676.61508   -143125.08807  22030778.39808  22030780.43207         0.00001
 -10516125.31448  -8194372.09546         0.00041  22464390.13246  22464387.26148
  -3109284.91448  -2422808.99846         0.00041  22382566.07946  22382565.04948
 94 02 25 01 04 00.0000000  0  5 02 07 13 26 27
  -5091760.59249  -3967597.24148         0.00041  21126546.34348  21126546.24049
 -10345423.67449  -8061359.65648         0.00041  20348854.21448  20348854.00449
   -274892.30108   -214202.20007  22013420.71208  22013422.61707         0.00001
 -10494742.51548  -8177710.21046         0.00041  22468458.78846  22468458.03648
  -3015726.79448  -2349906.59446         0.00041  22400370.64346  22400369.59248
 94 02 25 01 04 30.0000000  0  5 02 07 13 26 27
  -5070851.13949  -3951304.16448         0.00041  21130525.43548  21130525.40249
 -10334451.79449  -8052810.12748         0.00041  20350941.91248  20350941.95749
   -365678.88208   -284944.94307  21996144.30208  21996146.39107         0.00001
 -10472856.57348  -8160656.23446         0.00041  22472624.87946  22472623.94148
  -2921832.12848  -2276741.92446         0.00041  22418236.62846  22418237.39848
 94 02 25 01 05 00.0000000  0  5 02 07 13 26 27
  -5049764.16549  -3934872.75748         0.00041  21134538.03448  21134537.77349
 -10323037.65749  -8043915.98348         0.00041  20353114.00648  20353113.70949
   -456062.55408   -355373.72907  21978944.71908  21978946.69107         0.00001
 -10450492.47648  -8143229.68646         0.00041  22476880.18746  22476879.97548
  -2827610.36748  -2203322.37645         0.00041  22436167.57045  22436166.41448
 94 02 25 01 05 30.0000000  0  5 02 07 13 26 27
  -5028528.67749  -3918325.62148         0.00041  21138579.47048  21138578.16249
 -10311205.28949  -8034695.94048         0.00041  20355365.71848  20355365.14649
   -546068.63708   -425508.27106  21961817.08908  21961818.74806         0.00001
 -10427671.78048  -8125447.32246         0.00041  22481223.23746  22481221.93948
  -2733086.01448  -2129667.06945         0.00041  22454155.21945  22454152.22048
 94 02 25 01 06 00.0000000  0  6 02 07 09 13 26 27
  -5007127.87349  -3901649.66148         0.00041  21142651.85548  21142650.49249
 -10298913.23449  -8025117.69948         0.00041  20357704.74248  20357704.25849
        -0.42958        -0.21754         0.00051  24147274.46654  24147271.74758
   -635666.49608   -495324.71606  21944767.23708  21944768.37406         0.00001
 -10404381.76348  -8107299.27246         0.00041  22485655.94846  22485654.25548
  -2638246.68048  -2055766.30545         0.00041  22472202.79545  22472197.96948
 94 02 25 01 06 30.0000000  0  6 02 07 09 13 26 27
  -4985555.05549  -3884839.66148         0.00041  21146757.14248  21146756.44249
 -10286131.13649  -8015157.61148         0.00041  20360137.07548  20360136.43349
    -98288.48348    -76588.23745         0.00041  24128567.31845  24128568.50548
   -724833.72608   -564805.67806  21927799.33108  21927799.23406         0.00001
 -10380597.33048  -8088765.95046         0.00041  22490182.99146  22490180.89848
  -2543086.98948  -1981615.91645         0.00041  22490310.12645  22490307.97048
 94 02 25 01 07 00.0000000  0  6 02 07 09 13 26 27
  -4963794.57649  -3867883.43648         0.00041  21150897.58548  21150897.42049
 -10272855.87249  -8004813.23648         0.00041  20362663.07148  20362662.49549
   -196469.54148   -153092.88645         0.00041  24109887.12345  24109885.84248
   -813557.20108   -633940.88506  21910915.89208  21910917.19606         0.00001
 -10356299.08748  -8069832.24046         0.00041  22494805.08046  22494804.58748
  -2447611.33648  -1907219.33446         0.00041  22508478.17046  22508477.42848
 94 02 25 01 07 30.0000000  0  6 02 07 09 13 26 27
  -4941890.89549  -3850815.62048         0.00041  21155066.05648  21155065.35549
 -10259150.74749  -7994133.90548         0.00041  20365271.25748  20365270.82149
   -294618.01848   -229572.12045         0.00041  24091208.92045  24091208.91248
   -901886.71708   -702769.06406  21894107.33708  21894109.48506         0.00001
 -10331552.60148  -8050549.25546         0.00041  22499514.89946  22499514.60548
  -2351900.63948  -1832639.58145         0.00041  22526692.54345  22526691.51748
 94 02 25 01 08 00.0000000  0  6 02 07 09 13 26 27
  -4919810.99949  -3833610.48748         0.00041  21159267.76848  21159267.06849
 -10245007.51849  -7983113.19848         0.00041  20367962.76748  20367962.43149
   -392703.70348   -306002.44345         0.00041  24072546.37445  24072543.70748
   -989795.64308   -771269.45606  21877378.75708  21877381.10606         0.00001
 -10306324.00348  -8030890.59846         0.00041  22504315.72046  22504315.19548
  -2255945.43548  -1757869.32445         0.00041  22544951.14645  22544951.18948
 94 02 25 01 08 30.0000000  0  6 02 07 09 13 26 27
  -4897526.68549  -3816246.07248         0.00041  21163507.90848  21163508.06949
 -10230422.66949  -7971748.37248         0.00041  20370738.34948  20370738.02349
   -490703.63848   -382365.94445         0.00041  24053897.12645  24053894.55948
  -1077263.23008   -839425.97306  21860734.31508  21860736.41506         0.00001
 -10280584.65048  -8010833.93846         0.00041  22509213.36146  22509213.54748
  -2159715.01748  -1682884.61445         0.00041  22563260.82645  22563263.52348
 94 02 25 01 09 00.0000000  0  6 02 07 09 13 26 27
  -4875023.72749  -3798711.29448         0.00041  21167790.04448  21167790.38849
 -10215389.04249  -7960033.84448         0.00041  20373599.00448  20373598.69949
   -588606.97848   -458654.13445         0.00041  24035264.92845  24035263.65348
  -1164279.09508   -907230.50706  21844175.80008  21844177.84806         0.00001
 -10254334.20048  -7990379.04946         0.00041  22514207.94746  22514208.89648
  -2063190.27348  -1607670.56545         0.00041  22581629.72745  22581631.21248
 94 02 25 01 09 30.0000000  0  6 02 07 09 13 26 27
  -4852339.43349  -3781035.21748         0.00041  21172106.51548  21172106.89049
 -10199924.63149  -7947983.64548         0.00041  20376541.64948  20376541.55149
   -686417.94248   -534870.38845         0.00041  24016652.13945  24016649.77548
  -1250858.89208   -974695.20406  21827700.18108  21827700.44406         0.00001
 -10227596.90848  -7969544.77146         0.00041  22519296.56946  22519296.84448
  -1966374.87048  -1532230.06245         0.00041  22600052.43545  22600054.89148
 94 02 25 01 10 00.0000000  0  5 02 07 09 26 27
  -4829483.65149  -3763225.51648         0.00041  21176456.05648  21176455.69849
 -10184029.93749  -7935598.16448         0.00041  20379566.05748  20379566.22449
   -784137.63148   -611015.48945         0.00041  23998056.02245  23998054.37248
 -10200385.76848  -7948341.25146         0.00041  22524474.40646  22524474.96348
  -1869240.14148  -1456540.69145         0.00041  22618539.63545  22618539.37248
 94 02 25 01 10 30.0000000  0  5 02 07 09 26 27
  -4806486.03449  -3745305.28948         0.00041  21180832.25548  21180831.95449
 -10167703.97349  -7922876.63848         0.00041  20382672.74248  20382672.91049
   -881794.17048   -687111.37345         0.00041  23979473.76445  23979471.87648
 -10172721.49248  -7926784.67746         0.00041  22529737.09346  22529738.82648
  -1771781.24848  -1380598.73645         0.00041  22637083.43645  22637085.12348
 94 02 25 01 11 00.0000000  0  5 02 07 09 26 27
  -4783344.76449  -3727273.12848         0.00041  21185236.12848  21185235.44949
 -10150938.92749  -7909812.96748         0.00041  20385863.05648  20385863.10149
   -979384.29948   -763155.50846         0.00041  23960902.25546  23960900.72648
 -10144594.46648  -7904867.52245         0.00041  22535091.65045  22535090.58048
  -1674013.03748  -1304415.77745         0.00041  22655688.66545  22655689.85648
 94 02 25 01 11 30.0000000  0  5 02 07 09 26 27
  -4760043.96949  -3709116.65548         0.00041  21189670.40048  21189669.50149
 -10133720.18249  -7896395.75648         0.00041  20389139.79948  20389139.48249
  -1076889.41048   -839133.43446         0.00041  23942348.97046  23942346.23448
 -10115982.78048  -7882572.71946         0.00041  22540535.81346  22540536.55848
  -1575931.21648  -1227988.43645         0.00041  22674353.61945  22674354.23748
 94 02 25 01 12 00.0000000  0  5 02 07 09 26 27
  -4736582.70949  -3690835.14648         0.00041  21194134.69248  21194133.55849
 -10116065.88549  -7882639.14348         0.00041  20392499.38748  20392498.90549
  -1174334.68048   -915064.68446         0.00041  23923802.60746  23923802.37648
 -10086907.98748  -7859917.02846         0.00041  22546069.13346  22546070.08048
  -1477572.42748  -1151345.26445         0.00041  22693069.67445  22693071.17248
 94 02 25 01 12 30.0000000  0  5 02 07 09 26 27
  -4712958.97549  -3672427.03248         0.00041  21198629.78548  21198628.93549
 -10097990.28549  -7868554.24248         0.00041  20395939.09048  20395938.52549
  -1271709.39448   -990940.97446         0.00041  23905272.99346  23905272.20148
 -10057369.82048  -7836900.27946         0.00041  22551689.47146  22551690.18348
  -1378966.63848  -1074509.60444         0.00041  22711833.09444  22711833.89548
 94 02 25 01 13 00.0000000  0  5 02 07 09 26 27
  -4689144.97349  -3653870.66248         0.00041  21203161.56748  21203160.55849
 -10079490.51849  -7854138.82448         0.00041  20399459.54648  20399458.92649
  -1368987.31948  -1066741.85246         0.00041  23886762.54846  23886760.93448
 -10027368.18048  -7813522.37846         0.00041  22557398.47146  22557399.81348
  -1280113.62648   -997481.31345         0.00041  22730644.76945  22730645.42248
 94 02 25 01 13 30.0000000  0  6 02 07 09 13 26 27
  -4665127.14149  -3635155.46748         0.00041  21207731.79848  21207731.14849
 -10060554.33149  -7839383.34548         0.00041  20403062.87248  20403062.45549
  -1466158.47248  -1142459.55446         0.00041  23868272.79946  23868268.95048
        -0.31618        -0.56016  21698883.96718  21698879.44216         0.00011
  -9996904.38548  -7789784.33046         0.00041  22563196.85446  22563195.89848
  -1180985.24548   -920238.43545         0.00041  22749507.97945  22749509.23448
 94 02 25 01 14 00.0000000  0  6 02 07 09 13 26 27
  -4640922.18849  -3616294.45548         0.00041  21212338.20248  21212337.33249
 -10041197.47049  -7824300.07148         0.00041  20406746.72248  20406746.16049
  -1563226.39448  -1218096.81646         0.00041  23849799.52546  23849798.29048
    -82631.50907    -64388.47706  21683159.65207  21683157.96006         0.00001
  -9965982.03948  -7765688.94646         0.00041  22569081.86046  22569080.36348
  -1081585.22948   -842783.92645         0.00041  22768421.84145  22768424.15148
 94 02 25 01 14 30.0000000  0  6 02 07 09 13 26 27
  -4616550.26249  -3597303.33848         0.00041  21216976.32248  21216975.30449
 -10021416.76449  -7808886.52448         0.00041  20410511.24048  20410510.30949
  -1660190.59148  -1293653.26046         0.00041  23831347.49246  23831346.54548
   -164821.37807   -128432.49806  21667519.19607  21667519.34406         0.00001
  -9934601.31248  -7741236.40946         0.00041  22575051.30546  22575051.24748
   -981928.00548   -765128.98245         0.00041  22787386.77745  22787387.36848
 94 02 25 01 15 00.0000000  0  6 02 07 09 13 26 27
  -4592011.19149  -3578181.98348         0.00041  21221645.60648  21221644.98649
 -10001198.70249  -7793132.17948         0.00041  20414358.53648  20414357.75449
  -1757063.05648  -1369138.21146         0.00041  23812914.08446  23812912.84448
   -246565.88508   -192129.47206  21651963.72608  21651964.47606         0.00001
  -9902756.62347  -7716422.35545         0.00041  22581112.58245  22581110.82647
   -882026.59548   -687283.72945         0.00041  22806399.57645  22806397.82148
 94 02 25 01 15 30.0000000  0  6 02 07 09 13 26 27
  -4567301.37949  -3558927.59448         0.00041  21226347.12548  21226347.30849
  -9980523.98349  -7777022.00148         0.00041  20418292.56448  20418291.98049
  -1853829.08548  -1444540.21846         0.00041  23794500.21546  23794498.95948
   -327844.89708   -255463.72007  21636497.11708  21636497.82907         0.00001
  -9870422.31147  -7691226.76345         0.00041  22587265.52745  22587263.46647
   -781870.04648   -609239.68945         0.00041  22825457.51845  22825456.84248
 94 02 25 01 16 00.0000000  0  5 02 07 09 13 27
  -4542439.50849  -3539554.71548         0.00041  21231078.27348  21231078.11849
  -9959419.34349  -7760576.82048         0.00041  20422308.31048  20422308.01349
  -1950502.94448  -1519870.41446         0.00041  23776103.54846  23776102.48448
   -408675.96508   -318448.92907  21621115.44208  21621115.98807         0.00001
   -681482.70348   -531015.81545         0.00041  22844559.92645  22844560.88848
 94 02 25 01 16 30.0000000  0  5 02 07 09 13 27
  -4517401.71149  -3520044.74448         0.00041  21235843.41148  21235842.54249
  -9937880.25349  -7743793.10748         0.00041  20426406.70048  20426406.41649
  -2047080.10848  -1595125.26846         0.00041  23757724.41346  23757724.71148
   -489049.38808   -381077.53007  21605820.80208  21605821.68107         0.00001
   -580864.56148   -452612.06745         0.00041  22863709.72945  22863708.10048
 94 02 25 01 17 00.0000000  0  5 02 07 09 13 27
  -4492125.16249  -3500348.72748         0.00041  21240653.51548  21240652.51949
  -9915870.69449  -7726642.79448         0.00041  20430594.89948  20430594.59649
  -2143506.85748  -1670262.90946         0.00041  23739375.27346  23739375.38648
   -568905.14808   -443302.75707  21590624.70608  21590625.96507         0.00001
   -479940.28048   -373969.79845         0.00041  22882913.66845  22882913.58648
 94 02 25 01 17 30.0000000  0  5 02 07 09 13 27
  -4466641.29049  -3480491.16048         0.00041  21245502.71648  21245502.39749
  -9893441.43149  -7709165.43848         0.00041  20434863.07048  20434862.90849
  -2239801.67548  -1745297.74146         0.00041  23721051.29446  23721050.86748
   -648266.07608   -505142.39308  21575522.63708  21575524.17008         0.00001
   -378710.68848   -295089.63245         0.00041  22902179.74745  22902177.21948
 94 02 25 01 18 00.0000000  0  6 02 07 09 13 26 27
  -4440930.05149  -3460456.42648         0.00041  21250395.17148  21250395.24049
  -9870594.52549  -7691362.65048         0.00041  20439210.68848  20439210.84949
  -2335948.16648  -1820217.00646         0.00041  23702754.92246  23702754.80948
   -727120.47608   -566587.32808  21560516.99608  21560518.61608         0.00001
        -0.41557         0.10055         0.00051  22619407.02355  22619406.24557
   -277164.27048   -215962.57145         0.00041  22921502.08345  22921500.29348
 94 02 25 01 18 30.0000000  0  6 02 07 09 13 26 27
  -4415022.47649  -3440268.70048         0.00041  21255325.31848  21255324.98649
  -9847350.13049  -7673250.13148         0.00041  20443633.95648  20443633.75349
  -2431967.71848  -1895037.35446         0.00041  23684481.62146  23684482.17548
   -805496.72108   -627659.68908  21545602.52408  21545604.08108         0.00001
     35189.69648     27420.95845         0.00041  22626101.93645  22626103.12248
   -175334.91448   -136615.00545         0.00041  22940880.95745  22940877.47448
 94 02 25 01 19 00.0000000  0  7 02 04 07 09 13 26 27
  -4388939.82549  -3419944.54848         0.00041  21260289.06848  21260288.56049
        -0.42558         0.33554         0.00051  23432698.62854  23432698.35758
  -9823719.32349  -7654836.50448         0.00041  20448130.68548  20448130.19549
  -2527858.67248  -1969757.49346         0.00041  23666234.43846  23666234.69648
   -883403.81808   -688366.48108  21530777.44908  21530778.75808         0.00001
     70811.30848     55178.08445         0.00041  22632883.66145  22632880.51648
    -73222.55648    -57046.99345         0.00041  22960311.08645  22960308.40148
 94 02 25 01 19 30.0000000  0  7 02 04 07 09 13 26 27
  -4362721.36949  -3399514.57248         0.00041  21265278.14348  21265277.88749
    -99768.47947    -77740.82544         0.00041  23413709.63344  23413713.23647
  -9799726.97749  -7636141.15348         0.00041  20452696.82448  20452696.00749
  -2623648.34148  -2044398.70446         0.00041  23648005.82146  23648006.64548
   -960870.32608   -748729.95208  21516036.03408  21516037.30208         0.00001
    106840.63248     83252.91046         0.00041  22639739.95046  22639737.12648
     29122.85648     22702.65645         0.00041  22979786.01545  22979783.58048
 94 02 25 01 20 00.0000000  0  7 02 04 07 09 13 26 27
  -4336385.15549  -3378992.83748         0.00041  21270289.48348  21270289.15049
   -199492.30147   -155447.60744         0.00041  23394727.79544  23394735.03747
  -9775368.50349  -7617160.50548         0.00041  20457332.37948  20457331.61249
  -2719352.70748  -2118973.43746         0.00041  23629792.77146  23629794.03248
  -1037914.58208   -808764.39208  21501374.76708  21501376.22008         0.00001
    143268.87048    111638.57746         0.00041  22646671.24446  22646669.40148
    131663.25748    102604.24944         0.00041  22999295.89544  22999297.89348
 94 02 25 01 20 30.0000000  0  6 02 07 09 13 26 27
  -4309893.41749  -3358349.91548         0.00041  21275330.56048  21275330.53349
  -9750593.80149  -7597855.52548         0.00041  20462046.86148  20462046.21249
  -2814927.44948  -2193447.17746         0.00041  23611606.73646  23611607.18648
  -1114491.13408   -868434.37008  21486802.45008  21486803.99508         0.00001
    180129.09848    140360.83146         0.00041  22653685.88946  22653684.34548
    234441.58048    182691.27144         0.00041  23018858.28744  23018857.27248
 94 02 25 01 21 00.0000000  0  6 02 07 09 13 26 27
  -4283257.92149  -3337594.97148         0.00041  21280398.80548  21280399.19249
  -9725419.18549  -7578238.93048         0.00041  20466837.21448  20466836.81549
  -2910388.33648  -2267832.19646         0.00041  23593442.17346  23593441.83948
  -1190610.67108   -927748.23008  21472317.27108  21472318.79908         0.00001
    217412.05048    169412.49446         0.00041  22660780.05146  22660779.60448
    337442.44848    262951.66944         0.00041  23038462.06044  23038458.35348
 94 02 25 01 21 30.0000000  0  6 02 07 09 13 26 27
  -4256434.09949  -3316693.27848         0.00041  21285503.27948  21285503.72049
  -9699800.60949  -7558276.39448         0.00041  20471712.23648  20471711.95549
  -3005699.99548  -2342100.94446         0.00041  23575304.68246  23575304.50048
  -1266229.32108   -986671.78908  21457927.16908  21457928.97708         0.00001
    255163.79648    198829.44046         0.00041  22667965.84146  22667963.62548
    440698.91148    343411.19044         0.00041  23058107.01444  23058107.02148
 94 02 25 01 22 00.0000000  0  6 02 07 09 13 26 27
  -4229440.63949  -3295659.39748         0.00041  21290640.13748  21290640.53849
  -9673764.31549  -7537988.36748         0.00041  20476666.92648  20476666.35149
  -3100875.13948  -2416263.29946         0.00041  23557193.44246  23557192.78448
  -1341369.60608  -1045222.60808  21443628.21508  21443630.12908         0.00001
    293350.63648    228585.43646         0.00041  22675230.15046  22675229.92648
    544201.77448    424062.78644         0.00041  23077806.19544  23077803.20148
 94 02 25 01 22 30.0000000  0  6 02 07 09 13 26 27
  -4202288.58849  -3274501.94248         0.00041  21295807.02848  21295807.26249
  -9647332.24749  -7517391.94348         0.00041  20481696.68548  20481695.90449
  -3195925.92848  -2490328.75546         0.00041  23539105.46346  23539104.66048
  -1416037.84508  -1103405.61808  21429419.31508  21429421.21908         0.00001
    331958.05348    258669.11746         0.00041  22682577.54646  22682576.77248
    647949.76148    504905.35044         0.00041  23097541.23344  23097545.40848
 94 02 25 01 23 00.0000000  0  6 02 07 09 13 26 27
  -4174980.52349  -3253222.92248         0.00041  21301003.61148  21301003.24949
  -9620515.63049  -7496495.86748         0.00041  20486799.63348  20486798.74149
  -3290868.32548  -2564309.76746         0.00041  23521039.57346  23521038.20948
  -1490238.32408  -1161224.13308  21415299.43908  21415301.27708         0.00001
    370979.73148    289075.59045         0.00041  22690001.19345  22690001.88848
    751934.99348    585932.64344         0.00041  23117332.10944  23117332.75148
 94 02 25 01 23 30.0000000  0  6 02 07 09 13 26 27
  -4147515.71849  -3231821.75748         0.00041  21306230.51648  21306229.57349
  -9593318.22749  -7475303.07248         0.00041  20491974.67948  20491974.20649
  -3385705.53048  -2638208.80146         0.00041  23502992.04546  23502991.17848
  -1563971.35308  -1218678.39608  21401268.77408  21401270.29808         0.00001
    410404.45148    319796.14645         0.00041  22697505.44145  22697503.53048
    856156.90848    667144.75444         0.00041  23137164.64244  23137165.25948
 94 02 25 01 24 00.0000000  0  6 02 07 09 13 26 27
  -4119840.57949  -3210256.73448         0.00041  21311497.55148  21311495.96149
  -9565691.14149  -7453775.44748         0.00041  20497231.90448  20497231.59349
  -3480395.88048  -2711993.42046         0.00041  23484973.12746  23484971.56548
  -1637194.18708  -1275735.10508  21387334.92908  21387336.36608         0.00001
    450270.46348    350860.52245         0.00041  22705092.51245  22705089.05748
    960643.59347    748562.81544         0.00041  23157045.76444  23157048.26347
 94 02 25 01 24 30.0000000  0  6 02 07 09 13 26 27
  -4091972.09949  -3188540.98448         0.00041  21316800.29548  21316799.34749
  -9537661.08449  -7431933.86548         0.00041  20502565.36148  20502565.42249
  -3574981.07948  -2785696.11846         0.00041  23466974.43646  23466972.29048
  -1709939.84808  -1332419.98808  21373492.01808  21373493.25708         0.00001
    490550.09748    382247.18745         0.00041  22712755.48645  22712754.29748
   1065343.12547    830146.87244         0.00041  23176965.86144  23176972.10347
 94 02 25 01 25 00.0000000  0  6 02 07 09 13 26 27
  -4063888.24049  -3166657.45248         0.00041  21322143.56948  21322143.32349
  -9509223.32149  -7409774.57348         0.00041  20507976.58748  20507976.83749
  -3669451.67148  -2859309.51946         0.00041  23448998.01046  23448995.26348
  -1782203.37208  -1388729.18608  21359740.90508  21359741.80908         0.00001
    531256.88548    413966.74645         0.00041  22720503.73945  22720502.10848
   1170251.78247    911893.71744         0.00041  23196931.12244  23196934.73747
 94 02 25 01 25 30.0000000  0  6 02 07 09 13 26 27
  -4035571.90349  -3144592.76848         0.00041  21327532.19248  21327531.98449
  -9480362.05249  -7387285.27748         0.00041  20513468.59148  20513469.10949
  -3763772.08448  -2932805.89146         0.00041  23431048.68346  23431046.93248
  -1853966.24208  -1444648.27408  21346085.04708  21346085.52408         0.00001
    572418.04748    446040.36945         0.00041  22728334.83345  22728335.39048
   1275371.47847    993805.10544         0.00041  23216934.52544  23216938.19047
 94 02 25 01 26 00.0000000  0  6 02 07 09 13 26 27
  -4007026.61449  -3122349.67648         0.00041  21332964.52148  21332963.97649
  -9451089.22749  -7364475.28348         0.00041  20519039.48148  20519040.08049
  -3857934.87948  -3006179.44646         0.00041  23413129.64446  23413128.79948
  -1925226.26808  -1500175.54208  21332524.57108  21332525.10408         0.00001
    614022.82748    478459.71844         0.00041  22736252.38944  22736252.45548
   1380699.05347   1075878.32244         0.00041  23236981.96344  23236981.13747
 94 02 25 01 26 30.0000000  0  6 02 07 09 13 26 27
  -3978266.81049  -3099939.42748         0.00041  21338437.54048  21338436.39649
  -9421416.78449  -7341353.89948         0.00041  20524686.05748  20524686.82749
  -3951927.68048  -3079420.54246         0.00041  23395242.64746  23395242.57848
  -1995972.68408  -1555302.58408  21319061.79408  21319062.53008         0.00001
    656072.46348    511225.59144         0.00041  22744255.73444  22744253.58348
   1486258.71847   1158132.80844         0.00041  23257072.33444  23257070.32047
 94 02 25 01 27 00.0000000  0  5 02 07 09 13 26
  -3949315.63249  -3077380.05848         0.00041  21343946.24648  21343945.37049
  -9391352.68849  -7317927.32848         0.00041  20530407.24448  20530407.86149
  -4045739.05448  -3152520.25446         0.00041  23377390.91346  23377391.12748
  -2066195.71008  -1610021.79708  21305698.77208  21305699.54908         0.00001
    698561.17248    544333.63944         0.00041  22752335.91444  22752339.17248
 94 02 25 01 27 30.0000000  0  5 02 07 09 13 26
  -3920165.36249  -3054665.56247         0.00041  21349492.95147  21349492.89149
  -9360872.25949  -7294176.33548         0.00041  20536207.44748  20536207.94649
  -4139337.08748  -3225453.73146         0.00041  23359579.51446  23359579.82348
  -2135866.81408  -1664310.94208  21292440.79608  21292441.70908         0.00001
    741490.38448    577785.00844         0.00041  22760501.69444  22760507.42348
 94 02 25 01 28 00.0000000  0  5 02 07 09 13 26
  -3890739.22049  -3031736.09347         0.00041  21355092.52947  21355092.36449
  -9329912.55549  -7270051.87548         0.00041  20542098.71348  20542098.92149
  -4232658.59548  -3298171.73046         0.00041  23341820.32346  23341821.13048
  -2204915.24108  -1718114.88108  21279301.37508  21279302.23008         0.00001
    784914.70847    611622.15744         0.00041  22768769.50544  22768770.52747
 94 02 25 01 28 30.0000000  0  5 02 07 09 13 26
  -3861125.57749  -3008660.51548         0.00041  21360728.68548  21360728.15049
  -9298553.94349  -7245616.58048         0.00041  20548066.27848  20548066.18349
  -4325792.73748  -3370743.73046         0.00041  23324096.33446  23324097.67248
  -2273427.41008  -1771500.95808  21266263.93708  21266264.77108         0.00001
    828767.46547    645793.02944         0.00041  22777119.95244  22777115.25147
 94 02 25 01 29 00.0000000  0  5 02 07 09 13 26
  -3831349.21149  -2985458.13748         0.00041  21366394.99348  21366394.73049
  -9266840.99549  -7220905.18148         0.00041  20554100.99048  20554100.86249
  -4418777.36048  -3443199.21746         0.00041  23306402.67346  23306402.86548
  -2341450.48308  -1824505.92108  21253319.47308  21253320.31708         0.00001
    873002.50847    680261.83144         0.00041  22785536.18044  22785532.34947
 94 02 25 01 29 30.0000000  0  5 02 07 09 13 26
  -3801382.00849  -2962107.06048         0.00041  21372097.09848  21372097.36349
  -9234775.88349  -7195919.36848         0.00041  20560203.11648  20560202.63549
  -4511610.47848  -3515536.67746         0.00041  23288735.54646  23288736.64848
  -2408987.62808  -1877132.23908  21240467.47208  21240468.33708         0.00001
    917625.62247    715033.11144         0.00041  22794024.97144  22794025.97247
 94 02 25 01 30 00.0000000  0  6 02 07 09 12 13 26
  -3771211.72749  -2938597.75048         0.00041  21377838.45848  21377839.06649
  -9202356.64249  -7170657.61548         0.00041  20566372.48448  20566371.78649
  -4604280.12848  -3587746.73846         0.00041  23271101.46846  23271101.55548
        -0.58116        -0.38716  24201880.44916  24201877.97216         0.00011
  -2476033.46508  -1929375.71308  21227709.09008  21227710.04608         0.00001
    962666.18647    750129.68044         0.00041  22802592.77444  22802598.52047
 94 02 25 01 30 30.0000000  0  5 02 07 09 13 26
  -3740882.14449  -2914964.31047         0.00041  21383609.73947  21383610.33749
  -9169606.51249  -7145138.02348         0.00041  20572604.85148  20572604.02649
  -4696812.11648  -3659849.53646         0.00041  23253494.62546  23253493.41648
  -2542619.06808  -1981260.56008  21215038.27208  21215039.31208         0.00001
   1008096.71347    785530.12344         0.00041  22811245.32544  22811244.21647
 94 02 25 01 31 00.0000000  0  5 02 07 09 13 26
  -3710452.65549  -2891253.01647         0.00041  21389400.56647  21389400.03449
  -9136592.21449  -7119412.58648         0.00041  20578887.38548  20578886.29749
  -4789256.81348  -3731884.33546         0.00041  23235903.25246  23235902.21448
  -2608803.03508  -2032832.44408  21202443.89308  21202445.06208         0.00001
   1053838.08547    821172.74144         0.00041  22819948.30344  22819945.86347
 94 02 25 01 31 30.0000000  0  6 02 07 09 12 13 26
  -3679924.10249  -2867464.52247         0.00041  21395209.75247  21395209.01249
  -9103289.92949  -7093462.73748         0.00041  20585224.63748  20585223.48949
  -4881594.79748  -3803835.97446         0.00041  23218332.31346  23218331.42348
         0.38717        -0.17816  24150017.06017  24150020.57416         0.00011
  -2674557.61408  -2084069.74308  21189931.18408  21189932.41908         0.00001
   1099904.48147    857068.64644         0.00041  22828713.38644  22828711.99647
 94 02 25 01 32 00.0000000  0  6 02 07 09 12 13 26
  -3649285.88749  -2843590.57847         0.00041  21401039.61247  21401039.58549
  -9069657.33749  -7067255.50648         0.00041  20591624.54248  20591623.60349
  -4973789.85948  -3875676.24046         0.00041  23200788.83546  23200787.68648
    -91005.95107    -70914.11506  24132698.90207  24132703.85006         0.00001
  -2739843.70508  -2134941.99108  21177507.64908  21177508.78408         0.00001
   1146315.99248    893233.40844         0.00041  22837545.62444  22837545.12548
 94 02 25 01 32 30.0000000  0  6 02 07 09 12 13 26
  -3618529.93049  -2819624.89147         0.00041  21406892.26547  21406892.36049
  -9035693.00349  -7040789.77448         0.00041  20598087.51848  20598086.99949
  -5065845.32848  -3947407.72646         0.00041  23183270.53246  23183270.03648
   -182056.65607   -141862.61307  24115372.39807  24115378.32307         0.00001
  -2804649.97508  -2185440.34808  21165175.41708  21165176.40508         0.00001
   1193048.96248    929648.69944         0.00041  22846434.11944  22846437.01848
 94 02 25 01 33 00.0000000  0  6 02 07 09 12 13 26
  -3587581.55649  -2795509.26347         0.00041  21412781.89847  21412781.38749
  -9001330.16849  -7014013.52548         0.00041  20604625.87748  20604625.73149
  -5157692.53348  -4018976.92046         0.00041  23165792.00746  23165792.06748
   -273080.39807   -212790.11207  24098051.09307  24098056.86207         0.00001
  -2868905.43308  -2235509.50008  21152948.04108  21152948.91508         0.00001
   1240166.80448    966363.87344         0.00041  22855409.10344  22855402.50148
 94 02 25 01 33 30.0000000  0  6 02 07 09 12 13 26
  -3556402.14849  -2771213.60447         0.00041  21418715.22747  21418714.29249
  -8966523.75049  -6986891.62748         0.00041  20611248.95448  20611248.82549
  -5249304.78148  -4090363.03946         0.00041  23148359.06446  23148358.79748
   -364043.59208   -283670.44407  24080741.13808  24080746.11307         0.00001
  -2932576.44108  -2285123.23908  21140831.77108  21140832.68708         0.00001
   1287701.11248   1003403.57144         0.00041  22864449.50844  22864449.56048
 94 02 25 01 34 00.0000000  0  6 02 07 09 12 13 26
  -3524974.70249  -2746724.66547         0.00041  21424695.72847  21424695.18549
  -8931284.44849  -6959432.42048         0.00041  20617954.54848  20617954.91449
  -5340685.36548  -4161568.63046         0.00041  23130969.07346  23130969.39648
   -454954.40808   -354509.97807  24063441.47308  24063445.72407         0.00001
  -2995671.53908  -2334288.21308  21128825.03208  21128826.02908         0.00001
   1335650.79548   1040766.97344         0.00041  22873573.43544  22873573.55848
 94 02 25 01 34 30.0000000  0  6 02 07 09 12 13 26
  -3493294.39949  -2722038.69247         0.00041  21430724.47947  21430723.56549
  -8895629.97849  -6931649.70948         0.00041  20624739.45248  20624739.98349
  -5431848.29848  -4232604.63746         0.00041  23113620.35046  23113621.04148
   -545821.09208   -425315.12607  24046149.95908  24046153.64507         0.00001
  -3058199.10608  -2383010.96208  21116926.38708  21116927.30608         0.00001
   1384019.96648   1078457.20844         0.00041  22882777.46544  22882777.37848
 94 02 25 01 35 00.0000000  0  6 02 07 09 12 13 26
  -3461379.15649  -2697169.65847         0.00041  21436796.79747  21436796.40349
  -8859567.28449  -6903548.90748         0.00041  20631602.13548  20631602.24949
  -5522799.53248  -4303475.66046         0.00041  23096311.83246  23096313.29148
   -636656.84508   -496096.18207  24028864.48508  24028867.58807         0.00001
  -3120172.72608  -2431302.06408  21105133.13908  21105134.14408         0.00001
   1432815.76948   1116479.82944         0.00041  22892068.58844  22892063.48748
 94 02 25 01 35 30.0000000  0  6 02 07 09 12 13 26
  -3429244.84949  -2672129.92547         0.00041  21442912.04947  21442911.81049
  -8823131.88949  -6875157.69048         0.00041  20638535.59148  20638535.24649
  -5613556.15548  -4374195.05546         0.00041  23079041.45846  23079042.96248
   -727477.24508   -566865.25808  24011581.84708  24011584.94508         0.00001
  -3181608.22808  -2479173.85208  21093442.27708  21093443.31308         0.00001
   1482014.49747   1154816.46844         0.00041  22901425.19944  22901424.35647
 94 02 25 01 36 00.0000000  0  6 02 07 09 12 13 26
  -3396906.44449  -2646931.14947         0.00041  21449066.45647  21449065.96049
  -8786348.94049  -6846495.64848         0.00041  20645535.30648  20645535.30249
  -5704135.27148  -4444776.14146         0.00041  23061805.06546  23061806.70248
   -818295.65208   -637632.77608  23994299.78308  23994302.49208         0.00001
  -3242519.44608  -2526637.11208  21081851.24108  21081852.26508         0.00001
   1531600.35947   1193454.90444         0.00041  22910867.19944  22910859.51547
 94 02 25 01 36 30.0000000  0  6 02 07 09 12 13 26
  -3364385.06249  -2621589.79847         0.00041  21455254.91247  21455254.66449
  -8749213.56149  -6817558.98848         0.00041  20652602.37048  20652602.41149
  -5794545.23648  -4515225.40546         0.00041  23044600.73946  23044602.30648
   -909116.65708   -708402.32708  23977017.09508  23977019.85008         0.00001
  -3302911.25108  -2573695.63508  21070359.10408  21070360.06908         0.00001
   1581552.08547   1232378.92944         0.00041  22920363.94144  22920365.29147
 94 02 25 01 37 00.0000000  0  6 02 07 09 12 13 26
  -3331671.10549  -2596098.38747         0.00041  21461479.56147  21461479.51849
  -8711721.36149  -6788344.28148         0.00041  20659737.22448  20659737.06749
  -5884762.10648  -4585524.21346         0.00041  23027433.62246  23027434.92648
   -999928.14508   -779164.46208  23959736.29008  23959738.81708         0.00001
  -3362772.14408  -2620340.45808  21058967.82608  21058968.91108         0.00001
   1631861.28547   1271581.34744         0.00041  22929934.33544  22929937.00047
 94 02 25 01 37 30.0000000  0  6 02 07 09 12 13 26
  -3298775.89349  -2570465.74847         0.00041  21467739.55547  21467739.16249
  -8673896.42249  -6758870.29848         0.00041  20666935.15248  20666934.63349
  -5974802.48348  -4655685.49946         0.00041  23010301.17246  23010301.21248
  -1090749.82808   -849934.55108  23942453.28708  23942455.80408         0.00001
  -3422122.38108  -2666587.36208  21047673.82808  21047674.89708         0.00001
   1682496.33548   1311037.18644         0.00041  22939581.52144  22939576.19048
 94 02 25 01 38 00.0000000  0  6 02 07 09 12 13 26
  -3265678.37549  -2544675.45847         0.00041  21474037.89847  21474036.79549
  -8635702.47749  -6729108.77248         0.00041  20674203.05448  20674202.47949
  -6064631.30648  -4725681.93846         0.00041  22993207.32146  22993207.39048
  -1181556.08008   -920692.62308  23925173.31508  23925175.63008         0.00001
  -3480936.54908  -2712416.54508  21036481.76208  21036482.89208         0.00001
   1733489.31548   1350771.93744         0.00041  22949281.72244  22949280.31748
 94 02 25 01 38 30.0000000  0  6 02 07 09 12 13 26
  -3232383.72849  -2518731.55747         0.00041  21480374.11447  21480373.41949
  -8597155.07749  -6699071.82448         0.00041  20681537.99248  20681537.41249
  -6154234.35948  -4795502.45646         0.00041  22976156.49046  22976155.90548
  -1272347.87108   -991439.42708  23907896.06108  23907898.28708         0.00001
  -3539216.25008  -2757829.26508  21025391.56408  21025392.53908         0.00001
   1784848.23948   1390791.88544         0.00041  22959052.52444  22959052.34348
 94 02 25 01 39 00.0000000  0  6 02 07 09 12 13 26
  -3198894.99049  -2492636.42147         0.00041  21486746.12347  21486745.48549
  -8558280.36349  -6668779.82748         0.00041  20688935.16348  20688934.61449
  -6243607.85848  -4865144.10146         0.00041  22959148.60046  22959148.72248
  -1363130.52608  -1062179.11108  23890620.41808  23890622.76308         0.00001
  -3596967.39908  -2802830.13308  21014401.99708  21014402.81408         0.00001
   1836576.71248   1431099.80044         0.00041  22968896.19544  22968895.89748
 94 02 25 01 39 30.0000000  0  6 02 07 09 12 13 26
  -3165217.78049  -2466394.42647         0.00041  21493154.75147  21493153.42949
  -8519082.50049  -6638236.02648         0.00041  20696394.62448  20696393.76349
  -6332755.70848  -4934609.92446         0.00041  22942184.39746  22942184.26148
  -1453904.38108  -1132911.93308  23873346.68108  23873349.01408         0.00001
  -3654190.75108  -2847419.73608  21003512.81708  21003513.57108         0.00001
   1888681.35248   1471700.76244         0.00041  22978801.76044  22978810.73548
 94 02 25 01 40 00.0000000  0  6 02 07 09 12 13 26
  -3131345.63049  -2440000.52847         0.00041  21499600.88547  21499599.92749
  -8479564.63449  -6607442.86748         0.00041  20703914.53848  20703913.88349
  -6421676.08848  -5003898.49146         0.00041  22925263.59646  22925263.27648
  -1544661.42108  -1203631.65508  23856076.10808  23856078.57308         0.00001
  -3710879.37508  -2891592.67008  20992725.34208  20992726.08908         0.00001
   1941171.50348   1512602.17244         0.00041  22988802.36044  22988799.91548
 94 02 25 01 40 30.0000000  0  6 02 07 09 12 13 26
  -3097272.23849  -2413449.82147         0.00041  21506085.19347  21506084.84149
  -8439731.67549  -6576404.18648         0.00041  20711494.83048  20711494.20249
  -6510377.92548  -5073016.77246         0.00041  22908384.36446  22908383.85648
  -1635404.43308  -1274340.43908  23838808.07908  23838810.76108         0.00001
  -3767036.22008  -2935351.22808  20982038.97608  20982039.85208         0.00001
   1994032.73048   1553792.79044         0.00041  22998860.96244  22998859.15048
 94 02 25 01 41 00.0000000  0  6 02 07 09 12 13 26
  -3063021.32149  -2386760.77847         0.00041  21512603.32847  21512602.43249
  -8399600.29549  -6545132.96648         0.00041  20719131.67748  20719130.55249
  -6598886.85348  -5141984.72746         0.00041  22891540.69846  22891540.73748
  -1726152.87508  -1345053.46708  23821539.37108  23821542.07208         0.00001
  -3822681.66308  -2978711.28408  20971449.90208  20971450.92008         0.00001
   2047228.66148   1595244.31644         0.00041  23008978.92344  23008981.91548
 94 02 25 01 41 30.0000000  0  6 02 07 09 12 13 26
  -3028589.43449  -2359930.71947         0.00041  21519155.37047  21519154.93149
  -8359158.96549  -6513620.22648         0.00041  20726827.34548  20726825.68049
  -6687207.79848  -5210806.20146         0.00041  22874733.08646  22874733.51648
  -1816903.72008  -1415768.37008  23804269.72008  23804272.88308         0.00001
  -3877813.47408  -3021671.11308  20960958.62708  20960959.59908         0.00001
   2100754.97548   1636952.99644         0.00041  23019168.35444  23019166.62548
 94 02 25 01 42 00.0000000  0  6 02 07 09 12 13 26
  -2993971.56349  -2332955.74647         0.00041  21525741.75547  21525742.29849
  -8318403.25049  -6481862.50848         0.00041  20734583.01448  20734581.32449
  -6775339.22448  -5279479.99146         0.00041  22857963.01246  22857962.37548
  -1907657.27808  -1486485.38008  23786999.69008  23787003.06208         0.00001
  -3932432.70408  -3064231.53008  20950564.90408  20950565.88808         0.00001
   2154599.64847   1678910.07544         0.00041  23029413.12544  23029413.04947
 94 02 25 01 42 30.0000000  0  6 02 07 09 12 13 26
  -2959193.75749  -2305856.15447         0.00041  21532360.03247  21532359.90849
  -8277331.47449  -6449858.51948         0.00041  20742398.50448  20742397.45949
  -6863275.25948  -5348001.52046         0.00041  22841229.23446  22841228.57448
  -1998419.15808  -1557208.88408  23769728.02208  23769731.65508         0.00001
  -3986545.91708  -3106397.65008  20940267.49808  20940268.52208         0.00001
   2208738.74547   1721096.22044         0.00041  23039712.88844  23039716.41947
 94 02 25 01 43 00.0000000  0  7 02 04 07 09 12 13 26
  -2924236.47049  -2278616.70047         0.00041  21539012.59047  21539012.28249
        -0.69558        -0.11254         0.00051  22550876.39554  22550877.12258
  -8235924.67349  -6417593.47948         0.00041  20750277.65648  20750277.35749
  -6950984.21648  -5416346.11746         0.00041  22824539.48246  22824538.70248
  -2089158.41208  -1627914.75808  23752460.78308  23752464.63808         0.00001
  -4040122.74808  -3148145.80608  20930072.12808  20930073.18808         0.00001
   2263202.15947   1763535.25844         0.00041  23050082.12444  23050079.86947
 94 02 25 01 43 30.0000000  0  7 02 04 07 09 12 13 26
  -2889080.46549  -2251222.39747         0.00041  21545702.45047  21545701.99849
    -92014.70748    -71699.29345         0.00041  22533369.29145  22533367.32348
  -8194176.52249  -6385062.45448         0.00041  20758221.74448  20758221.99549
  -7038460.62048  -5484509.50246         0.00041  22807893.13946  22807892.64548
  -2179868.51208  -1698597.91108  23735199.18708  23735203.12208         0.00001
  -4093157.74108  -3189471.74608  20919979.91908  20919980.97208         0.00001
   2317993.43447   1806229.46244         0.00041  23060498.80044  23060505.60547
 94 02 25 01 44 00.0000000  0  7 02 04 07 09 12 13 26
  -2853704.76449  -2223656.90747         0.00041  21552433.95347  21552433.80549
   -183769.36148   -143196.31244         0.00041  22515912.35644  22515905.15748
  -8152063.81649  -6352247.35148         0.00041  20766235.36248  20766235.73449
  -7125667.38148  -5552462.78846         0.00041  22791298.95046  22791298.00648
  -2270521.20708  -1769236.32708  23717948.55208  23717952.23808         0.00001
  -4145623.40008  -3230354.04808  20909996.15008  20909997.10008         0.00001
   2373129.68947   1849193.46944         0.00041  23070995.10944  23070996.62247
 94 02 25 01 44 30.0000000  0  7 02 04 07 09 12 13 26
  -2818117.91849  -2195926.89147         0.00041  21559205.83147  21559205.38349
   -275262.06647   -214489.29044         0.00041  22498493.84044  22498494.07247
  -8109615.78149  -6319170.95548         0.00041  20774312.54948  20774313.20149
  -7212613.85448  -5620213.25146         0.00041  22774754.06946  22774752.79348
  -2361125.16708  -1839836.77308  23700707.29308  23700710.55008         0.00001
  -4197529.40708  -3270800.25408  20900118.76908  20900119.69208         0.00001
   2428607.09148   1892423.28544         0.00041  23081561.42744  23081554.51048
 94 02 25 01 45 00.0000000  0  6 02 07 09 12 13 26
  -2782306.40949  -2168021.81147         0.00041  21566020.57247  21566020.21349
  -8066843.38749  -6285841.81048         0.00041  20782452.20648  20782452.64349
  -7299313.58848  -5687771.44846         0.00041  22758255.51946  22758254.52848
  -2451687.17108  -1910404.51608  23683474.07208  23683476.58408         0.00001
  -4248883.46408  -3310816.36608  20890346.39808  20890347.29908         0.00001
   2484425.06748   1935917.64944         0.00041  23092186.55244  23092178.25248
 94 02 25 01 45 30.0000000  0  5 02 07 09 12 13
  -2746315.93749  -2139977.28447         0.00041  21572869.17547  21572869.33449
  -8023771.10549  -6252278.98248         0.00041  20790649.00648  20790649.16049
  -7385799.81348  -5755163.27546         0.00041  22741797.45146  22741796.41848
  -2542250.07708  -1980972.95408  23666240.53108  23666242.36408         0.00001
  -4299729.36708  -3350436.51808  20880670.71408  20880671.58708         0.00001
 94 02 25 01 46 00.0000000  0  5 02 07 09 12 13
  -2710196.48449  -2111832.25147         0.00041  21579742.35047  21579742.82649
  -7980433.43849  -6218509.36048         0.00041  20798896.00348  20798896.16449
  -7472099.56748  -5822409.80746         0.00041  22725375.64146  22725373.87048
  -2632846.42408  -2051567.44108  23649000.62808  23649002.02008         0.00001
  -4350100.78508  -3389686.94108  20871085.29508  20871086.15908         0.00001
 94 02 25 01 46 30.0000000  0  5 02 07 09 12 13
  -2673911.96549  -2083558.59347         0.00041  21586647.13247  21586646.86849
  -7936792.78949  -6184503.64848         0.00041  20807200.35548  20807200.84149
  -7558190.42548  -5889493.56246         0.00041  22708992.58346  22708990.96448
  -2723444.07908  -2122162.93307  23631760.43008  23631761.40707         0.00001
  -4399966.72609  -3428543.48908  20861596.14209  20861596.84208         0.00001
 94 02 25 01 47 00.0000000  0  5 02 07 09 12 13
  -2637407.08649  -2055113.22247         0.00041  21593593.74347  21593593.32949
  -7892760.78349  -6150192.98048         0.00041  20815579.35048  20815579.42349
  -7644006.93748  -5956363.52646         0.00041  22692662.60646  22692660.09048
  -2813976.26908  -2192707.41808  23614532.54508  23614533.68608         0.00001
  -4449261.48909  -3466954.96708  20852215.62009  20852216.14608         0.00001
 94 02 25 01 47 30.0000000  0  5 02 07 09 12 13
  -2600673.29449  -2026489.47247         0.00041  21600583.71847  21600583.52949
  -7848335.96549  -6115576.22748         0.00041  20824033.01648  20824032.81049
  -7729529.72748  -6023004.62146         0.00041  22676387.73146  22676385.92848
  -2904423.89108  -2263186.00708  23597320.65408  23597322.31108         0.00001
  -4497966.96209  -3504907.26408  20842947.28909  20842947.60608         0.00001
 94 02 25 01 48 00.0000000  0  5 02 07 09 12 13
  -2563675.94549  -1997660.35247         0.00041  21607624.51247  21607624.30749
  -7803520.70449  -6080655.22848         0.00041  20832561.17848  20832560.61449
  -7814745.08848  -6089406.15146         0.00041  22660171.18346  22660170.83548
  -2994755.36408  -2333574.10508  23580130.80108  23580133.26208         0.00001
  -4546053.01209  -3542376.90108  20833796.78609  20833797.10608         0.00001
 94 02 25 01 48 30.0000000  0  5 02 07 09 12 13
  -2526398.11949  -1968612.67947         0.00041  21614718.08847  21614718.24149
  -7758305.71049  -6045422.74848         0.00041  20841165.43548  20841164.55349
  -7899642.77648  -6155560.13246         0.00041  22644015.48446  22644015.82848
  -3084955.20908  -2403859.64208  23562966.38908  23562969.21808         0.00001
  -4593505.18509  -3579352.60608  20824766.87909  20824767.30008         0.00001
 94 02 25 01 49 00.0000000  0  5 02 07 09 12 13
  -2488859.42749  -1939361.74247         0.00041  21621861.87247  21621862.06649
  -7712739.91849  -6009916.92148         0.00041  20849836.66648  20849835.83649
  -7984233.91848  -6221475.24346         0.00041  22627917.21546  22627918.70448
  -3175043.84208  -2474058.52608  23545823.24308  23545826.32308         0.00001
  -4640345.20909  -3615851.31108  20815853.48009  20815854.11508         0.00001
 94 02 25 01 49 30.0000000  0  5 02 07 09 12 13
  -2451056.84949  -1909905.18147         0.00041  21629055.73147  21629055.49049
  -7666841.32749  -5974151.77348         0.00041  20858570.82148  20858570.04349
  -8068504.83548  -6287140.82746         0.00041  22611880.62046  22611882.36348
  -3265017.42908  -2544167.77008  23528702.01008  23528704.93908         0.00001
  -4686570.63709  -3651871.10008  20807057.01809  20807057.82308         0.00001
 94 02 25 01 50 00.0000000  0  5 02 07 09 12 13
  -2413017.13649  -1880263.83147         0.00041  21636294.18447  21636293.58749
  -7620626.78949  -5938140.43448         0.00041  20867365.47048  20867364.45449
  -8152478.58448  -6352574.85246         0.00041  22595900.93546  22595902.30548
  -3354897.58508  -2614204.20508  23511598.57008  23511601.26508         0.00001
  -4732204.37209  -3687429.82708  20798373.19209  20798373.96008         0.00001
 94 02 25 01 50 30.0000000  0  5 02 07 09 12 13
  -2374775.22749  -1850464.91847         0.00041  21643570.79347  21643571.05349
  -7574117.16449  -5901899.15348         0.00041  20876215.88248  20876214.94049
  -8236165.86548  -6417785.66546         0.00041  22579975.76646  22579976.41448
  -3444716.66908  -2684193.04108  23494506.71208  23494509.03708         0.00001
  -4777279.85309  -3722553.55308  20789795.64509  20789796.37908         0.00001
 94 02 25 01 51 00.0000000  0  5 02 07 09 12 13
  -2336345.03549  -1820519.30247         0.00041  21650883.95447  21650883.97949
  -7527344.82949  -5865453.16748         0.00041  20885116.28248  20885115.32849
  -8319585.54648  -6482787.96646         0.00041  22564101.24846  22564101.57848
  -3534492.88308  -2754148.46708  23477422.99708  23477424.96408         0.00001
  -4821816.93109  -3757257.74408  20781320.52709  20781321.16108         0.00001
 94 02 25 01 51 30.0000000  0  5 02 07 09 12 13
  -2297715.54249  -1790418.39047         0.00041  21658234.79547  21658234.65749
  -7480296.91849  -5828792.45048         0.00041  20894069.19648  20894068.45749
  -8402742.68348  -6547585.69546         0.00041  22548278.08446  22548277.60648
  -3624218.55808  -2824064.50708  23460348.75408  23460350.55608         0.00001
  -4865809.40209  -3791537.57108  20772948.97809  20772949.57508         0.00001
 94 02 25 01 52 00.0000000  0  5 02 07 09 12 13
  -2258883.21849  -1760159.42647         0.00041  21665624.36147  21665624.15949
  -7432987.25749  -5791927.76948         0.00041  20903072.01948  20903071.57049
  -8485655.46848  -6612193.01946         0.00041  22532500.83846  22532500.07648
  -3713904.24008  -2893949.37408  23443282.06308  23443283.73408         0.00001
  -4909269.24109  -3825402.36408  20764678.75509  20764679.35708         0.00001
 94 02 25 01 52 30.0000000  0  5 02 07 09 12 13
  -2219837.36049  -1729734.06547         0.00041  21673054.64747  21673054.64549
  -7385421.74249  -5754863.72148         0.00041  20912123.39748  20912122.77649
  -8568326.30848  -6676611.81646         0.00041  22516768.87946  22516768.28448
  -3803554.94508  -2963806.98908  23426221.78608  23426223.72708         0.00001
  -4952202.72909  -3858857.01408  20756508.75609  20756509.29308         0.00001
 94 02 25 01 53 00.0000000  0  5 02 07 09 12 13
  -2180601.25749  -1699160.46747         0.00041  21680520.43747  21680520.61549
  -7337634.76549  -5717627.10348         0.00041  20921216.82348  20921216.13949
  -8650800.71448  -6740877.55346         0.00041  22501075.02046  22501073.99948
  -3893204.02508  -3033663.33508  23409161.80808  23409164.07808         0.00001
  -4994644.85809  -3891928.78408  20748432.29009  20748432.84108         0.00001
 94 02 25 01 53 30.0000000  0  5 02 07 09 12 13
  -2141187.77449  -1668448.65347         0.00041  21688020.10747  21688020.45149
  -7289619.73249  -5680212.78048         0.00041  20930353.66448  20930353.06349
  -8733068.47148  -6804982.26746         0.00041  22485419.40946  22485418.85048
  -3982858.92208  -3103524.22008  23392100.91008  23392103.68208         0.00001
  -5036604.81709  -3924624.83608  20740447.55609  20740448.23608         0.00001
 94 02 25 01 54 00.0000000  0  5 02 07 09 12 13
  -2101620.73349  -1637617.19147         0.00041  21695549.24347  21695550.06449
  -7241370.71049  -5642616.13548         0.00041  20939534.59148  20939534.36749
  -8815114.73048  -6868914.38246         0.00041  22469806.50546  22469806.48548
  -4072522.96408  -3173392.23208  23375038.34708  23375041.32308         0.00001
  -5078087.29809  -3956948.82208  20732553.67509  20732554.42508         0.00001
 94 02 25 01 54 30.0000000  0  6 02 04 07 09 12 13
  -2061890.27349  -1606658.39047         0.00041  21703110.05247  21703110.56549
        -0.82258        -0.40954         0.00051  22160975.51554  22160973.66858
  -7192849.06549  -5604807.05648         0.00041  20948767.83548  20948767.85249
  -8896901.36048  -6932644.16046         0.00041  22454242.75746  22454243.16248
  -4162165.31608  -3243243.34108  23357979.98408  23357983.20608         0.00001
  -5119063.27509  -3988878.12308  20724756.19109  20724756.95308         0.00001
 94 02 25 01 55 00.0000000  0  6 02 04 07 09 12 13
  -2021989.00549  -1575566.48847         0.00041  21710703.65847  21710703.39949
    -85840.90948    -66888.69144         0.00041  22144645.65144  22144638.49748
  -7144023.92249  -5566761.48248         0.00041  20958058.86148  20958059.26749
  -8978376.21248  -6996130.99746         0.00041  22438737.90946  22438738.60748
  -4251747.98808  -3313047.94708  23340933.06008  23340936.38508         0.00001
  -5159496.18508  -4020384.25808  20717062.02108  20717062.65908         0.00001
 94 02 25 01 55 30.0000000  0  6 02 04 07 09 12 13
  -1981880.59849  -1544313.17647         0.00041  21718335.87247  21718336.14049
   -171338.32848   -133510.04244         0.00041  22128377.02544  22128369.15148
  -7094850.51749  -5528444.53648         0.00041  20967416.41148  20967416.60849
  -9059473.94548  -7059323.97046         0.00041  22423304.86546  22423305.67448
  -4341209.98308  -3382758.52208  23323908.94908  23323912.23308         0.00001
  -5199326.86608  -4051421.12008  20709482.42608  20709483.12508         0.00001
 94 02 25 01 56 00.0000000  0  6 02 04 07 09 12 13
  -1941573.90149  -1512905.35647         0.00041  21726005.99747  21726006.28849
   -256509.50748   -199877.05344         0.00041  22112167.70744  22112162.07348
  -7045348.48749  -5489871.51848         0.00041  20976836.36748  20976836.48449
  -9140217.12748  -7122240.68446         0.00041  22407940.69146  22407940.58248
  -4430558.42708  -3452380.61508  23306906.33708  23306909.62408         0.00001
  -5238564.18508  -4081995.61608  20702015.71208  20702016.42608         0.00001
 94 02 25 01 56 30.0000000  0  6 02 04 07 09 12 13
  -1901053.18849  -1481330.77147         0.00041  21733717.22947  21733716.41949
   -341358.82348   -265993.63244         0.00041  22096016.19444  22096014.51948
  -6995533.34449  -5451054.51748         0.00041  20986315.75148  20986315.90849
  -9220610.97148  -7184885.20346         0.00041  22392642.32746  22392641.94248
  -4519793.70408  -3521914.53008  23289925.38408  23289928.42408         0.00001
  -5277210.25908  -4112109.40108  20694661.54608  20694662.24308         0.00001
 94 02 25 01 57 00.0000000  0  6 02 04 07 09 12 13
  -1860306.14549  -1449579.82847         0.00041  21741470.90947  21741470.15249
   -425867.06247   -331844.16244         0.00041  22079931.36744  22079932.19847
  -6945415.39749  -5412001.56248         0.00041  20995852.82248  20995852.80849
  -9300664.10748  -7247264.24246         0.00041  22377408.61146  22377408.46948
  -4608908.67508  -3591354.70808  23272967.29908  23272970.01108         0.00001
  -5315259.71308  -4141758.29608  20687420.96708  20687421.63108         0.00001
 94 02 25 01 57 30.0000000  0  5 02 07 09 12 13
  -1819354.26049  -1417669.25947         0.00041  21749263.48647  21749263.11549
  -6895035.46249  -5372744.45948         0.00041  21005440.14748  21005439.82849
  -9380446.63048  -7309432.40246         0.00041  22362227.40946  22362226.91648
  -4697946.62208  -3660734.86308  23256023.98508  23256026.31508         0.00001
  -5352757.63708  -4170977.43108  20680285.40408  20680285.92708         0.00001
 94 02 25 01 58 00.0000000  0  5 02 07 09 12 13
  -1778158.84449  -1385568.93147         0.00041  21757103.67047  21757102.83649
  -6844366.10449  -5333261.83448         0.00041  21015082.21348  21015081.75149
  -9459942.52148  -7371377.21146         0.00041  22347099.90546  22347099.15548
  -4786882.50308  -3730035.47808  23239100.00608  23239101.85608         0.00001
  -5389680.84708  -4199748.73908  20673259.20308  20673259.63608         0.00001
 94 02 25 01 58 30.0000000  0  5 02 07 09 12 13
  -1736690.00549  -1353255.54647         0.00041  21764994.84747  21764993.61349
  -6793389.30849  -5293539.64148         0.00041  21024782.75448  21024782.23449
  -9539127.88448  -7433080.05846         0.00041  22332031.10246  22332029.83448
  -4875688.14508  -3799234.60608  23222200.69208  23222202.46408         0.00001
  -5426003.24508  -4228051.87908  20666347.34708  20666347.79008         0.00001
 94 02 25 01 59 00.0000000  0  5 02 07 09 12 13
  -1694957.11949  -1320736.40347         0.00041  21772935.57147  21772934.48849
  -6742115.49849  -5253586.00347         0.00041  21034539.58447  21034539.38249
  -9618018.83948  -7494553.51246         0.00041  22317018.15246  22317016.31448
  -4964367.88808  -3868335.62508  23205325.34708  23205326.72008         0.00001
  -5461730.99608  -4255891.65608  20659548.57308  20659549.10008         0.00001
 94 02 25 01 59 30.0000000  0  5 02 07 09 12 13
  -1652975.51549  -1288023.44847         0.00041  21780923.99947  21780924.04649
  -6690570.33949  -5213420.93747         0.00041  21044348.31847  21044348.23149
  -9696621.61248  -7555802.40546         0.00041  22302059.96246  22302058.34248
  -5052944.04808  -3937355.93308  23188469.58008  23188471.11408         0.00001
  -5496888.37008  -4283286.98308  20652858.30908  20652858.89008         0.00001
 94 02 25 02 00 00.0000000  0  5 02 07 09 12 13
  -1610772.02549  -1255137.61247         0.00041  21788954.81847  21788955.17049
  -6638785.40149  -5173069.03047         0.00041  21054202.43347  21054202.66449
  -9774932.10748  -7616823.54946         0.00041  22287156.83446  22287156.37248
  -5141436.85408  -4006311.28908  23171629.77508  23171631.55608         0.00001
  -5531497.54108  -4310255.13708  20646272.33908  20646273.02508         0.00001
 94 02 25 02 00 30.0000000  0  5 02 07 09 12 13
  -1568383.42249  -1222107.53247         0.00041  21797021.05747  21797021.58449
  -6586782.87449  -5132547.57947         0.00041  21064098.17647  21064098.38949
  -9852962.01848  -7677626.03946         0.00041  22272308.64946  22272309.03648
  -5229872.23208  -4075221.90608  23154800.72608  23154802.87308         0.00001
  -5565586.54208  -4336817.96108  20639785.29608  20639786.15708         0.00001
 94 02 25 02 01 00.0000000  0  5 02 07 09 12 13
  -1525812.53249  -1188935.40347         0.00041  21805122.71247  21805122.81449
  -6534543.20449  -5091841.33647         0.00041  21074039.06747  21074038.98649
  -9930690.17848  -7738193.38546         0.00041  22257517.47446  22257518.47448
  -5318244.86908  -4144083.63608  23137983.71608  23137986.04208         0.00001
  -5599152.12408  -4362972.92708  20633397.90308  20633398.82108         0.00001
 94 02 25 02 01 30.0000000  0  5 02 07 09 12 13
  -1483062.97549  -1155624.04847         0.00041  21813258.06947  21813257.17049
  -6482060.20549  -5050945.48547         0.00041  21084026.27547  21084026.04949
 -10008097.02448  -7798510.35446         0.00041  22242787.82746  22242788.38148
  -5406551.94308  -4212894.28508  23121179.29308  23121181.72608         0.00001
  -5632193.46808  -4388719.39808  20627110.19308  20627111.26008         0.00001
 94 02 25 02 02 00.0000000  0  6 02 04 07 09 12 13
  -1440123.87749  -1122164.99747         0.00041  21821429.01947  21821427.86749
         0.12358         0.95054         0.00051  21922700.82854  21922697.36658
  -6429305.24949  -5009837.71548         0.00041  21094065.32448  21094065.01749
 -10085169.06548  -7858566.45546         0.00041  22228121.39146  22228121.61648
  -5494772.84708  -4281637.78708  23104391.40608  23104393.66908         0.00001
  -5664692.23108  -4414043.08408  20620925.80208  20620926.94008         0.00001
 94 02 25 02 02 30.0000000  0  6 02 04 07 09 12 13
  -1396972.36849  -1088540.43647         0.00041  21829640.27247  21829639.70949
    -80791.42848    -62953.41544         0.00041  21907314.61544  21907322.82748
  -6376251.70849  -4968497.28448         0.00041  21104161.01548  21104160.94249
 -10161890.91348  -7918349.66846         0.00041  22213522.17546  22213521.46748
  -5582880.41408  -4350292.96408  23087625.30208  23087627.02408         0.00001
  -5696623.35508  -4438924.45208  20614849.49908  20614850.58108         0.00001
 94 02 25 02 03 00.0000000  0  6 02 04 07 09 12 13
  -1353589.21149  -1054735.36847         0.00041  21837896.11347  21837895.71149
   -161195.87348   -125606.12644         0.00041  21892017.85044  21892021.40048
  -6322919.33449  -4926939.58148         0.00041  21114309.74748  21114310.15049
 -10238270.06648  -7977865.87546         0.00041  22198987.93146  22198987.39448
  -5670871.80708  -4418857.60708  23070881.24308  23070882.63308         0.00001
  -5727986.20508  -4463363.00908  20608881.33808  20608882.38408         0.00001
 94 02 25 02 03 30.0000000  0  6 02 04 07 09 12 13
  -1310008.17549  -1020776.11047         0.00041  21846189.34847  21846188.59249
   -241274.09248   -188004.64344         0.00041  21876778.24144  21876781.49948
  -6269376.65649  -4885218.00748         0.00041  21124498.38548  21124498.84349
 -10314366.50748  -8037161.77746         0.00041  22184507.10246  22184506.66248
  -5758795.09308  -4487369.17508  23054150.17808  23054151.24208         0.00001
  -5758831.23308  -4487398.06408  20603011.72308  20603012.68408         0.00001
 94 02 25 02 04 00.0000000  0  6 02 04 07 09 12 13
  -1266170.42049   -986616.81947         0.00041  21854531.30447  21854530.80949
   -320980.43248   -250113.45044         0.00041  21861615.46044  21861614.85648
  -6215573.21649  -4843293.24448         0.00041  21134736.54148  21134737.17849
 -10390125.63348  -8096194.83846         0.00041  22170090.89846  22170090.72048
  -5846587.46808  -4555778.73308  23037444.00608  23037445.02608         0.00001
  -5789097.77708  -4510982.35508  20597252.27108  20597253.09408         0.00001
 94 02 25 02 04 30.0000000  0  6 02 04 07 09 12 13
  -1222057.77849   -952243.33747         0.00041  21862925.40247  21862925.47549
   -400307.20548   -311926.44744         0.00041  21846520.07044  21846520.11548
  -6161502.80549  -4801160.44948         0.00041  21145026.01548  21145026.43249
 -10465525.02648  -8154947.59046         0.00041  22155742.79846  22155742.71948
  -5934229.54408  -4624071.18708  23020766.40208  23020767.38108         0.00001
  -5818768.68809  -4534102.52208  20591606.22209  20591606.82708         0.00001
 94 02 25 02 05 00.0000000  0  6 02 04 07 09 12 13
  -1177735.61949   -917706.59847         0.00041  21871358.57347  21871359.24449
   -479331.49048   -373503.74044         0.00041  21831482.34144  21831481.33248
  -6107234.21249  -4758873.22348         0.00041  21155353.29148  21155353.44249
 -10540627.22848  -8213468.75846         0.00041  22141451.54846  22141451.54448
  -6021787.38708  -4692298.01108  23004104.86608  23004106.01108         0.00001
  -5847912.46109  -4556811.93808  20586060.43809  20586060.82108         0.00001
 94 02 25 02 05 30.0000000  0  6 02 04 07 09 12 13
  -1133217.97649   -883017.52647         0.00041  21879830.89347  21879830.98449
   -558025.04948   -434823.28944         0.00041  21816507.29444  21816505.75048
  -6052738.60549  -4716409.10447         0.00041  21165723.44847  21165724.05649
 -10615406.37948  -8271738.19046         0.00041  22127221.83746  22127221.90948
  -6109243.34608  -4760445.46308  22987462.48108  22987464.06808         0.00001
  -5876513.76209  -4579098.64908  20580617.68609  20580618.16408         0.00001
 94 02 25 02 06 00.0000000  0  6 02 04 07 09 12 13
  -1088461.19149   -848142.11247         0.00041  21888348.24247  21888348.16149
   -636315.31648   -495828.72444         0.00041  21801607.53744  21801606.14848
  -5997953.38549  -4673719.30947         0.00041  21176148.47747  21176149.07149
 -10689795.35748  -8329703.58846         0.00041  22113065.62746  22113065.82848
  -6196538.69708  -4828467.76708  22970850.38708  22970852.46608         0.00001
  -5904516.38609  -4600918.85708  20575288.88809  20575289.49808         0.00001
 94 02 25 02 06 30.0000000  0  6 02 04 07 09 12 13
  -1043493.16049   -813102.09147         0.00041  21896905.35647  21896905.19749
   -714241.42848   -556550.28744         0.00041  21786774.97944  21786777.89048
  -5942916.69049  -4630833.56247         0.00041  21186620.88447  21186621.59049
 -10763827.40048  -8387390.84946         0.00041  22098977.78246  22098977.55448
  -6283715.05008  -4896397.35308  22954260.88408  22954263.54508         0.00001
  -5931964.19009  -4622306.73208  20570065.66509  20570066.39908         0.00001
 94 02 25 02 07 00.0000000  0  6 02 04 07 09 12 13
   -998310.33449   -777894.69647         0.00041  21905502.97347  21905503.48149
   -791784.73348   -616973.62044         0.00041  21772022.64244  21772021.87148
  -5887628.58249  -4587751.90947         0.00041  21197141.98647  21197142.69649
 -10837496.21648  -8444795.07346         0.00041  22084958.10346  22084958.48648
  -6370770.66308  -4964232.86608  22937694.33208  22937697.29508         0.00001
  -5958858.08909  -4643262.98708  20564947.86609  20564948.57108         0.00001
 94 02 25 02 07 30.0000000  0  7 02 04 07 09 12 13 24
   -952905.96948   -742514.67247         0.00041  21914143.64947  21914142.86948
   -868928.39248   -677085.51144         0.00041  21757339.07344  21757342.23348
  -5832085.31549  -4544471.43147         0.00041  21207711.47047  21207712.43949
 -10910798.13848  -8501913.40246         0.00041  22071009.04046  22071009.29748
  -6457698.23708  -5031968.61808  22921152.33908  22921155.54008         0.00001
  -5985192.99409  -4663783.66608  20559936.53309  20559937.09208         0.00001
        -0.64657         0.16154         0.00051  23691415.20854  23691417.13957
 94 02 25 02 08 00.0000000  0  8 02 04 05 07 09 12 13 24
   -907219.95448   -706915.17946         0.00041  21922836.85946  21922836.34548
   -945651.82748   -736870.04744         0.00041  21742741.89544  21742742.32448
         0.23457         0.94154         0.00051  24741414.67754  24741413.57557
  -5776250.96649  -4500964.14147         0.00041  21218336.35447  21218337.53649
 -10983696.77848  -8558717.49646         0.00041  22057136.80246  22057136.78048
  -6544454.23308  -5099570.67208  22904643.27108  22904646.17408         0.00001
  -6010928.26409  -4683837.10308  20555039.39309  20555039.72608         0.00001
   -106161.84347    -82723.23744         0.00041  23671213.89844  23671216.63347
 94 02 25 02 08 30.0000000  0  7 02 04 05 07 09 12 13
   -861223.34548   -671073.66646         0.00041  21931590.01146  21931589.11448
  -1021916.23247   -796296.79544         0.00041  21728225.06644  21728229.02947
    -78992.48148    -61551.68744         0.00041  24726391.14644  24726382.16148
  -5720095.57749  -4457206.68847         0.00041  21229023.16947  21229023.63949
 -11056159.04448  -8615181.56346         0.00041  22043348.32246  22043348.25948
  -6630999.78108  -5167008.73408  22888174.74508  22888176.88808         0.00001
  -6036027.42209  -4703394.87508  20550263.12409  20550263.34508         0.00001
 94 02 25 02 09 00.0000000  0  7 02 04 05 07 09 12 13
   -814848.95748   -634937.77246         0.00041  21940414.33746  21940414.14248
  -1097630.83147   -855295.24244         0.00041  21713821.65244  21713822.78547
   -157843.05948   -122993.67144         0.00041  24711374.62344  24711376.76948
  -5663525.82849  -4413126.35247         0.00041  21239788.77147  21239788.13149
 -11128108.28848  -8671245.88747         0.00041  22029657.10947  22029657.15348
  -6717240.72308  -5234209.43608  22871764.12908  22871765.33308         0.00001
  -6060398.72509  -4722385.49008  20545625.39909  20545625.63608         0.00001
 94 02 25 02 09 30.0000000  0  6 02 05 07 09 12 13
   -768197.64048   -598586.09246         0.00041  21949291.50646  21949290.57348
   -236616.45048   -184375.48344         0.00041  24696392.72844  24696386.15948
  -5606638.76149  -4368798.75047         0.00041  21250614.21247  21250613.50949
 -11199633.93948  -8726980.13447         0.00041  22016046.26647  22016046.63248
  -6803266.21308  -5301242.24308  22855394.37708  22855394.98108         0.00001
  -6084134.22609  -4740880.67308  20541108.64009  20541109.00008         0.00001
 94 02 25 02 10 00.0000000  0  6 02 05 07 09 12 13
   -721356.59648   -562086.57046         0.00041  21958204.92946  21958204.16948
   -315376.40248   -245746.76244         0.00041  24681401.61744  24681398.18748
  -5549519.11149  -4324289.92047         0.00041  21261483.62147  21261482.84949
 -11270799.76249  -8782433.99047         0.00041  22002503.88347  22002504.43749
  -6889155.23308  -5368168.70508  22839050.34308  22839050.74608         0.00001
  -6107315.52909  -4758944.01008  20536697.38009  20536697.85808         0.00001
 94 02 25 02 10 30.0000000  0  6 02 05 07 09 12 13
   -674267.12848   -525393.47346         0.00041  21967166.80246  21967166.26848
   -394078.84547   -307073.28144         0.00041  24666424.83344  24666419.97047
  -5492115.36949  -4279559.71947         0.00041  21272406.41247  21272406.01049
 -11341547.74249  -8837562.24947         0.00041  21989040.65547  21989041.23849
  -6974851.96108  -5434945.31808  22822742.56108  22822743.16108         0.00001
  -6129889.35508  -4776533.98308  20532401.63408  20532402.21208         0.00001
 94 02 25 02 11 00.0000000  0  6 02 05 07 09 12 13
   -627002.27948   -488563.70646         0.00041  21976161.50346  21976160.94548
   -472836.60747   -368442.84644         0.00041  24651425.77244  24651431.48847
  -5434532.80149  -4234690.16947         0.00041  21283363.93347  21283363.26949
 -11411964.93949  -8892432.75947         0.00041  21975640.85247  21975641.16049
  -7060454.77008  -5501648.75208  22806452.67208  22806453.56608         0.00001
  -6151956.78608  -4793729.35708  20528202.29108  20528202.95908         0.00001
 94 02 25 02 11 30.0000000  0  6 02 05 07 09 12 13
   -579575.58548   -451607.82946         0.00041  21985185.87946  21985185.06148
   -551689.85247   -429886.99744         0.00041  24636420.04844  24636426.47047
  -5376822.56149  -4189721.13347         0.00041  21294346.07847  21294344.83049
 -11482067.20448  -8947057.87547         0.00041  21962301.12547  21962300.42448
  -7145994.66408  -5568303.16708  22790174.72008  22790175.98908         0.00001
  -6173551.80508  -4810556.61108  20524092.78808  20524093.60908         0.00001
 94 02 25 02 12 00.0000000  0  6 02 05 07 09 12 13
   -531978.17048   -414518.92846         0.00041  21994241.39446  21994242.25048
   -630653.64747   -491416.95444         0.00041  24621396.78244  24621400.43247
  -5318987.62549  -4144654.93647         0.00041  21305351.59347  21305351.08449
 -11551859.90448  -9001441.77247         0.00041  21949019.66947  21949018.36848
  -7231466.50908  -5634904.56108  22773909.86708  22773911.44908         0.00001
  -6194671.82608  -4827013.73908  20520073.72408  20520074.60008         0.00001
 94 02 25 02 12 30.0000000  0  6 02 05 07 09 12 13
   -484182.19548   -377275.30846         0.00041  22003337.15146  22003338.73948
   -709732.62547   -553036.70444         0.00041  24606356.66144  24606354.42847
  -5261013.09849  -4099479.97147         0.00041  21316383.32947  21316383.88449
 -11621336.65248  -9055579.47347         0.00041  21935798.94847  21935797.83648
  -7316848.86508  -5701436.22108  22757662.28608  22757663.78508         0.00001
  -6215298.38708  -4843086.35408  20516148.63108  20516149.49708         0.00001
 94 02 25 02 13 00.0000000  0  5 02 07 09 12 13
   -436178.64048   -339869.94346         0.00041  22012470.61046  22012473.40748
  -5202877.05049  -4054179.15447         0.00041  21327446.37047  21327446.75849
 -11690471.11248  -9109450.45347         0.00041  21922642.97747  21922642.27948
  -7402114.12508  -5767876.63108  22741436.86408  22741438.42408         0.00001
  -6235406.74208  -4858755.17708  20512322.19708  20512322.99208         0.00001
 94 02 25 02 13 30.0000000  0  5 02 07 09 12 13
   -388190.78648   -302476.81246         0.00041  22021602.21946  22021605.07348
  -5144770.90349  -4008901.63647         0.00041  21338503.48647  21338503.74949
 -11759467.65248  -9163213.96747         0.00041  21909513.14747  21909512.86948
  -7487461.42908  -5834380.96708  22725195.95208  22725197.31008         0.00001
  -6255198.80509  -4874177.54308  20508556.03109  20508556.67708         0.00001
 94 02 25 02 14 00.0000000  0  5 02 07 09 12 13
   -340345.51948   -265194.78046         0.00041  22030708.81646  22030710.17448
  -5086796.78249  -3963726.99847         0.00041  21349535.75847  21349535.52049
 -11828446.43348  -9216963.62847         0.00041  21896387.01547  21896387.12448
  -7573011.54008  -5901043.33408  22708916.34708  22708917.57608         0.00001
  -6274798.31309  -4889449.86808  20504826.29209  20504826.91208         0.00001
 94 02 25 02 14 30.0000000  0  5 02 07 09 12 13
   -292260.35348   -227725.82046         0.00041  22039861.19846  22039860.24948
  -5028567.31149  -3918353.38447         0.00041  21360616.38147  21360616.08949
 -11897020.17248  -9270397.67947         0.00041  21883337.93847  21883337.45748
  -7658386.88508  -5967569.52108  22692669.70908  22692671.02608         0.00001
  -6293830.46209  -4904280.09808  20501204.53509  20501205.15008         0.00001
 94 02 25 02 15 00.0000000  0  5 02 07 09 12 13
   -243876.38648   -190024.02946         0.00041  22049067.32346  22049067.95148
  -4970015.90049  -3872728.89847         0.00041  21371759.03747  21371758.46149
 -11965116.24848  -9323459.52947         0.00041  21870379.90247  21870378.42248
  -7743521.09808  -6033907.81708  22676468.88808  22676470.47508         0.00001
  -6312232.02909  -4918618.96808  20497702.76609  20497703.40708         0.00001
 94 02 25 02 15 30.0000000  0  5 02 07 09 12 13
   -195238.07048   -152124.02046         0.00041  22058321.78946  22058322.98848
  -4911194.52349  -3826894.05247         0.00041  21382952.08547  21382951.81749
 -12032786.58648  -9376189.64747         0.00041  21857502.04047  21857500.49248
  -7828462.89508  -6100096.17908  22660304.72008  22660306.57808         0.00001
  -6330054.57009  -4932506.65008  20494311.29309  20494311.93908         0.00001
 94 02 25 02 16 00.0000000  0  5 02 07 09 12 13
   -146296.60548   -113987.79446         0.00041  22067634.39046  22067635.91648
  -4852080.14849  -3780830.89947         0.00041  21394201.26147  21394201.39549
 -12100011.87448  -9428572.97847         0.00041  21844709.91147  21844708.58248
  -7913172.99008  -6166104.00408  22644184.82008  22644186.79008         0.00001
  -6347261.96809  -4945914.99708  20491036.83609  20491037.53408         0.00001
 94 02 25 02 16 30.0000000  0  6 02 07 09 12 13 24
    -97014.62548    -75586.24846         0.00041  22077012.13646  22077013.62948
  -4792651.12449  -3734522.56247         0.00041  21405510.66947  21405510.46849
 -12166765.09849  -9480588.46147         0.00041  21832007.23747  21832006.74049
  -7997605.57008  -6231895.59108  22628117.75408  22628119.71708         0.00001
  -6363811.34109  -4958810.59608  20487887.65909  20487888.30508         0.00001
        -1.17957        -0.47054         0.00051  23330614.72854  23330617.24857
 94 02 25 02 17 00.0000000  0  5 02 07 09 12 13
    -47411.75948    -36934.65846         0.00041  22086451.29146  22086453.79148
  -4732929.23449  -3687986.00547         0.00041  21416876.13847  21416875.02049
 -12233047.43549  -9532237.01447         0.00041  21819393.75147  21819394.19649
  -8081762.77308  -6297472.59408  22612103.33808  22612105.18308         0.00001
  -6379708.17709  -4971197.72008  20484862.58909  20484863.21908         0.00001
 94 02 25 02 17 30.0000000  0  5 02 07 09 12 13
      2514.35348      1968.82746         0.00041  22095953.63446  22095953.82048
  -4672929.11749  -3641232.64847         0.00041  21428293.85247  21428292.82749
 -12298866.90049  -9583524.87947         0.00041  21806869.12147  21806869.39849
  -8165648.09208  -6362837.73508  22596140.70908  22596142.24608         0.00001
  -6394958.82909  -4983081.32108  20481960.46009  20481961.13108         0.00001
 94 02 25 02 18 00.0000000  0  6 02 07 09 12 13 24
     52655.40148     41039.77546         0.00041  22105494.44046  22105494.72448
  -4612773.77449  -3594358.34347         0.00041  21439740.68547  21439740.23849
 -12364331.83149  -9634536.48647         0.00041  21794411.20947  21794411.83449
  -8249381.26708  -6428084.31308  22580207.00108  22580208.22208         0.00001
  -6409686.19609  -4994557.16608  20479157.94209  20479158.56708         0.00001
        -0.26657         0.28154         0.00051  23271107.33854  23271107.25957
 94 02 25 02 18 30.0000000  0  5 02 07 09 12 13
    103097.70148     80345.47346         0.00041  22115092.65446  22115094.65648
  -4552364.82049  -3547286.42847         0.00041  21451235.00847  21451235.79049
 -12429321.23849  -9685177.55647         0.00041  21782044.14447  21782044.14249
  -8332868.34208  -6493139.12408  22564320.15308  22564321.02608         0.00001
  -6423799.66709  -5005554.65508  20476472.33109  20476472.76808         0.00001
 94 02 25 02 19 00.0000000  0  6 02 05 07 09 12 13
    153826.20848    119874.16846         0.00041  22124746.10046  22124747.87248
        -0.05957         0.29954         0.00051  24409275.42054  24409268.36557
  -4491723.18349  -3500033.20847         0.00041  21462774.21747  21462775.48449
 -12493848.25948  -9735458.32247         0.00041  21769765.00947  21769764.26248
  -8416136.11108  -6558023.05808  22548474.93608  22548475.58008         0.00001
  -6437328.97009  -5016096.95708  20473897.89409  20473898.18408         0.00001
 94 02 25 02 19 30.0000000  0  6 02 05 07 09 12 13
    204922.27848    159689.25746         0.00041  22134468.87946  22134470.74848
    -79514.18747    -61959.13444         0.00041  24394143.28444  24394140.07047
  -4430756.59549  -3452526.77747         0.00041  21474375.56047  21474376.74549
 -12557846.73448  -9785327.24447         0.00041  21757586.60047  21757585.85348
  -8499107.72008  -6622676.22808  22532685.75308  22532686.38308         0.00001
  -6450200.81209  -5026126.95808  20471448.54209  20471448.73808         0.00001
 94 02 25 02 20 00.0000000  0  6 02 05 07 09 12 13
    256631.46948    199982.13346         0.00041  22144309.66246  22144309.94848
   -158680.52348   -123647.08744         0.00041  24379071.21544  24379076.52648
  -4369195.79549  -3404557.31847         0.00041  21486090.61547  21486091.29449
 -12621043.33048  -9834571.33447         0.00041  21745560.49047  21745559.72948
  -8581518.68008  -6686892.53308  22517003.10508  22517004.00908         0.00001
  -6462153.81409  -5035440.97708  20469173.92409  20469174.14508         0.00001
 94 02 25 02 20 30.0000000  0  6 02 05 07 09 12 13
    308478.79248    240382.63146         0.00041  22154177.93846  22154175.99948
   -237950.85448   -185415.99044         0.00041  24363987.91244  24363991.56948
  -4307504.97849  -3356486.54747         0.00041  21497829.92447  21497830.39649
 -12683892.33249  -9883544.57247         0.00041  21733600.85647  21733600.56649
  -8663821.94608  -6751024.92108  22501340.96508  22501342.23108         0.00001
  -6473644.10409  -5044394.43608  20466987.27309  20466987.60508         0.00001
 94 02 25 02 21 00.0000000  0  6 02 05 07 09 12 13
    360429.73648    280863.89346         0.00041  22164062.79546  22164062.36048
   -317346.52547   -247282.57644         0.00041  24348884.55644  24348881.75947
  -4245717.92549  -3308340.77947         0.00041  21509587.85047  21509588.05649
 -12746432.05349  -9932276.80647         0.00041  21721699.76947  21721699.91449
  -8746046.29808  -6815095.81808  22485694.16608  22485695.47508         0.00001
  -6484703.84409  -5053012.39708  20464882.51609  20464882.93808         0.00001
 94 02 25 02 21 30.0000000  0  6 02 05 07 09 12 13
    412494.37648    321433.74346         0.00041  22173970.72646  22173971.15048
   -396839.71947   -309225.26844         0.00041  24333760.60944  24333753.67547
  -4183822.35749  -3260110.45347         0.00041  21521366.00647  21521366.50249
 -12808637.44249  -9980748.51347         0.00041  21709862.55347  21709862.94449
  -8828170.11008  -6879088.37208  22470066.73408  22470067.78108         0.00001
  -6495315.03609  -5061280.84208  20462863.13309  20462863.62608         0.00001
 94 02 25 02 22 00.0000000  0  6 02 05 07 09 12 13
    464703.53148    362116.20546         0.00041  22183905.84846  22183906.37348
   -476415.70147   -371232.48844         0.00041  24318612.72844  24318611.38647
  -4121818.33849  -3211795.61947         0.00041  21533165.17447  21533165.49749
 -12870481.33849 -10028938.53047         0.00041  21698093.95647  21698094.63749
  -8910171.19308  -6942985.28808  22454462.55408  22454463.38608         0.00001
  -6505458.52609  -5069184.84608  20460932.80409  20460933.34108         0.00001
 94 02 25 02 22 30.0000000  0  6 02 05 07 09 12 13
    517103.25648    402947.15646         0.00041  22193878.29246  22193877.38248
   -556049.09148   -433284.37644         0.00041  24303457.02644  24303458.37548
  -4059675.13349  -3163372.33047         0.00041  21544991.26147  21544991.31549
 -12931944.34849 -10076831.75947         0.00041  21686397.62947  21686398.36649
  -8992015.88008  -7006760.33708  22438887.91608  22438888.71908         0.00001
  -6515104.04708  -5076700.81708  20459097.22408  20459097.90808         0.00001
 94 02 25 02 23 00.0000000  0  6 02 05 07 09 12 13
    569681.24848    443917.02146         0.00041  22203883.94446  22203882.68148
   -635756.41548   -495393.86644         0.00041  24288289.43344  24288290.20548
  -3997402.30549  -3114848.03247         0.00041  21556840.89147  21556841.11649
 -12993051.84449 -10124447.96747         0.00041  21674768.95547  21674769.90449
  -9073719.46608  -7070425.43408  22423340.12808  22423341.09308         0.00001
  -6524270.28108  -5083843.31708  20457352.89408  20457353.71608         0.00001
 94 02 25 02 23 30.0000000  0  6 02 05 07 09 12 13
    622470.63448    485051.60146         0.00041  22213928.90346  22213927.79848
   -715529.98048   -557555.00844         0.00041  24273106.57244  24273109.80548
  -3934983.37649  -3066209.89747         0.00041  21568718.31347  21568719.20849
 -13053769.40049 -10171760.33347         0.00041  21663214.91047  21663215.43049
  -9155253.08208  -7133958.08808  22407824.73308  22407825.79608         0.00001
  -6532932.11309  -5090592.77508  20455704.71309  20455705.43808         0.00001
 94 02 25 02 24 00.0000000  0  6 02 05 07 09 12 13
    675498.11648    526371.72746         0.00041  22224018.75346  22224017.84848
   -795361.16848   -619760.96644         0.00041  24257922.32544  24257918.39848
  -3872400.92549  -3017444.34847         0.00041  21580628.05647  21580628.71249
 -13114076.19749 -10218752.61947         0.00041  21651738.81647  21651739.36049
  -9236593.97608  -7197340.56608  22392346.07608  22392347.26308         0.00001
  -6541070.04209  -5096933.99908  20454156.05909  20454156.88808         0.00001
 94 02 25 02 24 30.0000000  0  6 02 05 07 09 12 13
    728748.29248    567865.37946         0.00041  22234150.52046  22234149.65948
   -875263.87148   -682022.86344         0.00041  24242712.76844  24242713.10848
  -3809658.59049  -2968554.21447         0.00041  21592567.41147  21592568.12049
 -13173975.69249 -10265427.52247         0.00041  21640340.33547  21640340.93149
  -9317747.29108  -7260576.88508  22376903.07908  22376904.48008         0.00001
  -6548692.60809  -5102873.63908  20452705.50209  20452706.36408         0.00001
 94 02 25 02 25 00.0000000  0  6 02 05 07 09 12 13
    782236.88648    609544.78346         0.00041  22244330.48646  22244329.34148
   -955227.09747   -744331.66244         0.00041  24227492.30044  24227495.11947
  -3746752.34649  -2919536.35847         0.00041  21604537.94847  21604538.59049
 -13233452.01349 -10311772.67647         0.00041  21629021.96547  21629022.72149
  -9398699.40408  -7323656.42608  22361498.37208  22361499.91808         0.00001
  -6555790.01909  -5108404.07008  20451354.87409  20451355.78008         0.00001
 94 02 25 02 25 30.0000000  0  6 02 05 07 09 12 13
    835972.42048    651416.62846         0.00041  22254556.00146  22254556.53548
  -1035254.51147   -806690.60644         0.00041  24212262.74644  24212263.49847
  -3683686.77949  -2870394.35847         0.00041  21616537.79147  21616539.19149
 -13292500.39048 -10357784.36647         0.00041  21617784.91847  21617785.62648
  -9479451.43908  -7386580.06008  22346131.84308  22346133.48508         0.00001
  -6562366.86609  -5113528.87108  20450103.45409  20450104.26508         0.00001
 94 02 25 02 26 00.0000000  0  5 02 07 09 12 13
    889951.79448    693478.47546         0.00041  22264826.09046  22264827.31448
  -3620449.25749  -2821118.37447         0.00041  21628571.40947  21628572.50049
 -13351124.87548 -10403465.76747         0.00041  21606629.44747  21606629.24648
  -9559993.59208  -7449340.14108  22330805.25308  22330806.81408         0.00001
  -6568416.97509  -5118243.23008  20448952.27309  20448952.97008         0.00001
 94 02 25 02 26 30.0000000  0  5 02 07 09 12 13
    943912.56848    735525.82346         0.00041  22275093.52146  22275093.98948
  -3557281.80849  -2771896.99147         0.00041  21640591.95747  21640592.65349
 -13409581.32049 -10449016.23447         0.00041  21595505.71647  21595505.52549
  -9640573.41608  -7512129.56908  22315471.50708  22315472.95008         0.00001
  -6574191.33109  -5122742.71508  20447853.44809  20447854.14008         0.00001
 94 02 25 02 27 00.0000000  0  5 02 07 09 12 13
    997732.56548    777463.46646         0.00041  22285337.12446  22285336.28248
  -3494295.16348  -2722816.48547         0.00041  21652578.15047  21652578.10748
 -13467970.83949 -10494514.54647         0.00041  21584395.15847  21584395.02149
  -9721297.66008  -7575031.53108  22300110.38508  22300111.53908         0.00001
  -6579800.41709  -5127113.41808  20446786.06309  20446786.72308         0.00001
 94 02 25 02 27 30.0000000  0  6 02 05 07 09 12 13
   1051832.82748    819619.50346         0.00041  22295631.48146  22295631.65548
        -0.25157         0.25054         0.00051  24151038.32754  24151034.64057
  -3431052.68748  -2673536.62747         0.00041  21664612.82147  21664612.86948
 -13525840.05349 -10539607.42647         0.00041  21573383.03047  21573383.13149
  -9801723.72608  -7637701.14208  22284805.82808  22284806.95508         0.00001
  -6584805.31309  -5131013.32408  20445833.70509  20445834.25008         0.00001
 94 02 25 02 28 00.0000000  0  6 02 05 07 09 12 13
   1106472.41848    862195.80546         0.00041  22306028.84146  22306028.14648
    -80313.74448    -62581.59544         0.00041  24135748.39644  24135752.58748
  -3367290.33048  -2623851.66747         0.00041  21676747.07347  21676746.92648
 -13582932.01449 -10584094.65047         0.00041  21562518.82347  21562519.08749
  -9881588.07708  -7699933.04908  22269608.00308  22269609.21308         0.00001
  -6588946.05109  -5134239.86508  20445045.82209  20445046.24708         0.00001
 94 02 25 02 28 30.0000000  0  6 02 05 07 09 12 13
   1161832.04448    905333.16846         0.00041  22316564.28046  22316563.18748
   -160148.68848   -124790.60944         0.00041  24120562.29344  24120561.58148
  -3302840.55748  -2573631.07047         0.00041  21689011.03147  21689011.38948
 -13639064.93849 -10627834.57248         0.00041  21551837.30448  21551837.33349
  -9960723.35608  -7761596.84608  22254548.73508  22254550.27508         0.00001
  -6592059.14409  -5136665.64308  20444453.35809  20444453.81708         0.00001
 94 02 25 02 29 00.0000000  0  6 02 05 07 09 12 13
   1217448.10748    948670.34746         0.00041  22327148.45546  22327147.80448
   -239986.36448   -187001.71345         0.00041  24105368.98945  24105370.09948
  -3238192.92148  -2523256.30347         0.00041  21701313.09847  21701313.25348
 -13694711.45649 -10671195.48447         0.00041  21541248.33447  21541248.28149
 -10039605.37808  -7823063.30708  22239537.61808  22239539.45108         0.00001
  -6594624.09009  -5138664.29108  20443965.14209  20443965.73108         0.00001
 94 02 25 02 29 30.0000000  0  6 02 05 07 09 12 13
   1273266.14048    992164.89946         0.00041  22337771.04046  22337770.47348
   -319898.28148   -249270.67245         0.00041  24090162.00145  24090163.25648
  -3173427.67848  -2472789.88347         0.00041  21713638.02647  21713638.10648
 -13749956.50649 -10714243.57147         0.00041  21530735.98047  21530735.33949
 -10118309.25608  -7884390.96808  22224560.66108  22224562.53008         0.00001
  -6596719.60409  -5140297.14208  20443566.25709  20443566.95708         0.00001
 94 02 25 02 30 00.0000000  0  6 02 05 07 09 12 13
   1329297.76248   1035825.89146         0.00041  22348434.31946  22348434.56748
   -399878.09348   -311592.47845         0.00041  24074943.80145  24074943.76448
  -3108546.05148  -2422232.77247         0.00041  21725984.61247  21725984.40348
 -13804810.19649 -10756986.69747         0.00041  21520297.36247  21520297.05749
 -10196829.59708  -7945575.62808  22209618.89908  22209620.41608         0.00001
  -6598344.23609  -5141563.07408  20443257.10609  20443257.77108         0.00001
 94 02 25 02 30 30.0000000  0  6 02 05 07 09 12 13
   1385551.08448   1079659.64146         0.00041  22359138.29646  22359137.91948
   -479892.90348   -373941.59445         0.00041  24059717.21345  24059717.10848
  -3043550.49248  -2371586.87647         0.00041  21738352.37947  21738352.03248
 -13859243.52949 -10799402.26947         0.00041  21509938.97047  21509939.16349
 -10275140.52608  -8006597.11408  22194717.13708  22194718.13508         0.00001
  -6599475.99609  -5142444.95008  20443041.79009  20443042.37508         0.00001
 94 02 25 02 31 00.0000000  0  6 02 05 07 09 12 13
   1441981.28348   1123631.21546         0.00041  22369875.76746  22369873.84048
   -559978.66148   -436346.00945         0.00041  24044476.55545  24044477.17248
  -2978481.43648  -2320883.71947         0.00041  21750735.11447  21750734.24848
 -13913293.67649 -10841519.24247         0.00041  21499653.28047  21499653.44149
 -10353272.93508  -8067479.48808  22179849.13408  22179849.70208         0.00001
  -6600149.42409  -5142969.68808  20442913.74809  20442914.17308         0.00001
 94 02 25 02 31 30.0000000  0  6 02 05 07 09 12 13
   1498600.56348   1167750.12846         0.00041  22380650.19246  22380647.25448
   -640129.84548   -498801.41045         0.00041  24029226.36745  24029223.94748
  -2913322.30948  -2270110.36947         0.00041  21763133.88447  21763133.86948
 -13966936.54149 -10883318.85647         0.00041  21489445.59547  21489445.15549
 -10431207.39808  -8128207.61208  22165018.67008  22165019.15508         0.00001
  -6600349.01309  -5143125.20208  20442875.82109  20442876.15708         0.00001
 94 02 25 02 32 00.0000000  0  6 02 05 07 09 12 13
   1555252.02348   1211894.11446         0.00041  22391431.15946  22391428.78448
   -720498.79348   -561426.46245         0.00041  24013931.96945  24013930.82648
  -2848222.59948  -2219383.32546         0.00041  21775521.87346  21775522.62748
 -14020299.97848 -10924900.73647         0.00041  21479290.95847  21479289.60448
 -10509086.49708  -8188892.58708  22150198.67008  22150199.29708         0.00001
  -6600221.16409  -5143025.57108  20442900.16009  20442900.37808         0.00001
 94 02 25 02 32 30.0000000  0  6 02 05 07 09 12 13
   1611812.12348   1255966.88446         0.00041  22402194.54246  22402193.73748
   -801231.09248   -624334.69645         0.00041  23998568.02445  23998568.07448
  -2783314.88748  -2168805.89346         0.00041  21787873.33046  21787874.05148
 -14073501.11148 -10966356.15247         0.00041  21469167.16547  21469165.57748
 -10587046.22508  -8249640.38908  22135363.22208  22135364.18608         0.00001
  -6599905.77209  -5142779.80208  20442960.16909  20442960.30808         0.00001
 94 02 25 02 33 00.0000000  0  6 02 05 07 09 12 13
   1668656.88848   1300261.48446         0.00041  22413011.40646  22413011.38248
   -881970.99848   -687248.83645         0.00041  23983204.32745  23983203.96048
  -2718225.39648  -2118086.81346         0.00041  21800259.30446  21800259.56448
 -14126182.44249 -11007406.53547         0.00041  21459142.38547  21459141.40849
 -10664725.88908  -8310169.96208  22120580.90708  22120582.31608         0.00001
  -6599046.18209  -5142109.98408  20443123.61509  20443123.84308         0.00001
 94 02 25 02 33 30.0000000  0  6 02 05 07 09 12 13
   1725825.45048   1344808.42446         0.00041  22423889.82446  22423889.28848
   -962655.45948   -750119.82245         0.00041  23967850.37145  23967849.08648
  -2652921.18548  -2067200.41846         0.00041  21812685.79246  21812686.27948
 -14178308.62749 -11048024.33147         0.00041  21449222.31247  21449222.42549
 -10742085.63908  -8370450.25308  22105859.63008  22105861.41008         0.00001
  -6597606.36109  -5140988.03808  20443397.44309  20443397.73608         0.00001
 94 02 25 02 34 00.0000000  0  6 02 05 07 09 12 13
   1783319.56248   1389609.01746         0.00041  22434830.85246  22434828.82448
  -1043264.98648   -812932.40245         0.00041  23952513.36945  23952508.96448
  -2587381.33148  -2016130.40446         0.00041  21825158.29546  21825158.53448
 -14229881.40449 -11088210.88747         0.00041  21439407.97147  21439409.13749
 -10819114.81508  -8430472.95308  22091201.42208  22091203.36108         0.00001
  -6595579.69208  -5139408.80408  20443782.89608  20443783.42208         0.00001
 94 02 25 02 34 30.0000000  0  6 02 05 07 09 12 13
   1841119.99048   1434648.28046         0.00041  22445830.64546  22445828.29848
  -1123809.99748   -875694.72645         0.00041  23937182.03045  23937180.81548
  -2521610.78948  -1964880.63046         0.00041  21837673.86646  21837673.84148
 -14280928.97549 -11127988.18347         0.00041  21429693.40947  21429695.39449
 -10895821.19108  -8490244.12608  22076604.81008  22076606.70908         0.00001
  -6592977.97608  -5137381.48108  20444277.96808  20444278.53608         0.00001
 94 02 25 02 35 00.0000000  0  6 02 05 07 09 12 13
   1899195.09648   1479901.60546         0.00041  22456880.47346  22456880.11748
  -1204293.88648   -938409.41145         0.00041  23921866.68845  23921864.61348
  -2455614.51848  -1913454.95146         0.00041  21850233.46446  21850232.79448
 -14331462.81649 -11167365.15747         0.00041  21420076.87547  21420078.92849
 -10972206.11208  -8549764.82108  22062069.53508  22062071.25408         0.00001
  -6589806.41208  -5134910.11808  20444881.59908  20444882.05408         0.00001
 94 02 25 02 35 30.0000000  0  6 02 05 07 09 12 13
   1957504.18248   1525337.25646         0.00041  22467977.77546  22467975.97448
  -1284757.55647  -1001108.28445         0.00041  23906552.43545  23906552.71347
  -2389419.25948  -1861874.21846         0.00041  21862830.35446  21862829.49348
 -14381499.49749 -11206354.73747         0.00041  21410555.39047  21410556.93549
 -11048295.45608  -8609055.19708  22047590.30808  22047591.99008         0.00001
  -6586095.02809  -5132018.11908  20445587.90009  20445588.31508         0.00001
 94 02 25 02 36 00.0000000  0  6 02 05 07 09 12 13
   2016052.46548   1570959.28346         0.00041  22479118.35046  22479117.74848
  -1365226.65347  -1063811.46044         0.00041  23891244.68844  23891239.99047
  -2323023.50448  -1810137.25647         0.00041  21875464.80647  21875464.61448
 -14431036.78949 -11244955.18947         0.00041  21401128.91647  21401129.93049
 -11124090.10308  -8668115.94208  22033167.25808  22033168.63408         0.00001
  -6581848.47409  -5128709.10508  20446395.97309  20446396.37508         0.00001
 94 02 25 02 36 30.0000000  0  5 02 07 09 12 13
   2074859.69848   1616783.10446         0.00041  22490307.31046  22490307.48148
  -2256446.35549  -1758258.96247         0.00041  21888132.98347  21888134.84449
 -14480056.03349 -11283151.98447         0.00041  21391801.30847  21391801.65949
 -11199586.59008  -8726944.35908  22018800.97508  22018801.98408         0.00001
  -6577067.64909  -5124983.77408  20447305.72809  20447306.14708         0.00001
 94 02 25 02 37 00.0000000  0  5 02 07 09 12 13
   2133956.76648   1662832.73646         0.00041  22501551.51946  22501552.88048
  -2189687.67749  -1706239.22246         0.00041  21900837.24746  21900838.89149
 -14528538.89948 -11320930.83347         0.00041  21382575.38347  21382574.92148
 -11274771.80608  -8785530.22108  22004493.69108  22004494.63908         0.00001
  -6571743.35309  -5120834.96208  20448319.00209  20448319.37108         0.00001
 94 02 25 02 37 30.0000000  0  5 02 07 09 12 13
   2193385.99148   1709141.21046         0.00041  22512863.20346  22512864.23748
  -2122738.41648  -1654070.96846         0.00041  21913576.83646  21913577.86748
 -14576472.16048 -11358281.42747         0.00041  21373454.27847  21373453.47948
 -11349625.56208  -8843857.79508  21990249.47408  21990250.32608         0.00001
  -6565859.58109  -5116250.19808  20449438.70809  20449439.10308         0.00001
 94 02 25 02 38 00.0000000  0  5 02 07 09 12 13
   2253128.58648   1755693.87946         0.00041  22524230.28146  22524231.71648
  -2055643.74848  -1601789.40646         0.00041  21926343.64246  21926343.73148
 -14623886.94448 -11395228.01847         0.00041  21364431.41247  21364430.90248
 -11424172.27708  -8901946.11408  21976063.58608  21976064.38508         0.00001
  -6559444.90409  -5111251.74308  20450659.45009  20450659.81908         0.00001
 94 02 25 02 38 30.0000000  0  5 02 07 09 12 13
   2313149.63148   1802463.53146         0.00041  22535651.23846  22535653.19348
  -1988437.54948  -1549420.93346         0.00041  21939133.54746  21939132.79448
 -14670807.50149 -11431789.48547         0.00041  21355502.44447  21355502.66949
 -11498432.66008  -8959811.32408  21961931.80708  21961932.89508         0.00001
  -6552524.19309  -5105858.97208  20451976.31609  20451976.85008         0.00001
 94 02 25 02 39 00.0000000  0  6 02 05 07 09 12 13
   2373403.57948   1849414.65546         0.00041  22547116.74546  22547118.90648
        -0.86758         0.02455         0.00051  23799404.71455  23799402.74958
  -1921148.39248  -1496987.82546         0.00041  21951938.77746  21951938.31848
 -14717279.28849 -11468001.24647         0.00041  21346658.98647  21346659.37449
 -11572431.75508  -9017472.93708  21947849.74708  21947851.10408         0.00001
  -6545126.69009  -5100094.67008  20453383.87409  20453384.49608         0.00001
 94 02 25 02 39 30.0000000  0  7 02 05 07 09 12 13 24
   2433879.65548   1896538.86646         0.00041  22558624.29146  22558626.31848
    -80438.24348    -62678.39545         0.00041  23784094.60545  23784095.82148
  -1853767.21448  -1444483.00946         0.00041  21964760.88046  21964761.07948
 -14763286.68849 -11503851.14747         0.00041  21337904.12547  21337904.84949
 -11646159.21908  -9074922.88908  21933819.86208  21933821.09608         0.00001
  -6537246.06809  -5093953.90908  20454883.42209  20454884.06608         0.00001
        -0.51458         0.11254         0.00051  22452679.59954  22452675.60458
 94 02 25 02 40 00.0000000  0  7 02 05 07 09 12 13 24
   2494555.00148   1943818.33745         0.00041  22570171.16845  22570171.79948
   -160886.69648   -125365.45545         0.00041  23768783.93945  23768786.20548
  -1786296.10248  -1391908.10947         0.00041  21977600.68847  21977600.31248
 -14808828.18449 -11539338.01147         0.00041  21329238.28847  21329238.57149
 -11719620.19508  -9132165.18808  21919841.05808  21919841.86508         0.00001
  -6528891.70609  -5087444.00208  20456473.25809  20456473.73808         0.00001
    -95204.12848    -74184.68544         0.00041  22434550.65844  22434557.58448
 94 02 25 02 40 30.0000000  0  7 02 05 07 09 12 13 24
   2555413.86548   1991240.83545         0.00041  22581750.69845  22581753.85448
   -241346.54948   -188061.36645         0.00041  23753472.49645  23753475.32748
  -1718722.50048  -1339253.34147         0.00041  21990459.71747  21990459.22048
 -14853900.91949 -11574459.60747         0.00041  21320661.06347  21320661.48549
 -11792815.91008  -9189200.77608  21905912.84908  21905913.31808         0.00001
  -6520069.11609  -5080569.24908  20458152.23209  20458152.52808         0.00001
   -190174.14248   -148187.04044         0.00041  22416486.04544  22416485.33548
 94 02 25 02 41 00.0000000  0  7 02 05 07 09 12 13 24
   2616471.55348   2038818.22445         0.00041  22593370.99545  22593373.52048
   -321806.12448   -250757.04245         0.00041  23738165.34045  23738165.35948
  -1651016.92449  -1286495.74147         0.00041  22003344.43547  22003343.69349
 -14898485.76949 -11609201.04147         0.00041  21312177.32847  21312177.45249
 -11865728.47908  -9246015.72408  21892038.30508  21892038.58708         0.00001
  -6510764.50009  -5073318.89408  20459922.85609  20459923.03608         0.00001
   -284882.14248   -221985.40844         0.00041  22398465.14244  22398463.07448
 94 02 25 02 41 30.0000000  0  7 02 05 07 09 12 13 24
   2677761.98448   2086577.00045         0.00041  22605033.84145  22605036.26348
   -402245.56048   -313437.01345         0.00041  23722859.10445  23722858.78248
  -1583132.26348  -1233598.60146         0.00041  22016261.12046  22016261.22648
 -14942537.26549 -11643526.87447         0.00041  21303794.74547  21303794.79749
 -11938326.22408  -9302585.35908  21878223.46008  21878223.75408         0.00001
  -6500950.59709  -5065671.69508  20461790.35709  20461790.54908         0.00001
   -379292.47348   -295551.87244         0.00041  22380499.54544  22380497.72748
 94 02 25 02 42 00.0000000  0  7 02 05 07 09 12 13 24
   2739273.52648   2134508.03645         0.00041  22616740.49845  22616742.52648
   -482691.88948   -376122.35245         0.00041  23707548.39745  23707549.32048
  -1515080.94948  -1180571.60446         0.00041  22029209.59646  22029210.04148
 -14986078.84049 -11677455.37147         0.00041  21295508.59547  21295509.19249
 -12010630.95808  -9358926.68108  21864464.16808  21864464.62808         0.00001
  -6490653.34809  -5057647.86308  20463749.83209  20463750.07608         0.00001
   -473437.94948   -368911.92044         0.00041  22362581.46044  22362583.09248
 94 02 25 02 42 30.0000000  0  7 02 05 07 09 12 13 24
   2801023.55648   2182624.97045         0.00041  22628492.47445  22628493.31348
   -563155.70548   -438821.36945         0.00041  23692236.50045  23692237.30748
  -1446865.90148  -1127417.01446         0.00041  22042191.05946  22042190.76448
 -15029114.08749 -11710989.32347         0.00041  21287319.16147  21287319.58949
 -12082640.65408  -9415038.10908  21850760.79708  21850761.52408         0.00001
  -6479875.15809  -5049249.27008  20465800.83509  20465801.17508         0.00001
   -567316.69548   -442064.20644         0.00041  22344720.06844  22344718.81048
 94 02 25 02 43 00.0000000  0  7 02 05 07 09 12 13 24
   2863034.98848   2230945.54545         0.00041  22640295.35445  22640292.99848
   -643650.90048   -501544.84445         0.00041  23676918.75245  23676919.83548
  -1378503.92248  -1074147.93146         0.00041  22055200.30446  22055199.85648
 -15071649.33949 -11744133.66447         0.00041  21279224.68947  21279225.48649
 -12154352.12508  -9470917.16008  21837114.20008  21837115.19708         0.00001
  -6468617.00809  -5040476.67508  20467943.06409  20467943.66108         0.00001
   -660915.48848   -514998.27245         0.00041  22326909.48045  22326905.97548
 94 02 25 02 43 30.0000000  0  7 02 05 07 09 12 13 24
   2925328.92048   2279486.22045         0.00041  22652148.18345  22652149.14748
   -724164.70548   -564282.79345         0.00041  23661596.97945  23661598.79048
  -1310000.38448  -1020768.53746         0.00041  22068236.49546  22068235.96148
 -15113671.55749 -11776878.22747         0.00041  21271228.06547  21271228.95949
 -12225752.07808  -9526553.47008  21823527.15308  21823528.18008         0.00001
  -6456869.73909  -5031322.94308  20470178.50309  20470179.19608         0.00001
   -754226.59148   -587708.17744         0.00041  22309151.21144  22309148.94448
 94 02 25 02 44 00.0000000  0  7 02 05 07 09 12 13 24
   2987908.78548   2328249.71345         0.00041  22664053.29945  22664053.86448
   -804692.11948   -627031.32745         0.00041  23646270.89045  23646276.49348
  -1241387.43348   -967303.89746         0.00041  22081292.96246  22081293.03148
 -15155192.15649 -11809231.91348         0.00041  21263326.77848  21263328.13749
 -12296843.36108  -9581949.25508  21809998.99908  21809999.90408         0.00001
  -6444641.00108  -5021794.03508  20472505.54408  20472506.31908         0.00001
   -847247.50948   -660191.98944         0.00041  22291447.85144  22291447.93248
 94 02 25 02 44 30.0000000  0  7 02 05 07 09 12 13 24
   3050749.48348   2377216.46645         0.00041  22676014.18845  22676010.89048
   -885248.96548   -689802.83145         0.00041  23630944.73645  23630948.02948
  -1172705.05948   -913785.15946         0.00041  22094362.91346  22094362.57348
 -15196228.57549 -11841208.31948         0.00041  21255518.21848  21255519.58949
 -12367637.81008  -9637113.74408  21796527.28708  21796528.08408         0.00001
  -6431946.61408  -5011902.28308  20474921.22008  20474922.06408         0.00001
   -939981.64548   -732452.32644         0.00041  22273801.93244  22273803.06448
 94 02 25 02 45 00.0000000  0  7 02 05 07 09 12 13 24
   3113842.75448   2426380.01345         0.00041  22688021.57845  22688021.46948
   -965821.57748   -752586.62546         0.00041  23615611.60746  23615615.07748
  -1103947.72448   -860208.01246         0.00041  22107447.08846  22107446.56848
 -15236764.66349 -11872794.86548         0.00041  21247804.63248  21247805.51349
 -12438127.24108  -9692040.55908  21783113.43508  21783114.24108         0.00001
  -6418782.80209  -5001644.74808  20477426.22309  20477427.01508         0.00001
  -1032427.97048   -804488.37944         0.00041  22256208.06744  22256211.05648
 94 02 25 02 45 30.0000000  0  7 02 05 07 09 12 13 24
   3177207.66548   2475755.28845         0.00041  22700078.72745  22700080.24748
  -1046350.19848   -815336.13046         0.00041  23600289.60646  23600291.28548
  -1035063.74848   -806532.17546         0.00041  22120555.34146  22120554.97448
 -15276762.13349 -11903961.71247         0.00041  21240192.90047  21240193.93649
 -12508276.75008  -9746702.50008  21769764.39808  21769765.17708         0.00001
  -6405119.14509  -4990997.72608  20480026.32009  20480026.99208         0.00001
  -1124571.49247   -876288.53344         0.00041  22238674.43244  22238675.38847
 94 02 25 02 46 00.0000000  0  7 02 05 07 09 12 13 24
   3240808.49448   2525314.35545         0.00041  22712179.88145  22712182.27148
  -1126848.37048   -878061.95046         0.00041  23584971.96546  23584971.90748
   -966076.67848   -752776.00846         0.00041  22133683.58446  22133682.75748
 -15316241.50149 -11934724.84947         0.00041  21232680.26647  21232681.18649
 -12578105.26808  -9801114.31208  21756476.58408  21756477.31508         0.00001
  -6390978.74909  -4979979.22808  20482717.23209  20482717.70808         0.00001
  -1216441.73947   -947875.72444         0.00041  22221198.03244  22221193.11547
 94 02 25 02 46 30.0000000  0  7 02 05 07 09 12 13 24
   3304631.67448   2575046.71545         0.00041  22724326.67645  22724326.32448
  -1207321.18348   -940767.96945         0.00041  23569658.99745  23569656.44048
   -896978.88448   -698933.57346         0.00041  22146832.21946  22146831.60848
 -15355199.53949 -11965081.76247         0.00041  21225266.81047  21225267.57549
 -12647618.35308  -9855280.32708  21743248.69408  21743249.46908         0.00001
  -6376371.69909  -4968597.11308  20485496.96109  20485497.24208         0.00001
  -1308057.01247  -1019264.22344         0.00041  22203761.01644  22203759.26847
 94 02 25 02 47 00.0000000  0  7 02 05 07 09 12 13 24
   3368687.54348   2624960.35645         0.00041  22736515.62645  22736514.73648
  -1287758.28747  -1003446.21045         0.00041  23554352.40745  23554347.80047
   -827748.77648   -644988.03046         0.00041  22160006.06646  22160005.52148
 -15393628.92249 -11995026.72647         0.00041  21217954.01747  21217954.43649
 -12716805.69508  -9909192.51208  21730082.77808  21730083.74708         0.00001
  -6361292.13009  -4956846.80508  20488366.51509  20488366.78708         0.00001
  -1399409.82547  -1090448.28944         0.00041  22186381.85844  22186375.60847
 94 02 25 02 47 30.0000000  0  7 02 05 07 09 12 13 24
   3432967.61748   2675048.74445         0.00041  22748750.13945  22748746.50548
  -1368187.23147  -1066118.13545         0.00041  23539045.58645  23539039.36847
   -758413.07148   -590960.22146         0.00041  22173198.98246  22173199.38048
 -15431552.59949 -12024577.63348         0.00041  21210737.27848  21210737.51549
 -12785675.26008  -9962857.08308  21716977.17508  21716978.47108         0.00001
  -6345752.54109  -4944738.03208  20491323.38809  20491323.86608         0.00001
  -1490501.63048  -1161428.90445         0.00041  22169042.13445  22169041.20348
 94 02 25 02 48 00.0000000  0  7 02 05 07 09 12 13 24
   3497485.44848   2725322.34845         0.00041  22761024.11845  22761026.35948
  -1448620.74847  -1128793.56445         0.00041  23523736.87445  23523733.19347
   -688960.77048   -536841.56046         0.00041  22186414.51146  22186416.30448
 -15468948.94649 -12053717.64047         0.00041  21203621.21747  21203621.30649
 -12854210.77108 -10016261.36408  21703935.06708  21703936.70408         0.00001
  -6329740.83208  -4932261.36308  20494370.07308  20494370.81208         0.00001
  -1581303.60748  -1232183.69545         0.00041  22151761.98045  22151760.71748
 94 02 25 02 48 30.0000000  0  7 02 05 07 09 12 13 24
   3562243.15648   2775782.91045         0.00041  22773349.42645  22773350.66848
  -1529089.69048  -1191496.62545         0.00041  23508427.16845  23508423.26448
   -619391.64548   -482631.86346         0.00041  22199652.77846  22199654.92648
 -15505832.85849 -12082458.35147         0.00041  21196601.98447  21196602.44349
 -12922420.70708 -10069411.95508  21690955.05908  21690956.79708         0.00001
  -6313270.11509  -4919427.02608  20497504.48009  20497505.08808         0.00001
  -1671813.32448  -1302710.72845         0.00041  22134536.88645  22134536.96548
 94 02 25 02 49 00.0000000  0  7 02 05 07 09 12 13 24
   3627249.54848   2826437.22444         0.00041  22785722.16244  22785720.55948
  -1609594.32448  -1254227.46945         0.00041  23493106.60545  23493103.48748
   -549706.86048   -428332.04446         0.00041  22212913.88846  22212914.79748
 -15542209.19149 -12110803.55047         0.00041  21189679.72947  21189680.15249
 -12990294.10908 -10122300.31108  21678039.38108  21678040.96808         0.00001
  -6296333.57909  -4906229.72508  20500727.67909  20500728.00808         0.00001
  -1762012.04948  -1372995.41945         0.00041  22117376.06445  22117373.82048
 94 02 25 02 49 30.0000000  0  7 02 05 07 09 12 13 24
   3692520.14848   2877297.41544         0.00041  22798136.28444  22798137.99548
  -1690104.22848  -1316962.41746         0.00041  23477786.27746  23477784.40848
   -479887.25148   -373927.15046         0.00041  22226201.12446  22226200.59348
 -15578041.91249 -12138725.15147         0.00041  21182861.21747  21182861.55349
 -13057807.17908 -10174907.88608  21665192.41208  21665193.46408         0.00001
  -6278912.23909  -4892654.65508  20504042.88309  20504043.22308         0.00001
  -1851876.49048  -1443019.65045         0.00041  22100275.22645  22100273.75848
 94 02 25 02 50 00.0000000  0  7 02 05 07 09 12 13 24
   3758037.21547   2928349.70844         0.00041  22810602.33944  22810603.68347
  -1770603.10548  -1379688.76446         0.00041  23462466.84046  23462466.27648
   -409940.74748   -319423.36446         0.00041  22239512.83446  22239511.52748
 -15613336.52649 -12166227.43048         0.00041  21176144.90948  21176145.38049
 -13124968.45408 -10227241.33308  21652412.18108  21652412.86408         0.00001
  -6261018.90009  -4878711.79208  20507447.61309  20507448.22608         0.00001
  -1941415.23948  -1512790.09345         0.00041  22083235.05845  22083234.38848
 94 02 25 02 50 30.0000000  0  7 02 05 07 09 12 13 24
   3823790.26648   2979585.86244         0.00041  22823115.00944  22823122.29048
  -1851082.47648  -1442399.91846         0.00041  23447151.77246  23447152.63048
   -339898.60648   -264845.06146         0.00041  22252841.77046  22252840.64048
 -15648111.64349 -12193324.90748         0.00041  21169527.55048  21169528.27749
 -13191785.67208 -10279306.67808  21639697.12608  21639697.76808         0.00001
  -6242666.16508  -4864410.94608  20510939.75808  20510940.59408         0.00001
  -2030625.51948  -1582304.54246         0.00041  22066257.62846  22066257.96748
 94 02 25 02 51 00.0000000  0  7 02 05 07 09 12 13 24
   3889773.47648   3031001.23244         0.00041  22835676.93244  22835682.75948
  -1931524.18348  -1505081.71446         0.00041  23431844.20346  23431845.40948
   -269765.66348   -210196.00446         0.00041  22266186.96046  22266186.77448
 -15682346.80649 -12220001.64148         0.00041  21163012.90848  21163013.60149
 -13258250.76608 -10331097.63608  21627049.07508  21627049.77008         0.00001
  -6223850.07608  -4849749.03808  20514520.33008  20514521.08208         0.00001
  -2119493.34748  -1651552.18446         0.00041  22049348.37146  22049347.57848
 94 02 25 02 51 30.0000000  0  7 02 05 07 09 12 13 24
   3955986.02048   3082595.47244         0.00041  22848282.43744  22848282.48848
  -2011925.62548  -1567732.13446         0.00041  23416542.53646  23416544.84548
   -199536.40048   -155471.90346         0.00041  22279550.52046  22279550.94648
 -15716028.59749 -12246247.18148         0.00041  21156603.88948  21156604.40749
 -13324359.38308 -10382610.82308  21614468.85108  21614469.67308         0.00001
  -6204570.70808  -4834726.13508  20518189.22808  20518189.76508         0.00001
  -2208014.43748  -1720529.62245         0.00041  22032501.91345  22032502.59048
 94 02 25 02 52 00.0000000  0  7 02 05 07 09 12 13 24
   4022440.91148   3134378.46544         0.00041  22860921.93844  22860926.55748
  -2092318.49848  -1630375.87846         0.00041  23401245.63446  23401246.09348
   -129226.20448   -100684.73746         0.00041  22292928.50846  22292929.89348
 -15749175.14349 -12272075.65848         0.00041  21150296.22648  21150296.30149
 -13390123.02908 -10433855.20708  21601954.27608  21601955.18808         0.00001
  -6184844.37809  -4819354.96108  20521943.29809  20521943.56108         0.00001
  -2296201.50548  -1789246.76045         0.00041  22015719.50645  22015721.25448
 94 02 25 02 52 30.0000000  0  6 05 07 09 12 13 24
  -2172704.19448  -1693014.02846         0.00041  23385947.51746  23385949.70548
    -58811.35648    -45816.03746         0.00041  22306328.50446  22306329.82348
 -15781757.34649 -12297464.39548         0.00041  21144096.02448  21144095.78649
 -13455524.63508 -10484817.48008  21589508.68408  21589509.64408         0.00001
  -6164658.50409  -4803625.70208  20525784.78409  20525784.83808         0.00001
  -2384039.16548  -1857691.64945         0.00041  21999005.93545  21999005.91348
 94 02 25 02 53 00.0000000  0  6 05 07 09 12 13 24
  -2253126.89348  -1755681.02146         0.00041  23370643.68646  23370645.72448
     11683.42148      9114.94646         0.00041  22319743.07546  22319743.87248
 -15813807.80649 -12322438.78748         0.00041  21137996.78648  21137996.43649
 -13520601.42508 -10535526.65008  21577125.28308  21577126.03308         0.00001
  -6144054.77309  -4787570.84608  20529705.64109  20529705.54908         0.00001
  -2471582.13848  -1925906.92545         0.00041  21982345.78845  21982347.14848
 94 02 25 02 53 30.0000000  0  6 05 07 09 12 13 24
  -2333554.19848  -1818351.58546         0.00041  23355337.04046  23355340.52948
     82271.69848     64118.79046         0.00041  22333176.58446  22333176.56548
 -15845313.19949 -12346988.44748         0.00041  21132001.71848  21132001.25649
 -13585329.66908 -10585964.22608  21564808.09208  21564808.67608         0.00001
  -6123014.04409  -4771175.47108  20533709.44009  20533709.36908         0.00001
  -2558816.44048  -1993881.65545         0.00041  21965745.96745  21965746.65048
 94 02 25 02 54 00.0000000  0  6 05 07 09 12 13 24
  -2413943.60948  -1880992.61646         0.00041  23340038.38846  23340041.92448
    152977.75248    119214.41546         0.00041  22346631.36246  22346631.40248
 -15876249.76549 -12371094.86348         0.00041  21126114.63448  21126114.35649
 -13649676.88308 -10636104.90008  21552563.31208  21552563.81208         0.00001
  -6101508.35009  -4754417.78208  20537801.58009  20537801.66208         0.00001
  -2645701.14648  -2061583.94945         0.00041  21949211.80445  21949212.82748
 94 02 25 02 54 30.0000000  0  6 05 07 09 12 13 24
  -2494274.87348  -1943588.36246         0.00041  23324752.84346  23324755.29648
    223805.46148    174404.82746         0.00041  22360109.61946  22360110.19948
 -15906624.17249 -12394763.22748         0.00041  21120334.44148  21120334.35449
 -13713636.75908 -10685943.75708  21540392.26608  21540392.68608         0.00001
  -6079536.03309  -4737296.49008  20541982.61309  20541982.84908         0.00001
  -2732220.64048  -2129001.70645         0.00041  21932748.80345  21932749.26348
 94 02 25 02 55 00.0000000  0  6 05 07 09 12 13 24
  -2574567.64248  -2006154.13346         0.00041  23309473.99146  23309475.66748
    294721.67748    229664.21646         0.00041  22373604.56446  22373605.16848
 -15936478.25949 -12418026.13948         0.00041  21114653.37348  21114653.57049
 -13777230.77008 -10735497.52608  21528290.86808  21528291.17908         0.00001
  -6057122.90509  -4719831.71008  20546247.80709  20546248.00108         0.00001
  -2818401.97148  -2196155.94045         0.00041  21916347.29445  21916349.38048
 94 02 25 02 55 30.0000000  0  6 05 07 09 12 13 24
  -2654823.54048  -2068691.14646         0.00041  23294202.73946  23294202.66548
    365714.54748    284983.34546         0.00041  22387115.26346  22387114.07348
 -15965815.35249 -12440886.19248         0.00041  21109070.92548  21109071.26249
 -13840464.12908 -10784770.26708  21516258.08408  21516258.31508         0.00001
  -6034278.96109  -4702031.23008  20550594.99909  20550595.13808         0.00001
  -2904244.23148  -2263046.00145         0.00041  21900011.56745  21900013.88248
 94 02 25 02 56 00.0000000  0  6 05 07 09 12 13 24
  -2735046.73948  -2131202.69846         0.00041  23278936.96646  23278936.11048
    436806.29048    340379.51046         0.00041  22400642.98446  22400641.35248
 -15994622.54449 -12463333.33448         0.00041  21103588.80548  21103589.10949
 -13903329.90608 -10833756.57808  21504295.09208  21504295.38908         0.00001
  -6011001.99109  -4683893.32708  20555024.47509  20555024.67608         0.00001
  -2989745.87048  -2329670.61145         0.00041  21883742.44545  21883742.86648
 94 02 25 02 56 30.0000000  0  6 05 07 09 12 13 24
  -2815246.86748  -2193696.26346         0.00041  23263676.39046  23263673.85848
    507990.83048    395848.00046         0.00041  22414188.74346  22414188.55848
 -16022890.69349 -12485360.45047         0.00041  21098209.33547  21098209.56649
 -13965826.04708 -10882454.86408  21492402.33008  21492402.81908         0.00001
  -5987294.41309  -4665419.88608  20559535.90309  20559536.15208         0.00001
  -3074918.37248  -2396038.75645         0.00041  21867538.40045  21867535.29248
 94 02 25 02 57 00.0000000  0  6 05 07 09 12 13 24
  -2895441.77748  -2256185.79246         0.00041  23248415.62646  23248414.36448
    579238.39248    451365.58746         0.00041  22427746.74746  22427747.55648
 -16050615.59149 -12506964.26647         0.00041  21092933.59147  21092933.84349
 -14027969.33208 -10930878.19408  21480576.65308  21480577.38908         0.00001
  -5963177.58609  -4646627.54608  20564125.13009  20564125.42608         0.00001
  -3159778.42448  -2462163.45245         0.00041  21851386.67645  21851387.05348
 94 02 25 02 57 30.0000000  0  6 05 07 09 12 13 24
  -2975621.24648  -2318663.26546         0.00041  23233158.61446  23233157.06848
    650563.06148    506943.25146         0.00041  22441318.83246  22441320.49648
 -16077790.34949 -12528139.40548         0.00041  21087762.43548  21087762.59049
 -14089749.81108 -10979018.81308  21468820.09208  21468821.03608         0.00001
  -5938646.06909  -4627512.07408  20568793.29309  20568793.52808         0.00001
  -3244301.55848  -2528025.62545         0.00041  21835303.90445  21835302.45948
 94 02 25 02 58 00.0000000  0  6 05 07 09 12 13 24
  -3055805.14948  -2381144.20246         0.00041  23217901.24146  23217898.98448
    721949.01248    562568.66246         0.00041  22454903.54646  22454904.80648
 -16104434.44649 -12548901.03848         0.00041  21082692.68648  21082692.80849
 -14151170.35508 -11026878.95508  21457132.19208  21457132.99308         0.00001
  -5913707.41309  -4608079.35408  20573538.84309  20573539.16308         0.00001
  -3328484.92248  -2593623.03645         0.00041  21819283.07445  21819282.55248
 94 02 25 02 58 30.0000000  0  6 05 07 09 12 13 24
  -3135974.56448  -2443613.84546         0.00041  23202643.97346  23202643.04448
    793401.99748    618246.31246         0.00041  22468500.62446  22468500.80848
 -16130539.26949 -12569242.45648         0.00041  21077725.09948  21077725.24149
 -14212208.81508 -11074441.36908  21445517.07808  21445517.63908         0.00001
  -5888344.11509  -4588315.74308  20578365.09509  20578365.58008         0.00001
  -3412298.33648  -2658932.17445         0.00041  21803334.71145  21803333.77748
 94 02 25 02 59 00.0000000  0  6 05 07 09 12 13 24
  -3216138.77448  -2506079.44146         0.00041  23187390.66146  23187388.57748
    864916.82648    673972.15646         0.00041  22482109.09146  22482109.56248
 -16156133.65449 -12589186.13248         0.00041  21072854.86948  21072854.67049
 -14272877.38809 -11121715.56308  21433972.16809  21433972.65508         0.00001
  -5862572.88708  -4568234.25808  20583268.94908  20583269.69808         0.00001
  -3495759.99348  -2723967.21545         0.00041  21787452.15145  21787451.84148
 94 02 25 02 59 30.0000000  0  6 05 07 09 12 13 24
  -3296302.06748  -2568544.34946         0.00041  23172135.77146  23172134.64448
    936510.91848    729759.76646         0.00041  22495733.50046  22495732.97948
 -16181222.21649 -12608735.65848         0.00041  21068080.51448  21068080.49849
 -14333160.25608 -11168689.20808  21422500.65608  21422501.19408         0.00001
  -5836382.53608  -4547826.18308  20588252.72008  20588253.58608         0.00001
  -3578869.51648  -2788727.84045         0.00041  21771637.76945  21771636.51248
 94 02 25 03 00 00.0000000  0  6 05 07 09 12 13 24
  -3376452.53048  -2630999.23146         0.00041  23156883.87146  23156882.02048
   1008189.08848    785612.89346         0.00041  22509373.37246  22509372.90948
 -16205770.52549 -12627864.21648         0.00041  21063409.27548  21063408.83949
 -14393039.15108 -11215348.06808  21411105.99508  21411106.85208         0.00001
  -5809759.35608  -4527080.84108  20593319.00908  20593319.85708         0.00001
  -3661623.56748  -2853211.48745         0.00041  21755888.82545  21755888.99748
 94 02 25 03 00 30.0000000  0  6 05 07 09 12 13 24
  -3456577.13648  -2693433.96646         0.00041  23141636.40846  23141634.15848
   1079967.33148    841544.00446         0.00041  22523032.41446  22523031.90248
 -16229767.15349 -12646562.89148         0.00041  21058842.62648  21058841.94549
 -14452510.78408 -11261689.58408  21399788.80808  21399789.72308         0.00001
  -5782704.92808  -4505999.46708  20598467.39208  20598468.15608         0.00001
  -3744021.05648  -2917417.27345         0.00041  21740210.41345  21740209.17148
 94 02 25 03 01 00.0000000  0  6 05 07 09 12 13 24
  -3536672.99448  -2755846.29746         0.00041  23126394.38646  23126392.09148
   1151849.35148    897555.95146         0.00041  22536711.06146  22536711.68448
 -16253199.55949 -12664821.90847         0.00041  21054383.63547  21054383.03549
 -14511572.86708 -11307711.98608  21388549.58308  21388550.32308         0.00001
  -5755221.48308  -4484583.79808  20603697.36308  20603698.06308         0.00001
  -3826054.54148  -2981339.43745         0.00041  21724601.42845  21724599.54548
 94 02 25 03 01 30.0000000  0  6 05 07 09 12 13 24
  -3616750.28148  -2818244.15646         0.00041  23111156.07746  23111154.14648
   1223826.85748    953642.31146         0.00041  22550407.25546  22550408.55948
 -16276045.99749 -12682624.32447         0.00041  21050035.69747  21050035.69449
 -14570229.13408 -11353418.17508  21377387.58508  21377388.42708         0.00001
  -5727317.39008  -4462840.34508  20609007.31708  20609008.10408         0.00001
  -3907718.24148  -3044973.45946         0.00041  21709061.52146  21709059.99348
 94 02 25 03 02 00.0000000  0  6 05 07 09 12 13 24
  -3696795.26248  -2880616.84146         0.00041  23095922.91646  23095922.44848
   1295907.53548   1009809.05046         0.00041  22564123.41646  22564125.04448
 -16298298.07149 -12699963.59447         0.00041  21045800.88247  21045801.42949
 -14628478.31108 -11398807.13508  21366303.08708  21366304.18208         0.00001
  -5698996.05408  -4440771.76608  20614396.75708  20614397.51208         0.00001
  -3989007.56648  -3108315.76146         0.00041  21693592.22646  21693590.45948
 94 02 25 03 02 30.0000000  0  6 05 07 09 12 13 24
  -3776802.16048  -2942959.83546         0.00041  23080698.12246  23080698.24848
   1368099.19848   1066062.28846         0.00041  22577860.62846  22577862.43248
 -16319956.98849 -12716840.66147         0.00041  21041679.29747  21041680.07749
 -14686316.98508 -11443876.21608  21355296.82608  21355297.91808         0.00001
  -5670258.58108  -4418378.92608  20619865.49708  20619866.10908         0.00001
  -4069913.87848  -3171359.60146         0.00041  21678196.58946  21678194.30248
 94 02 25 03 03 00.0000000  0  6 05 07 09 12 13 24
  -3856787.72748  -3005286.20946         0.00041  23065476.15646  23065477.34548
   1440376.57148   1122382.31146         0.00041  22591615.75846  22591616.50548
 -16341026.34449 -12733258.32747         0.00041  21037670.15047  21037670.85949
 -14743753.88808 -11488632.23408  21344367.17908  21344367.98708         0.00001
  -5641118.37008  -4395672.26308  20625410.74008  20625411.22308         0.00001
  -4150460.87448  -3234123.48646         0.00041  21662867.45646  21662867.20748
 94 02 25 03 03 30.0000000  0  6 05 07 09 12 13 24
  -3936745.50848  -3067590.93046         0.00041  23050260.92746  23050262.30148
   1512727.98948   1178760.02546         0.00041  22605383.02046  22605384.57148
 -16361521.83649 -12749228.82947         0.00041  21033769.79347  21033770.37249
 -14800789.16208 -11533075.30108  21333513.80108  21333514.40008         0.00001
  -5611580.30308  -4372655.57908  20631031.44008  20631031.92308         0.00001
  -4230655.69548  -3296612.96346         0.00041  21647605.49446  21647606.17448
 94 02 25 03 04 00.0000000  0  6 05 07 09 12 13 24
  -4016658.84648  -3129861.02746         0.00041  23035052.18046  23035055.84248
   1585148.83748   1235191.84246         0.00041  22619162.57646  22619165.85648
 -16381466.68849 -12764770.26748         0.00041  21029974.44748  21029974.79449
 -14857414.92608 -11577199.27008  21322738.24308  21322738.76308         0.00001
  -5581640.97108  -4349326.22608  20636728.64408  20636729.04308         0.00001
  -4310484.94748  -3358817.56646         0.00041  21632413.62446  21632413.95948
 94 02 25 03 04 30.0000000  0  7 02 05 07 09 12 13 24
        -1.20358        -1.19454         0.00051  23192320.26354  23192319.74258
  -4096481.45948  -3192060.42446         0.00041  23019863.14646  23019866.47748
   1657660.95648   1291694.76746         0.00041  22632962.71446  22632964.10248
 -16400824.49449 -12779854.27148         0.00041  21026290.83548  21026291.12049
 -14913588.66208 -11620971.00408  21312048.73808  21312049.06608         0.00001
  -5551262.66608  -4325654.82208  20642509.53508  20642509.79908         0.00001
  -4389895.22948  -3420695.70846         0.00041  21617303.59846  21617303.00948
 94 02 25 03 05 00.0000000  0  7 02 05 07 09 12 13 24
     72852.32048     56767.72044         0.00041  23206182.90444  23206184.95848
  -4176237.32548  -3254207.81346         0.00041  23004686.05946  23004689.23448
   1730218.19948   1348232.85446         0.00041  22646771.18846  22646770.95448
 -16419646.44749 -12794520.72848         0.00041  21022709.10948  21022709.31549
 -14969347.40208 -11664419.35908  21301438.16508  21301438.36808         0.00001
  -5520486.81008  -4301673.64008  20648365.97408  20648366.34608         0.00001
  -4468925.70148  -3482277.86246         0.00041  21602264.48746  21602264.24448
 94 02 25 03 05 30.0000000  0  7 02 05 07 09 12 13 24
    145965.17348    113738.78044         0.00041  23220090.64444  23220097.05248
  -4255908.30948  -3316289.06646         0.00041  22989525.68846  22989528.03048
   1802830.30148   1404813.72146         0.00041  22660589.54446  22660588.32348
 -16437930.71649 -12808768.21548         0.00041  21019229.64948  21019230.11949
 -15024676.26608 -11707532.74208  21290909.38208  21290909.58908         0.00001
  -5489303.78808  -4277375.17408  20654299.81008  20654300.38008         0.00001
  -4547548.27248  -3543542.18846         0.00041  21587303.59446  21587303.32948
 94 02 25 03 06 00.0000000  0  7 02 05 07 09 12 13 24
    219317.66848    170896.58144         0.00041  23234052.53744  23234053.43148
  -4335519.78648  -3378323.93146         0.00041  22974376.67746  22974378.14548
   1875486.16148   1461428.69546         0.00041  22674415.74746  22674414.41248
 -16455678.98349 -12822598.04448         0.00041  21015852.71148  21015853.11649
 -15079589.18608 -11750322.01908  21280459.83408  21280460.10808         0.00001
  -5457731.56209  -4252773.42208  20660307.84109  20660308.33908         0.00001
  -4625772.59348  -3604496.17946         0.00041  21572417.43346  21572417.13448
 94 02 25 03 06 30.0000000  0  7 02 05 07 09 12 13 24
    292892.94248    228227.92544         0.00041  23248054.12744  23248052.84348
  -4415096.61248  -3440331.81846         0.00041  22959233.27146  22959234.56048
   1948169.94348   1518065.42146         0.00041  22688247.54446  22688246.39748
 -16472885.90749 -12836006.05048         0.00041  21012578.24948  21012578.15449
 -15134101.98209 -11792799.51708  21270086.48509  21270086.89208         0.00001
  -5425790.52809  -4227884.29408  20666386.20209  20666386.41408         0.00001
  -4703626.79248  -3665161.76046         0.00041  21557603.19846  21557602.78348
 94 02 25 03 07 00.0000000  0  7 02 05 07 09 12 13 24
    366683.04848    285726.64744         0.00041  23262083.08144  23262093.87148
  -4494655.00648  -3502325.33146         0.00041  22944095.07346  22944094.11748
   2020890.52748   1574730.81646         0.00041  22702085.54946  22702083.89148
 -16489548.90249 -12848990.20448         0.00041  21009407.43948  21009407.14549
 -15188212.30709 -11834963.39808  21259789.74409  21259790.22608         0.00001
  -5393483.26409  -4202709.80208  20672534.25409  20672534.22508         0.00001
  -4781118.90748  -3725545.20946         0.00041  21542857.21546  21542856.96048
 94 02 25 03 07 30.0000000  0  7 02 05 07 09 12 13 24
    440672.00748    343380.35044         0.00041  23276166.80544  23276175.18948
  -4574221.04148  -3564324.82446         0.00041  22928954.41846  22928952.11348
   2093642.75748   1631420.86946         0.00041  22715927.74946  22715927.40048
 -16505655.57949 -12861540.86248         0.00041  21006342.23748  21006342.23049
 -15241914.95609 -11876809.60608  21249570.53009  21249571.02408         0.00001
  -5360809.00409  -4177249.34108  20678751.97909  20678751.95008         0.00001
  -4858234.20148  -3785635.02646         0.00041  21528181.94946  21528182.26748
 94 02 25 03 08 00.0000000  0  7 02 05 07 09 12 13 24
    514867.99048    401195.32244         0.00041  23290289.60644  23290294.66948
  -4653786.97048  -3626324.23346         0.00041  22913813.82446  22913809.96448
   2166439.64148   1688145.70746         0.00041  22729780.16046  22729780.13048
 -16521187.97449 -12873644.01448         0.00041  21003386.26448  21003386.55349
 -15295198.55309 -11918329.28208  21239431.02109  21239431.36708         0.00001
  -5327761.40709  -4151497.96008  20685040.75809  20685040.86408         0.00001
  -4934972.02748  -3845430.70946         0.00041  21513578.28346  21513579.43048
 94 02 25 03 08 30.0000000  0  7 02 05 07 09 12 13 24
    589301.86348    459195.67744         0.00041  23304454.09644  23304458.96148
  -4733319.25548  -3688297.43646         0.00041  22898679.97946  22898675.93748
   2239300.53348   1744920.42446         0.00041  22743645.26846  22743646.04148
 -16536122.41649 -12885281.23348         0.00041  21000544.40248  21000545.09449
 -15348032.33309 -11959498.45108  21229376.95309  21229377.35408         0.00001
  -5294313.96609  -4125435.00908  20691405.59509  20691405.66208         0.00001
  -5011302.69348  -3904909.13346         0.00041  21499053.30146  21499054.67648
 94 02 25 03 09 00.0000000  0  7 02 05 07 09 12 13 24
    663977.60448    517384.55545         0.00041  23318669.53545  23318670.27648
  -4812805.62548  -3750234.84846         0.00041  22883552.65246  22883551.09248
   2312225.83148   1801745.31946         0.00041  22757521.91446  22757524.44048
 -16550461.20649 -12896454.31047         0.00041  20997816.26947  20997816.95949
 -15400412.43008 -12000314.10408  21219409.06308  21219409.82508         0.00001
  -5260467.61309  -4099061.22108  20697846.28509  20697846.21608         0.00001
  -5087211.32948  -3964058.70146         0.00041  21484607.90846  21484609.03848
 94 02 25 03 09 30.0000000  0  7 02 05 07 09 12 13 24
    738915.54348    575777.70945         0.00041  23332934.81245  23332931.76448
  -4892219.40348  -3812115.69846         0.00041  22868441.19746  22868440.28048
   2385231.06848   1858632.50446         0.00041  22771414.02646  22771416.33748
 -16564182.65049 -12907146.34347         0.00041  20995204.87847  20995205.44949
 -15452331.01008 -12040770.13508  21209529.16908  21209530.18108         0.00001
  -5226218.92209  -4072373.93208  20704363.45509  20704363.36608         0.00001
  -5162681.19048  -4022866.35946         0.00041  21470246.69146  21470247.14948
 94 02 25 03 10 00.0000000  0  7 02 05 07 09 12 13 24
    814112.90648    634373.05545         0.00041  23347244.10445  23347241.15348
  -4971552.91448  -3873933.98246         0.00041  22853344.31246  22853344.22348
   2458324.77248   1915588.62446         0.00041  22785323.36646  22785325.34348
 -16577293.14149 -12917362.30847         0.00041  20992709.46247  20992710.55149
 -15503803.66308 -12080878.69408  21199734.34308  21199735.30408         0.00001
  -5191588.16108  -4045388.92108  20710953.26908  20710953.44208         0.00001
  -5237726.86148  -4081343.48146         0.00041  21455965.98846  21455966.80348
 94 02 25 03 10 30.0000000  0  7 02 05 07 09 12 13 24
    889571.31248    693171.77845         0.00041  23361598.18645  23361599.43148
  -5050801.89148  -3935686.39646         0.00041  22838263.46146  22838264.08248
   2531520.52548   1972624.27246         0.00041  22799251.52146  22799253.97348
 -16589786.00949 -12927097.01148         0.00041  20990332.83748  20990333.41649
 -15554823.75908 -12120634.60508  21190025.54908  21190026.37708         0.00001
  -5156573.45408  -4018104.72608  20717616.23108  20717616.63108         0.00001
  -5312323.38448  -4139470.61646         0.00041  21441771.48746  21441772.20248
 94 02 25 03 11 00.0000000  0  7 02 05 07 09 12 13 24
    965250.50148    752142.58745         0.00041  23375996.46945  23375999.55348
  -5130014.76848  -3997410.67446         0.00041  22823188.78446  22823190.32748
   2604791.65648   2029718.66346         0.00041  22813195.82746  22813197.25148
 -16601700.01249 -12936380.65348         0.00041  20988065.57648  20988066.46249
 -15605433.53108 -12160070.78008  21180394.75008  21180395.47408         0.00001
  -5121221.55109  -3990557.78108  20724343.56409  20724344.01908         0.00001
  -5386517.15148  -4197283.92946         0.00041  21427653.52546  21427653.77348
 94 02 25 03 11 30.0000000  0  7 02 05 07 09 12 13 24
   1041134.76248    811273.17745         0.00041  23390439.86245  23390438.89548
  -5209218.53548  -4059127.85746         0.00041  22808115.82746  22808118.36648
   2678136.19648   2086870.25146         0.00041  22827153.42446  22827153.72848
 -16613060.28149 -12945232.81148         0.00041  20985903.97348  20985904.68049
 -15655638.01308 -12199191.14608  21170840.97208  21170841.78808         0.00001
  -5085541.98209  -3962755.51508  20731133.37609  20731133.63508         0.00001
  -5460319.14548  -4254791.96146         0.00041  21413609.32246  21413609.58348
 94 02 25 03 12 00.0000000  0  7 02 05 07 09 12 13 24
   1117242.88848    870578.23345         0.00041  23404920.12545  23404922.59548
  -5288399.99048  -4120827.66246         0.00041  22793048.42046  22793050.35748
   2751557.38548   2144081.58046         0.00041  22841125.33246  22841125.04148
 -16623875.85649 -12953660.53248         0.00041  20983845.98748  20983846.57949
 -15705411.45808 -12237975.64008  21161369.32008  21161370.11608         0.00001
  -5049513.82309  -3934681.62708  20737989.38509  20737989.50908         0.00001
  -5533710.38048  -4311979.91746         0.00041  21399643.47246  21399643.31248
 94 02 25 03 12 30.0000000  0  7 02 05 07 09 12 13 24
   1193581.02048    930062.48445         0.00041  23419450.21445  23419451.09348
  -5367558.09148  -4182509.26346         0.00041  22777985.29446  22777986.75448
   2825033.73448   2201335.90346         0.00041  22855109.02246  22855107.52748
 -16634161.47449 -12961675.30448         0.00041  20981888.77048  20981889.11749
 -15754741.76808 -12276414.83408  21151982.11608  21151982.91208         0.00001
  -5013129.43109  -3906330.15608  20744912.92909  20744913.28208         0.00001
  -5606694.17448  -4368850.39546         0.00041  21385754.40746  21385754.56848
 94 02 25 03 13 00.0000000  0  7 02 05 07 09 12 13 24
   1270166.60948    989739.56845         0.00041  23434025.26045  23434024.80248
  -5446665.79148  -4244151.60046         0.00041  22762931.94646  22762932.33148
   2898565.10848   2258633.08146         0.00041  22869100.86746  22869099.66448
 -16643913.10049 -12969273.97448         0.00041  20980033.65848  20980033.45449
 -15803606.52908 -12314491.26008  21142683.69208  21142684.36108         0.00001
  -4976371.21108  -3877687.38408  20751907.52708  20751908.27608         0.00001
  -5679257.11548  -4425392.93246         0.00041  21371946.42546  21371945.81548
 94 02 25 03 13 30.0000000  0  7 02 05 07 09 12 13 24
   1347005.72648   1049614.15545         0.00041  23448649.43245  23448645.27448
  -5525701.22348  -4305737.61246         0.00041  22747893.12846  22747891.79248
   2972137.17648   2315961.96546         0.00041  22883100.67046  22883100.53748
 -16653127.20549 -12976453.79448         0.00041  20978279.88248  20978279.74249
 -15851994.15309 -12352195.88608  21133475.93709  21133476.62208         0.00001
  -4939231.66208  -3848747.46708  20758974.97408  20758975.83108         0.00001
  -5751385.86048  -4481597.13046         0.00041  21358220.56946  21358220.27348
 94 02 25 03 14 00.0000000  0  7 02 05 07 09 12 13 24
   1424122.64848   1109705.28144         0.00041  23463324.38144  23463319.34648
  -5604631.03948  -4367241.33246         0.00041  22732872.81146  22732871.89548
   3045746.85048   2373320.14546         0.00041  22897107.85046  22897108.40048
 -16661771.90849 -12983189.93648         0.00041  20976634.94248  20976634.53649
 -15899888.31409 -12389515.99608  21124362.08609  21124362.71308         0.00001
  -4901699.38609  -3819501.53008  20766117.29009  20766117.97508         0.00001
  -5823076.40448  -4537459.87046         0.00041  21344578.53346  21344578.06548
 94 02 25 03 14 30.0000000  0  7 02 05 07 09 12 13 24
   1501503.89248   1170002.25844         0.00041  23478049.23644  23478045.17848
  -5683462.75748  -4428668.62146         0.00041  22717871.29146  22717870.08348
   3119386.74748   2430701.89646         0.00041  22911120.38246  22911122.27348
 -16669832.65449 -12989471.04848         0.00041  20975100.93048  20975100.57049
 -15947297.04009 -12426457.84908  21115340.43309  21115341.13708         0.00001
  -4863786.97208  -3789959.38708  20773331.79908  20773332.41508         0.00001
  -5894337.17348  -4592987.71646         0.00041  21331018.20246  21331017.40948
 94 02 25 03 15 00.0000000  0  7 02 05 07 09 12 13 24
   1579137.11348   1230495.69644         0.00041  23492819.00644  23492819.86648
  -5762199.49148  -4490021.89746         0.00041  22702888.68146  22702886.36448
   3193058.91148   2488108.77646         0.00041  22925139.16946  22925141.23148
 -16677301.97349 -12995291.30448         0.00041  20973679.46448  20973679.23249
 -15994230.35008 -12463029.25408  21106409.12208  21106410.01608         0.00001
  -4825508.79408  -3760132.23208  20780615.69508  20780616.43908         0.00001
  -5965171.00948  -4648182.88146         0.00041  21317538.76346  21317538.24448
 94 02 25 03 15 30.0000000  0  7 02 05 07 09 12 13 24
   1657002.56248   1291170.11144         0.00041  23507637.85844  23507637.62448
  -5840873.94548  -4551326.64346         0.00041  22687917.59846  22687915.21448
   3266751.67748   2545531.68846         0.00041  22939162.76346  22939163.65148
 -16684191.68749 -13000659.91348         0.00041  20972368.40948  20972368.65349
 -16040711.84808 -12499248.60308  21097563.67008  21097564.92908         0.00001
  -4786893.19108  -3730042.14508  20787963.91508  20787964.77308         0.00001
  -6035611.30048  -4703071.39546         0.00041  21304134.02846  21304134.14948
 94 02 25 03 16 00.0000000  0  7 02 05 07 09 12 13 24
   1735086.07348   1352014.29244         0.00041  23522496.19544  23522496.38648
  -5919497.00348  -4612591.34746         0.00041  22672956.09146  22672953.83148
   3340479.11748   2602981.65146         0.00041  22953191.10146  22953191.18948
 -16690501.43949 -13005576.60148         0.00041  20971167.49348  20971168.15749
 -16086740.46608 -12535115.06108  21088804.50608  21088806.00508         0.00001
  -4747943.52808  -3699691.75308  20795375.86108  20795376.66308         0.00001
  -6105638.23248  -4757637.82146         0.00041  21290807.87846  21290808.49648
 94 02 25 03 16 30.0000000  0  7 02 05 07 09 12 13 24
   1813375.85548   1413019.41344         0.00041  23537395.24644  23537395.35048
  -5998080.86248  -4673825.50146         0.00041  22658001.74546  22658000.47048
   3414245.32248   2660461.81546         0.00041  22967229.33946  22967228.56148
 -16696232.95349 -13010042.70948         0.00041  20970077.04148  20970077.64149
 -16132315.85508 -12570628.34908  21080131.92608  21080133.24808         0.00001
  -4708663.90808  -3669084.24708  20802850.59908  20802851.35908         0.00001
  -6175231.17648  -4811866.07746         0.00041  21277565.45146  21277565.38548
 94 02 25 03 17 00.0000000  0  7 02 05 07 09 12 13 24
   1891869.47048   1474183.26244         0.00041  23552333.57344  23552332.51848
  -6076630.55648  -4735033.03346         0.00041  22643054.16046  22643053.33748
   3488046.86848   2717969.51646         0.00041  22981273.78146  22981273.96148
 -16701391.94049 -13014062.69248         0.00041  20969095.19048  20969095.56849
 -16177438.33308 -12605788.71408  21071545.70908  21071546.63708         0.00001
  -4669059.48908  -3638223.64308  20810387.08208  20810387.82108         0.00001
  -6244390.88248  -4865756.74646         0.00041  21264405.54246  21264404.70548
 94 02 25 03 17 30.0000000  0  7 02 05 07 09 12 13 24
   1970573.54048   1535511.20544         0.00041  23567313.99044  23567308.78748
  -6155138.64348  -4796208.14546         0.00041  22628114.82746  22628113.83048
   3561884.30248   2775505.15646         0.00041  22995321.43546  22995326.04548
 -16705976.76049 -13017635.27448         0.00041  20968222.37348  20968222.88749
 -16222097.75608 -12640588.25208  21063047.49908  21063048.23408         0.00001
  -4629124.29208  -3607105.29508  20817986.66208  20817987.25008         0.00001
  -6313105.34348  -4919300.46846         0.00041  21251329.63946  21251328.83648
 94 02 25 03 18 00.0000000  0  7 02 05 07 09 12 13 24
   2049512.18048   1597021.81944         0.00041  23582322.53844  23582331.00348
  -6233570.87948  -4857324.14246         0.00041  22613189.36646  22613188.32248
   3635774.27248   2833081.73246         0.00041  23009380.60546  23009387.44848
 -16709958.43049 -13020737.87748         0.00041  20967465.02848  20967464.99749
 -16266265.51708 -12675004.67408  21054642.65208  21054643.35608         0.00001
  -4588834.40709  -3575710.57408  20825653.89309  20825654.11908         0.00001
  -6381349.34248  -4972477.60446         0.00041  21238342.87646  21238342.45348
 94 02 25 03 18 30.0000000  0  7 02 05 07 09 12 13 24
   2128686.07748   1658715.49444         0.00041  23597393.29644  23597398.28048
  -6311932.24048  -4918384.91946         0.00041  22598277.67246  22598277.53548
   3709704.58248   2890689.75646         0.00041  23023450.98546  23023455.09548
 -16713354.05749 -13023383.82347         0.00041  20966818.84647  20966818.64349
 -16309953.61008 -12709047.33608  21046328.98508  21046329.67208         0.00001
  -4548206.24109  -3544052.26608  20833385.22509  20833385.35208         0.00001
  -6449164.66448  -5025320.69846         0.00041  21225437.96246  21225437.77048
 94 02 25 03 19 00.0000000  0  7 02 05 07 09 12 13 24
   2208100.40848   1720596.99344         0.00041  23612502.20444  23612509.72548
  -6390204.06748  -4979375.92446         0.00041  22583382.60046  22583383.05548
   3783694.12048   2948343.90246         0.00041  23037533.07546  23037533.85948
 -16716162.38149 -13025572.13347         0.00041  20966284.57147  20966284.08049
 -16353153.97608 -12742709.95308  21038108.15108  21038108.91208         0.00001
  -4507236.14409  -3512127.51708  20841181.44809  20841181.67008         0.00001
  -6516546.66648  -5077826.13646         0.00041  21212615.28946  21212615.49448
 94 02 25 03 19 30.0000000  0  7 02 05 07 09 12 13 24
   2287760.87247   1782669.88344         0.00041  23627661.79244  23627665.29347
  -6468375.13648  -5040288.41146         0.00041  22568508.09946  22568507.74548
   3857759.49448   3006057.17146         0.00041  23051628.28646  23051627.66548
 -16718375.08249 -13027296.32747         0.00041  20965863.05147  20965862.65749
 -16395860.60508 -12775987.84408  21029981.44108  21029982.13608         0.00001
  -4465922.74908  -3479935.25608  20849042.87308  20849043.27508         0.00001
  -6583490.78548  -5129990.37746         0.00041  21199875.63746  21199876.48548
 94 02 25 03 20 00.0000000  0  6 05 07 09 12 13 24
  -6546462.43648  -5101135.61646         0.00041  22553647.82046  22553648.29248
   3931889.47348   3063820.81846         0.00041  23065734.81846  23065734.79848
 -16720005.63849 -13028566.90148         0.00041  20965552.81248  20965552.80249
 -16438085.20408 -12808890.12308  21021946.35208  21021947.20508         0.00001
  -4424281.98308  -3447487.89308  20856966.70708  20856967.20908         0.00001
  -6650003.97648  -5181818.81646         0.00041  21187219.60246  21187219.61448
 94 02 25 03 20 30.0000000  0  6 05 07 09 12 13 24
  -6624468.67048  -5161919.65446         0.00041  22538803.71546  22538804.27848
   4006065.93648   3121620.67646         0.00041  23079851.73346  23079851.00548
 -16721071.61549 -13029397.53248         0.00041  20965350.28848  20965350.34449
 -16479837.40409 -12841424.29108  21014001.16809  21014002.18008         0.00001
  -4382328.30708  -3414796.71608  20864950.30608  20864950.54308         0.00001
  -6716082.09348  -5233308.24746         0.00041  21174645.19046  21174645.14348
 94 02 25 03 21 00.0000000  0  6 05 07 09 12 13 24
  -6702381.24248  -5222630.70746         0.00041  22523977.69946  22523978.46248
   4080291.69248   3179458.92746         0.00041  23093977.49646  23093976.40848
 -16721554.24149 -13029773.60448         0.00041  20965258.37648  20965258.50749
 -16521100.92608 -12873577.67508  21006148.96908  21006150.09908         0.00001
  -4340049.47108  -3381852.17708  20872995.63908  20872995.83508         0.00001
  -6781703.44448  -5284441.75046         0.00041  21162157.66446  21162157.87548
 94 02 25 03 21 30.0000000  0  6 05 07 09 12 13 24
  -6780229.25648  -5283291.45746         0.00041  22509164.10446  22509164.52048
   4154531.72348   3237308.30146         0.00041  23108103.22046  23108103.26748
 -16721482.81149 -13029717.94648         0.00041  20965272.23848  20965272.15149
 -16561892.14508 -12905363.03408  20998386.57608  20998387.73408         0.00001
  -4297466.39208  -3348670.56408  20881098.72308  20881099.16008         0.00001
  -6846900.24948  -5335244.43946         0.00041  21149750.27646  21149751.44648
 94 02 25 03 22 00.0000000  0  6 05 07 09 12 13 24
  -6858021.28448  -5343908.59346         0.00041  22494360.88646  22494361.10748
   4228770.19948   3295156.48746         0.00041  23122231.44446  23122227.98848
 -16720872.17849 -13029242.13548         0.00041  20965388.72548  20965388.71149
 -16602215.11608 -12936783.53608  20990713.29808  20990714.41708         0.00001
  -4254587.63908  -3315258.54308  20889258.11608  20889258.89408         0.00001
  -6911676.69248  -5385719.57846         0.00041  21137424.40546  21137424.61948
 94 02 25 03 22 30.0000000  0  6 05 07 09 12 13 24
  -6935740.29448  -5404468.83546         0.00041  22479571.87046  22479571.60948
   4303030.74848   3353021.85646         0.00041  23136361.54546  23136358.16548
 -16719699.86649 -13028328.65048         0.00041  20965611.50348  20965611.67249
 -16642049.20208 -12967823.08608  20983133.10508  20983134.01108         0.00001
  -4211396.96308  -3281603.46208  20897477.17108  20897477.92408         0.00001
  -6976025.31348  -5435861.34746         0.00041  21125178.34146  21125179.27748
 94 02 25 03 23 00.0000000  0  6 05 07 09 12 13 24
  -7013381.73548  -5464968.63746         0.00041  22464797.29346  22464796.81448
   4377338.48548   3410924.00745         0.00041  23150502.67645  23150498.44648
 -16717948.32249 -13026963.82048         0.00041  20965944.54648  20965944.84949
 -16681374.84908 -12998466.44208  20975649.87408  20975650.54208         0.00001
  -4167879.05708  -3247693.40008  20905758.49508  20905759.12208         0.00001
  -7039932.69548  -5485659.27946         0.00041  21113017.26546  21113018.08948
 94 02 25 03 23 30.0000000  0  6 05 07 09 12 13 24
  -7090951.10148  -5525412.28346         0.00041  22450036.08246  22450035.69348
   4451685.55548   3468856.82945         0.00041  23164650.41145  23164646.62348
 -16715625.92349 -13025154.16448         0.00041  20966386.75048  20966386.76249
 -16720196.12709 -13028716.77908  20968262.60909  20968263.03608         0.00001
  -4124042.35908  -3213534.93008  20914100.33208  20914100.87208         0.00001
  -7103387.27048  -5535104.39046         0.00041  21100943.20346  21100943.00748
 94 02 25 03 24 00.0000000  0  6 05 07 09 12 13 24
  -7168421.42148  -5585778.74646         0.00041  22435293.84646  22435293.76348
   4526088.05848   3526832.80145         0.00041  23178808.06545  23178805.36648
 -16712691.86249 -13022867.88648         0.00041  20966944.93448  20966944.99849
 -16758495.97309 -13058560.80308  20960974.47009  20960974.85308         0.00001
  -4079874.31408  -3179118.27008  20922505.23608  20922505.59408         0.00001
  -7166358.57748  -5584172.92146         0.00041  21088960.12546  21088960.15948
 94 02 25 03 24 30.0000000  0  6 05 07 09 12 13 24
  -7245789.28548  -5646065.37646         0.00041  22420571.26446  22420570.77548
   4600535.64448   3584843.91445         0.00041  23192973.26245  23192973.11948
 -16709154.34849 -13020111.39348         0.00041  20967617.74148  20967617.83649
 -16796274.78309 -13087998.82308  20953785.42609  20953785.94508         0.00001
  -4035379.38108  -3144446.89708  20930972.50308  20930972.68008         0.00001
  -7228841.39048  -5632860.81246         0.00041  21077070.11846  21077070.06148
 94 02 25 03 25 00.0000000  0  6 05 07 09 12 13 24
  -7323080.40748  -5706292.21046         0.00041  22405863.39146  22405862.60848
   4674995.00348   3642864.20345         0.00041  23207143.15945  23207142.95248
 -16705039.02049 -13016904.65548         0.00041  20968401.21148  20968401.22249
 -16833549.40209 -13117043.97608  20946692.28409  20946692.86608         0.00001
  -3990579.09709  -3109537.59308  20939497.87409  20939498.01508         0.00001
  -7290839.18748  -5681170.76546         0.00041  21065272.02346  21065272.10548
 94 02 25 03 25 30.0000000  0  6 05 07 09 12 13 24
  -7400271.32748  -5766440.97046         0.00041  22391173.81746  22391173.69148
   4749478.96748   3700903.65646         0.00041  23221316.48346  23221318.17548
 -16700321.23949 -13013228.47448         0.00041  20969298.90048  20969298.90549
 -16870302.00509 -13145682.37308  20939698.40109  20939698.98908         0.00001
  -3945459.69108  -3074379.61808  20948083.69608  20948083.97208         0.00001
  -7352336.07348  -5729090.39146         0.00041  21053569.93846  21053569.55048
 94 02 25 03 26 00.0000000  0  6 05 07 09 12 13 24
  -7477369.00348  -5826517.07746         0.00041  22376501.99346  22376502.00348
   4823977.04748   3758954.07746         0.00041  23235494.76046  23235495.20848
 -16695013.10149 -13009092.26648         0.00041  20970309.12848  20970309.57249
 -16906546.53309 -13173924.87308  20932801.13809  20932801.81808         0.00001
  -3900039.39308  -3038987.17508  20956726.57908  20956727.09908         0.00001
  -7413356.51748  -5776638.76946         0.00041  21041958.09046  21041957.58648
 94 02 25 03 26 30.0000000  0  6 05 07 09 12 13 24
  -7554381.13048  -5886526.51946         0.00041  22361847.80346  22361847.16648
   4898499.57348   3817023.57345         0.00041  23249675.05445  23249676.97748
 -16689134.27249 -13004511.36248         0.00041  20971427.73748  20971428.35349
 -16942278.28609 -13201767.80408  20926001.53509  20926002.25408         0.00001
  -3854317.92608  -3003360.05208  20965426.95108  20965427.53508         0.00001
  -7473902.52748  -5823817.46046         0.00041  21030436.10246  21030436.22348
 94 02 25 03 27 00.0000000  0  6 05 07 09 12 13 24
  -7631279.96148  -5946447.67846         0.00041  22347213.98946  22347213.71148
   4973089.27148   3875145.41845         0.00041  23263869.52245  23263871.05948
 -16682645.94949 -12999455.52748         0.00041  20972662.55548  20972663.02349
 -16977469.83909 -13229189.79108  20919304.83509  20919305.44208         0.00001
  -3808271.93508  -2967480.05308  20974189.28408  20974189.83908         0.00001
  -7533951.31048  -5870608.70846         0.00041  21019009.87946  21019009.47748
 94 02 25 03 27 30.0000000  0  6 05 07 09 12 13 24
  -7708061.20248  -6006277.20346         0.00041  22332603.24746  22332602.29948
   5047731.89148   3933308.52845         0.00041  23278072.71745  23278072.78248
 -16675570.80049 -12993942.42748         0.00041  20974008.61848  20974009.35949
 -17012143.04609 -13256207.87008  20912706.88909  20912707.28908         0.00001
  -3761927.54708  -2931367.54108  20983008.38108  20983009.01608         0.00001
  -7593541.75748  -5917042.80646         0.00041  21007670.31946  21007669.98648
 94 02 25 03 28 00.0000000  0  6 05 07 09 12 13 24
  -7784736.26848  -6066023.99246         0.00041  22318012.32946  22318011.20048
   5122425.77348   3991511.54645         0.00041  23292286.20745  23292285.46948
 -16667929.59149 -12987988.24548         0.00041  20975462.70248  20975463.40449
 -17046304.61109 -13282827.26408  20906206.25009  20906206.53308         0.00001
  -3715295.69708  -2895031.03108  20991882.24208  20991882.98508         0.00001
  -7652685.90548  -5963129.14946         0.00041  20996414.81346  20996415.23148
 94 02 25 03 28 30.0000000  0  6 05 07 09 12 13 24
  -7861292.82048  -6125678.43346         0.00041  22303444.22046  22303443.77448
   5197187.47448   4049767.41245         0.00041  23306510.11545  23306513.39548
 -16659707.44549 -12981581.39448         0.00041  20977027.66848  20977028.30349
 -17079935.38609 -13309033.05708  20899806.51609  20899806.78308         0.00001
  -3668361.49408  -2858458.91608  21000813.56608  21000814.38808         0.00001
  -7711355.51448  -6008845.72246         0.00041  20985249.85246  20985250.66648
 94 02 25 03 29 00.0000000  0  6 05 07 09 12 13 24
  -7937745.50448  -6185251.93846         0.00041  22288895.44946  22288895.65448
   5271973.90848   4108042.52845         0.00041  23320741.92945  23320746.12548
 -16650930.12349 -12974741.92948         0.00041  20978697.95948  20978698.15849
 -17113064.78309 -13334848.17008  20893502.11609  20893502.66108         0.00001
  -3621158.59508  -2821677.42608  21009795.85708  21009796.74008         0.00001
  -7769581.81348  -6054216.84646         0.00041  20974169.89146  20974170.24248
 94 02 25 03 29 30.0000000  0  6 05 07 09 12 13 24
  -8014110.71349  -6244757.27747         0.00041  22274363.55847  22274363.97949
   5346764.70748   4166321.06245         0.00041  23334975.68945  23334977.77148
 -16641609.25749 -12967478.92148         0.00041  20980471.79648  20980471.73849
 -17145698.98409 -13360277.42108  20887291.99409  20887292.70508         0.00001
  -3573697.20308  -2784694.51608  21018827.32008  21018828.20708         0.00001
  -7827364.08548  -6099241.98346         0.00041  20963173.95146  20963174.52848
 94 02 25 03 30 00.0000000  0  6 05 07 09 12 13 24
  -8090406.40949  -6304208.45047         0.00041  22259844.79547  22259845.59349
   5421570.10848   4224611.01245         0.00041  23349211.42345  23349212.31848
 -16631733.55849 -12959783.57548         0.00041  20982351.11848  20982351.30449
 -17177828.14809 -13385313.13808  20881178.07309  20881178.69908         0.00001
  -3525971.87008  -2747505.93908  21027909.11008  21027909.95108         0.00001
  -7884672.09548  -6143897.55046         0.00041  20952268.69246  20952268.95648
 94 02 25 03 30 30.0000000  0  6 05 07 09 12 13 24
  -8166611.36849  -6363588.91547         0.00041  22245343.56647  22245344.08749
   5496394.42148   4282915.68545         0.00041  23363451.17745  23363451.49648
 -16621288.14449 -12951644.29948         0.00041  20984338.47348  20984339.03649
 -17209435.15709 -13409941.97808  20875163.69309  20875164.07708         0.00001
  -3477969.17608  -2710101.23608  21037043.85808  21037044.64208         0.00001
  -7941475.59248  -6188159.99346         0.00041  20941459.42846  20941459.46448
 94 02 25 03 31 00.0000000  0  6 05 07 09 12 13 24
  -8242741.54049  -6422911.10146         0.00041  22230856.36546  22230856.97549
   5571224.37948   4341224.76145         0.00041  23377690.99645  23377691.94248
 -16610275.21049 -12943062.79448         0.00041  20986434.31348  20986434.69449
 -17240524.22709 -13434167.22008  20869247.64709  20869247.98808         0.00001
  -3429697.61108  -2672487.01908  21046229.82608  21046230.53408         0.00001
  -7997789.98048  -6232041.30847         0.00041  20930743.55847  20930743.38848
 94 02 25 03 31 30.0000000  0  6 05 07 09 12 13 24
  -8318795.55349  -6482173.94446         0.00041  22216383.25546  22216384.48749
   5646067.72948   4399544.23245         0.00041  23391933.67245  23391934.83148
 -16598676.98149 -12934025.21948         0.00041  20988641.34648  20988641.88749
 -17271087.40509 -13457982.67008  20863431.60609  20863431.97408         0.00001
  -3381153.54009  -2634660.46108  21055467.63709  21055468.12408         0.00001
  -8053594.27948  -6275525.16147         0.00041  20920123.80947  20920124.24848
 94 02 25 03 32 00.0000000  0  6 05 07 09 12 13 24
  -8394748.57649  -6541358.09146         0.00041  22201930.67346  22201931.32549
   5720921.62548   4457871.96545         0.00041  23406178.94445  23406178.43248
 -16586491.81549 -12924530.28748         0.00041  20990960.04648  20990960.49249
 -17301119.47108 -13481384.27408  20857716.50908  20857716.92408         0.00001
  -3332335.49809  -2596620.42408  21064757.56009  21064757.80708         0.00001
  -8108893.84649  -6318615.71347         0.00041  20909601.29747  20909601.18849
 94 02 25 03 32 30.0000000  0  6 05 07 09 12 13 24
  -8470576.79549  -6600444.99946         0.00041  22187500.90546  22187501.56149
   5795773.20548   4516197.86245         0.00041  23420423.78645  23420420.69048
 -16573722.01849 -12914579.79648         0.00041  20993390.21648  20993390.66449
 -17330614.87808 -13504367.70908  20852103.54108  20852104.02508         0.00001
  -3283242.17509  -2558365.89008  21074099.92409  21074099.80308         0.00001
  -8163695.85749  -6361318.56147         0.00041  20899172.60047  20899172.96149
 94 02 25 03 33 00.0000000  0  6 05 07 09 12 13 24
  -8546253.81248  -6659414.08346         0.00041  22173100.41946  22173100.52848
   5870641.89448   4574537.09745         0.00041  23434667.55145  23434664.21648
 -16560337.10349 -12904149.99348         0.00041  20995936.96748  20995937.76249
 -17359552.95208 -13526916.85908  20846596.74108  20846597.31008         0.00001
  -3233857.10009  -2519884.02108  21083497.67209  21083497.36908         0.00001
  -8217984.74849  -6403621.58447         0.00041  20888841.94347  20888842.30349
 94 02 25 03 33 30.0000000  0  6 05 07 09 12 13 24
  -8621767.69148  -6718256.05546         0.00041  22158729.79346  22158730.53548
   5945524.74148   4632887.37145         0.00041  23448915.48545  23448913.68248
 -16546356.32649 -12893255.88748         0.00041  20998597.22148  20998597.91049
 -17387937.47408 -13549034.66408  20841195.41908  20841195.96008         0.00001
  -3184187.64309  -2481180.55308  21092949.27909  21092949.23208         0.00001
  -8271764.71249  -6445528.03747         0.00041  20878607.89047  20878608.13449
 94 02 25 03 34 00.0000000  0  6 05 07 09 12 13 24
  -8697138.59848  -6776986.61646         0.00041  22144387.72846  22144387.45348
   6020406.90348   4691237.13245         0.00041  23463166.06845  23463165.60048
 -16531805.48649 -12881917.58548         0.00041  21001366.62148  21001367.17749
 -17415774.57509 -13570725.90808  20835898.29109  20835898.82908         0.00001
  -3134244.16909  -2442263.54908  21102452.96809  21102453.35108         0.00001
  -8325059.34949  -6487056.31347         0.00041  20868466.27247  20868466.66349
 94 02 25 03 34 30.0000000  0  6 05 07 09 12 13 24
  -8772391.75948  -6835625.43046         0.00041  22130067.30846  22130067.27848
   6095296.05748   4749592.27845         0.00041  23477412.46445  23477418.87448
 -16516688.34449 -12870138.00848         0.00041  21004243.24348  21004243.80649
 -17443069.05409 -13591994.33108  20830704.41509  20830705.02708         0.00001
  -3084035.55108  -2403139.93508  21112007.26908  21112007.75008         0.00001
  -8377862.03849  -6528201.25347         0.00041  20858418.46847  20858418.54549
 94 02 25 03 35 00.0000000  0  6 05 07 09 12 13 24
  -8847541.63448  -6894183.76346         0.00041  22115767.50546  22115767.05948
   6170202.60748   4807961.01845         0.00041  23491673.65445  23491674.10648
 -16501004.49149 -12857916.83148         0.00041  21007227.45048  21007228.02849
 -17469823.68909 -13612842.09908  20825613.17709  20825613.94308         0.00001
  -3033568.39609  -2363814.86508  21121610.91509  21121611.22508         0.00001
  -8430174.10448  -6568963.88447         0.00041  20848463.99747  20848463.82348
 94 02 25 03 35 30.0000000  0  6 05 07 09 12 13 24
  -8922581.13748  -6952656.08846         0.00041  22101487.25546  22101487.31248
   6245151.31948   4866362.58045         0.00041  23505932.55145  23505935.89148
 -16484749.07049 -12845250.27548         0.00041  21010320.62448  21010321.50449
 -17496018.44509 -13633253.59508  20820628.35909  20820629.32308         0.00001
  -2982826.46409  -2324275.68908  21131266.92509  21131266.95208         0.00001
  -8481975.76448  -6609328.79347         0.00041  20838606.27747  20838606.03248
 94 02 25 03 36 00.0000000  0  6 05 07 09 12 13 24
  -8997508.33948  -7011040.90446         0.00041  22087229.60946  22087229.13848
   6320154.40248   4924806.49545         0.00041  23520206.42145  23520208.08448
 -16467910.67649 -12832129.44848         0.00041  21013525.04648  21013525.99549
 -17521648.04908 -13653224.71208  20815751.14708  20815752.05708         0.00001
  -2931808.43608  -2284521.37408  21140975.39608  21140975.25608         0.00001
  -8533257.25548  -6649288.36747         0.00041  20828847.50147  20828847.58648
 94 02 25 03 36 30.0000000  0  6 05 07 09 12 13 24
  -9072310.99248  -7069328.66647         0.00041  22072995.53347  22072994.07848
   6395216.54648   4983296.49745         0.00041  23534488.84745  23534491.38248
 -16450494.36549 -12818558.30448         0.00041  21016839.11248  21016839.79649
 -17546720.30908 -13672761.53608  20810980.08008  20810980.85208         0.00001
  -2880525.95509  -2244560.99108  21150734.12509  21150733.87808         0.00001
  -8584023.65049  -6688846.57947         0.00041  20819187.14547  20819187.17449
 94 02 25 03 37 00.0000000  0  6 05 07 09 12 13 24
  -9146953.22148  -7127491.42446         0.00041  22058791.35046  22058790.01048
   6470354.17348   5041845.25845         0.00041  23548786.27645  23548789.06448
 -16432487.22249 -12804526.77548         0.00041  21020265.64748  21020266.37949
 -17571215.79508 -13691848.92408  20806318.75708  20806319.41708         0.00001
  -2828963.62308  -2204382.54708  21160546.06608  21160545.81908         0.00001
  -8634268.02849  -6727998.01847         0.00041  20809625.82947  20809625.94149
 94 02 25 03 37 30.0000000  0  6 05 07 09 12 13 24
  -9221438.66148  -7185532.00346         0.00041  22044617.86146  22044615.99048
   6545548.81648   5100438.53345         0.00041  23563098.13145  23563097.47648
 -16413905.87649 -12790047.81548         0.00041  21023802.27748  21023802.26049
 -17595149.05208 -13710498.20108  20801764.33308  20801764.91808         0.00001
  -2777139.63408  -2164000.21408  21170407.58008  21170407.42008         0.00001
  -8684007.93749  -6766756.36847         0.00041  20800160.26047  20800160.59249
 94 02 25 03 38 00.0000000  0  6 05 07 09 12 13 24
  -9295775.82348  -7243457.04946         0.00041  22030471.97946  22030469.78348
   6620782.56548   5159062.23945         0.00041  23577412.29145  23577413.17948
 -16394756.36949 -12775126.12948         0.00041  21027446.06148  21027446.31649
 -17618538.40508 -13728723.65608  20797313.46408  20797313.99508         0.00001
  -2725076.26808  -2123431.35408  21180314.67808  21180314.61308         0.00001
  -8733270.93549  -6805143.10047         0.00041  20790786.33447  20790786.30949
 94 02 25 03 38 30.0000000  0  6 05 07 09 12 13 24
  -9369980.71948  -7301279.03746         0.00041  22016351.19946  22016349.25348
   6696027.51348   5217694.65845         0.00041  23591732.97345  23591731.78348
 -16375056.46849 -12759775.56448         0.00041  21031195.23148  21031195.12049
 -17641401.18408 -13746538.79208  20792962.75708  20792963.48608         0.00001
  -2672794.43108  -2082692.26008  21190263.67708  21190263.65608         0.00001
  -8782079.22149  -6843175.51447         0.00041  20781497.80747  20781498.17449
 94 02 25 03 39 00.0000000  0  6 05 07 09 12 13 24
  -9444079.36648  -7359018.23147         0.00041  22002250.29747  22002248.63148
   6771251.80948   5276311.02344         0.00041  23606046.48944  23606047.42448
 -16354816.55149 -12744004.21248         0.00041  21035046.89248  21035046.52249
 -17663746.53908 -13763950.75008  20788710.51408  20788711.48608         0.00001
  -2620307.16108  -2041793.09208  21200251.90008  21200251.96108         0.00001
  -8830437.87049  -6880857.55847         0.00041  20772295.57447  20772295.79649
 94 02 25 03 39 30.0000000  0  6 05 07 09 12 13 24
  -9518053.61948  -7416660.49747         0.00041  21988173.62847  21988172.01648
   6846462.04348   5334916.40045         0.00041  23620357.36345  23620360.28748
 -16334014.88149 -12727795.12848         0.00041  21039005.00748  21039004.74749
 -17685549.17808 -13780939.82408  20784561.55908  20784562.61408         0.00001
  -2567592.92608  -2000717.05608  21210282.95608  21210283.34808         0.00001
  -8878323.79849  -6918171.24847         0.00041  20763182.97447  20763183.21849
 94 02 25 03 40 00.0000000  0  6 05 07 09 12 13 24
  -9591912.32048  -7474212.71747         0.00041  21974118.60947  21974117.33048
   6921636.42648   5393493.83544         0.00041  23634662.50244  23634665.81048
 -16312669.53249 -12711162.40047         0.00041  21043066.92547  21043067.06349
 -17706818.73308 -13797513.51408  20780514.24708  20780515.07108         0.00001
  -2514664.93608  -1959474.45408  21220354.54708  21220355.27708         0.00001
  -8925749.05949  -6955125.98247         0.00041  20754158.23647  20754158.59049
 94 02 25 03 40 30.0000000  0  6 05 07 09 12 13 24
  -9665634.80148  -7531658.79347         0.00041  21960089.47647  21960088.44648
   6996783.81048   5452050.24444         0.00041  23648964.23044  23648966.30548
 -16290780.91049 -12694106.33847         0.00041  21047232.10147  21047232.41049
 -17727535.78908 -13813656.68108  20776572.13108  20776572.64908         0.00001
  -2461507.43208  -1918053.00908  21230470.06108  21230470.78008         0.00001
  -8972680.58749  -6991695.99147         0.00041  20745227.25447  20745228.04149
 94 02 25 03 41 00.0000000  0  6 05 07 09 12 13 24
  -9739197.06248  -7588980.02147         0.00041  21946090.90647  21946090.37748
   7071927.31148   5510603.62245         0.00041  23663262.20745  23663265.94248
 -16268331.63249 -12676613.39047         0.00041  21051503.73947  21051503.98049
 -17747682.76809 -13829355.62108  20772738.38709  20772738.73008         0.00001
  -2408106.64208  -1876441.99508  21240631.87108  21240632.56008         0.00001
  -9019099.48249  -7027866.55147         0.00041  20736394.11847  20736394.76249
 94 02 25 03 41 30.0000000  0  6 05 07 09 12 13 24
  -9812587.43548  -7646167.30247         0.00041  21932124.84647  21932124.47348
   7147084.92548   5569168.04045         0.00041  23677568.44445  23677567.56848
 -16245316.71049 -12658679.68047         0.00041  21055883.14147  21055883.91149
 -17767264.60308 -13844614.18508  20769011.99108  20769012.39908         0.00001
  -2354471.09208  -1834648.04808  21250838.34308  21250839.03408         0.00001
  -9065007.88949  -7063639.32547         0.00041  20727658.35247  20727658.40949
 94 02 25 03 42 00.0000000  0  6 05 07 09 12 13 24
  -9885814.69049  -7703227.47947         0.00041  21918190.09547  21918189.77249
   7222263.74248   5627748.90544         0.00041  23691867.63544  23691873.27148
 -16221741.93649 -12640309.73047         0.00041  21060369.44747  21060370.08549
 -17786285.63708 -13859435.76208  20765392.25208  20765392.78708         0.00001
  -2300608.77308  -1792677.40008  21261088.08208  21261088.77408         0.00001
  -9110395.38049  -7099006.19147         0.00041  20719021.53847  20719021.54649
 94 02 25 03 42 30.0000000  0  6 05 07 09 12 13 24
  -9958882.69949  -7760163.56447         0.00041  21904285.64247  21904285.27049
   7297472.42148   5686353.06544         0.00041  23706178.40744  23706184.10648
 -16197595.56049 -12621494.38347         0.00041  21064964.66047  21064964.86349
 -17804738.32508 -13873814.47408  20761880.60708  20761881.52508         0.00001
  -2246515.68408  -1750526.92908  21271381.65008  21271382.36708         0.00001
  -9155242.43549  -7133951.92947         0.00041  20710487.45147  20710487.44549
 94 02 25 03 43 00.0000000  0  5 05 09 12 13 24
 -10031827.21249  -7817003.42847         0.00041  21890404.80547  21890404.31649
 -16172894.09449 -12602246.50147         0.00041  21069665.01647  21069665.30349
 -17822651.70808 -13887772.95408  20758471.62808  20758472.84508         0.00001
  -2192224.34008  -1708221.97408  21281712.86608  21281713.62408         0.00001
  -9199583.96649  -7168503.75547         0.00041  20702049.58847  20702049.63249
 94 02 25 03 43 30.0000000  0  5 05 09 12 13 24
 -10104627.59949  -7873730.97747         0.00041  21876551.33047  21876551.14749
 -16147612.07049 -12582546.23447         0.00041  21074475.97047  21074476.34349
 -17839981.46308 -13901276.66808  20755173.90508  20755175.07808         0.00001
  -2137693.91908  -1665730.73008  21292089.82008  21292090.37808         0.00001
  -9243369.71449  -7202622.50347         0.00041  20693717.18947  20693717.14249
 94 02 25 03 44 00.0000000  0  6 05 07 09 12 13 24
 -10177242.52349  -7930314.01647         0.00041  21862733.26447  21862732.82249
        -1.02758        -0.53255         0.00051  23749155.72355  23749151.59058
 -16121714.22049 -12562366.10347         0.00041  21079404.16947  21079404.53349
 -17856676.41508 -13914285.72708  20751997.16508  20751998.12008         0.00001
  -2082876.92108  -1623016.18708  21302521.52008  21302521.61708         0.00001
  -9286557.61248  -7236275.39447         0.00041  20685498.20647  20685498.19448
 94 02 25 03 44 30.0000000  0  6 05 07 09 12 13 24
 -10249768.09249  -7986827.42447         0.00041  21848932.04747  21848931.81949
     75287.24548     58665.71245         0.00041  23763482.47445  23763479.87748
 -16095308.91049 -12541790.54547         0.00041  21084428.92247  21084429.77249
 -17872847.46808 -13926886.54508  20748920.04308  20748920.80308         0.00001
  -2027887.45109  -1580167.25308  21312985.74009  21312985.58908         0.00001
  -9329272.97648  -7269560.06547         0.00041  20677369.93247  20677369.70248
 94 02 25 03 45 00.0000000  0  6 05 07 09 12 13 24
 -10322216.09549  -8043280.39347         0.00041  21835145.30447  21835145.39349
    150522.51148    117290.60845         0.00041  23777796.32745  23777796.32548
 -16068423.53749 -12520840.90847         0.00041  21089544.81447  21089545.84149
 -17888515.51609 -13939095.40308  20745938.57609  20745939.24908         0.00001
  -1972750.10609  -1537203.09508  21323478.00609  21323477.88208         0.00001
  -9371544.40348  -7302498.81447         0.00041  20669326.16847  20669325.60848
 94 02 25 03 45 30.0000000  0  6 05 07 09 12 13 24
 -10394518.28949  -8099619.74447         0.00041  21821386.72747  21821386.68049
    225761.67348    175918.49645         0.00041  23792114.52045  23792115.17648
 -16040992.37349 -12499465.96947         0.00041  21094765.05047  21094765.95349
 -17903615.42008 -13950861.55108  20743065.07308  20743065.84008         0.00001
  -1917402.92309  -1494075.41808  21334010.30709  21334010.20408         0.00001
  -9413312.11749  -7335045.06147         0.00041  20661378.33747  20661377.90849
 94 02 25 03 46 00.0000000  0  6 05 07 09 12 13 24
 -10466640.82149  -8155819.10147         0.00041  21807662.94747  21807662.34149
    301010.58548    234553.97745         0.00041  23806432.68345  23806434.05248
 -16012997.04649 -12477651.43047         0.00041  21100092.66447  21100093.63049
 -17918140.37108 -13962179.69108  20740300.86608  20740301.84408         0.00001
  -1861842.66809  -1450781.71408  21344583.01509  21344583.13208         0.00001
  -9454572.60649  -7367196.07247         0.00041  20653526.70547  20653526.46749
 94 02 25 03 46 30.0000000  0  6 05 07 09 12 13 24
 -10538570.83049  -8211868.44647         0.00041  21793974.91547  21793974.42349
    376291.07448    293214.08645         0.00041  23820759.29145  23820760.21548
 -15984434.26949 -12455394.72847         0.00041  21105527.69447  21105528.33349
 -17932077.21108 -13973039.56808  20737648.59208  20737649.84108         0.00001
  -1806059.32708  -1407314.17308  21355198.01308  21355198.34608         0.00001
  -9495295.45249  -7398928.14247         0.00041  20645777.88447  20645777.54849
 94 02 25 03 47 00.0000000  0  6 05 07 09 12 13 24
 -10610338.02449  -8267790.92247         0.00041  21780317.95547  21780317.32849
    451582.57648    351882.78245         0.00041  23835087.27445  23835087.73548
 -15955320.22149 -12432708.46447         0.00041  21111068.14847  21111068.14149
 -17945438.25508 -13983450.78108  20735105.98408  20735107.34108         0.00001
  -1750068.61808  -1363685.04008  21365852.59908  21365852.93808         0.00001
  -9535490.83049  -7430249.19447         0.00041  20638128.53147  20638128.68849
 94 02 25 03 47 30.0000000  0  6 05 07 09 12 13 24
 -10681940.53649  -8323585.06947         0.00041  21766692.48847  21766691.82249
    526875.72948    410552.74144         0.00041  23849413.13744  23849415.01048
 -15925660.34749 -12409596.89147         0.00041  21116712.40947  21116712.74049
 -17958229.03008 -13993417.62608  20732672.09408  20732673.34708         0.00001
  -1693879.53308  -1319901.33208  21376545.22308  21376545.19608         0.00001
  -9575158.55449  -7461159.08647         0.00041  20630580.21847  20630580.06449
 94 02 25 03 48 00.0000000  0  6 05 07 09 12 13 24
 -10753361.29349  -8379237.58847         0.00041  21753101.41647  21753101.05149
    602185.46948    469235.70044         0.00041  23863739.28644  23863745.98748
 -15895457.74549 -12386062.41847         0.00041  21122459.65047  21122460.12849
 -17970439.04508 -14002931.92908  20730348.78708  20730349.82008         0.00001
  -1637484.69608  -1275957.30808  21387276.94408  21387276.69408         0.00001
  -9614281.95449  -7491644.83747         0.00041  20623135.32147  20623135.08549
 94 02 25 03 48 30.0000000  0  6 05 07 09 12 13 24
 -10824623.69949  -8434766.71747         0.00041  21739540.33947  21739540.45549
    677497.20648    527920.01944         0.00041  23878075.23544  23878078.49148
 -15864713.88849 -12362106.18447         0.00041  21128310.31747  21128310.34049
 -17982076.42508 -14012000.01708  20728134.39108  20728135.33708         0.00001
  -1580895.32808  -1231861.70508  21398045.40508  21398045.42508         0.00001
  -9652875.09549  -7521717.40647         0.00041  20615791.16247  20615791.26749
 94 02 25 03 49 00.0000000  0  6 05 07 09 12 13 24
 -10895718.47349  -8490165.22647         0.00041  21726011.09847  21726011.29649
    752808.86848    586604.44244         0.00041  23892408.96144  23892409.62748
 -15833413.30249 -12337716.13647         0.00041  21134266.17347  21134266.58549
 -17993136.51608 -14020618.26508  20726029.77008  20726030.65108         0.00001
  -1524110.19508  -1187613.55008  21408851.05808  21408851.33108         0.00001
  -9690956.50949  -7551391.22847         0.00041  20608544.31247  20608544.49549
 94 02 25 03 49 30.0000000  0  6 05 07 09 12 13 24
 -10966625.35149  -8545417.32047         0.00041  21712517.59747  21712518.04649
    828145.52948    645308.36244         0.00041  23906745.66044  23906744.02048
 -15801544.14349 -12312883.03747         0.00041  21140330.53347  21140331.17149
 -18003601.86408 -14028773.08108  20724038.31408  20724039.05908         0.00001
  -1467114.95708  -1143201.67408  21419696.76808  21419697.22908         0.00001
  -9728503.71949  -7580648.79047         0.00041  20601398.97447  20601399.38949
 94 02 25 03 50 00.0000000  0  6 05 07 09 12 13 24
 -11037383.87749  -8600553.81147         0.00041  21699053.08947  21699053.18749
    903479.01948    704009.71144         0.00041  23921080.54144  23921077.49548
 -15769128.93749 -12287624.43847         0.00041  21146499.40347  21146499.77849
 -18013487.78108 -14036476.39308  20722157.09508  20722157.80008         0.00001
  -1409928.08908  -1098640.46708  21430578.93308  21430579.64608         0.00001
  -9765548.77749  -7609515.06347         0.00041  20594349.29447  20594349.86349
 94 02 25 03 50 30.0000000  0  6 05 07 09 12 13 24
 -11107989.03949  -8655570.79947         0.00041  21685616.61747  21685617.67549
    978812.38848    762711.03444         0.00041  23935412.46944  23935413.69848
 -15736169.86149 -12261942.05247         0.00041  21152770.94347  21152771.53149
 -18022784.94008 -14043720.93208  20720387.92208  20720388.54408         0.00001
  -1352543.45308  -1053925.15208  21441498.77408  21441499.50708         0.00001
  -9802088.37149  -7637987.47447         0.00041  20587396.51147  20587396.48749
 94 02 25 03 51 00.0000000  0  6 05 07 09 12 13 24
 -11178417.37849  -8710450.00947         0.00041  21672214.80747  21672216.01249
   1054157.29448    821421.46344         0.00041  23949754.14444  23949752.17748
 -15702669.04849 -12235837.52247         0.00041  21159145.85047  21159146.49949
 -18031483.26608 -14050498.85008  20718732.77808  20718733.27308         0.00001
  -1294953.89708  -1009050.16408  21452457.95608  21452458.26108         0.00001
  -9838106.59749  -7666053.61447         0.00041  20580542.31547  20580542.37949
 94 02 25 03 51 30.0000000  0  6 05 07 09 12 13 24
 -11248668.80249  -8765191.36947         0.00041  21658846.67247  21658847.39849
   1129495.67548    880126.61144         0.00041  23964094.88044  23964087.68948
 -15668636.53149 -12209318.69047         0.00041  21165622.28247  21165622.75449
 -18039591.06008 -14056816.61008  20717189.91008  20717190.33208         0.00001
  -1237170.91608   -964024.47508  21463454.01908  21463453.78608         0.00001
  -9873600.45349  -7693711.15347         0.00041  20573788.10447  20573788.32149
 94 02 25 03 52 00.0000000  0  6 05 07 09 12 13 24
 -11318699.59549  -8819760.80747         0.00041  21645519.78847  21645520.23049
   1204846.71348    938841.62344         0.00041  23978421.64244  23978425.88948
 -15634048.62949 -12182367.09047         0.00041  21172204.13147  21172204.39449
 -18047082.97908 -14062654.46708  20715764.20908  20715764.59108         0.00001
  -1179172.14208   -918830.63708  21474490.77908  21474490.44108         0.00001
  -9908552.65749  -7720946.62047         0.00041  20567137.36147  20567137.26549
 94 02 25 03 52 30.0000000  0  6 05 07 09 12 13 24
 -11388493.28649  -8874145.49147         0.00041  21632238.97147  21632238.86349
   1280224.05248    997577.23444         0.00041  23992769.89444  23992770.27348
 -15598890.59649 -12154971.23547         0.00041  21178894.46147  21178894.97149
 -18053960.18509 -14068013.33008  20714455.56309  20714455.95008         0.00001
  -1120961.78508   -873471.92008  21485567.76608  21485567.54508         0.00001
  -9942942.24249  -7747743.68447         0.00041  20560593.37247  20560592.99949
 94 02 25 03 53 00.0000000  0  6 05 07 09 12 13 24
 -11458074.74849  -8928364.80547         0.00041  21618998.32047  21618998.14849
   1355618.12348   1056325.87344         0.00041  24007120.44744  24007117.70248
 -15563167.06548 -12127134.73647         0.00041  21185692.50747  21185692.53548
 -18060241.85009 -14072908.12908  20713260.19809  20713260.69808         0.00001
  -1062561.82408   -827965.45308  21496680.86708  21496680.81008         0.00001
  -9976777.95249  -7774109.15348         0.00041  20554154.73148  20554154.35349
 94 02 25 03 53 30.0000000  0  7 05 07 09 12 13 20 24
 -11527452.98049  -8982425.76147         0.00041  21605796.19147  21605796.28449
   1431039.15647   1115095.47244         0.00041  24021468.72044  24021468.05847
 -15526881.06648 -12098859.94447         0.00041  21192597.38747  21192598.04448
 -18065915.14709 -14077328.88008  20712180.70509  20712181.20108         0.00001
  -1003962.63008   -782303.74008  21507832.14808  21507831.80008         0.00001
        -0.24957        -0.06054         0.00051  24563181.80754  24563183.47757
 -10010054.55649  -7800038.95748         0.00041  20547822.63248  20547822.10249
 94 02 25 03 54 00.0000000  0  7 05 07 09 12 13 20 24
 -11596615.58449  -9036318.69047         0.00041  21592635.17947  21592634.99949
   1506530.57647   1173920.05244         0.00041  24035831.96844  24035833.76347
 -15490010.12748 -12070129.35847         0.00041  21199613.20147  21199614.21948
 -18070952.58009 -14081254.15808  20711222.10809  20711222.72008         0.00001
   -945139.32408   -736467.39508  21519026.04008  21519025.42408         0.00001
    -97433.10847    -75922.56044         0.00041  24544629.88944  24544641.49347
 -10042737.49549  -7825506.16548         0.00041  20541603.04248  20541602.83149
 94 02 25 03 54 30.0000000  0  6 05 07 09 12 13 24
 -11665501.80149  -9089996.24747         0.00041  21579526.45847  21579526.04249
   1582153.13147   1232846.67644         0.00041  24050219.19544  24050225.47847
 -15452491.96448 -12040894.44047         0.00041  21206752.44647  21206753.60148
 -18075291.97008 -14084635.50908  20710396.28708  20710397.04608         0.00001
   -886032.72608   -690410.30208  21530273.62708  21530272.88508         0.00001
 -10074759.93349  -7850458.69948         0.00041  20535509.51048  20535509.04549
 94 02 25 03 55 00.0000000  0  6 05 07 09 12 13 24
 -11734514.89849  -9143772.66947         0.00041  21566393.27447  21566393.31849
   1657470.34147   1291535.33244         0.00041  24064557.74444  24064558.59947
 -15414762.94149 -12011495.22147         0.00041  21213932.01447  21213933.44649
 -18079348.11808 -14087796.15608  20709624.28108  20709625.25008         0.00001
   -827060.41908   -644457.84908  21541495.56208  21541494.81408         0.00001
 -10106561.88349  -7875239.42448         0.00041  20529457.52948  20529457.12649
 94 02 25 03 55 30.0000000  0  6 05 07 09 12 13 24
 -11803440.79649  -9197481.14647         0.00041  21553277.18547  21553277.47049
   1732670.52347   1350132.92644         0.00041  24078861.70444  24078867.94047
 -15376626.59149 -11981778.60447         0.00041  21221189.43547  21221190.69549
 -18082923.06108 -14090581.83708  20708944.02308  20708944.94408         0.00001
   -768027.15108   -598457.90208  21552729.04108  21552728.34508         0.00001
 -10137959.56949  -7899705.13948         0.00041  20523482.71448  20523482.52249
 94 02 25 03 56 00.0000000  0  6 05 07 09 12 13 24
 -11871955.50649  -9250869.21647         0.00041  21540238.73847  21540239.62149
   1808059.55747   1408877.65944         0.00041  24093214.05444  24093214.80747
 -15337768.15549 -11951499.30947         0.00041  21228584.12347  21228584.90849
 -18085712.34108 -14092755.30808  20708413.37008  20708414.07408         0.00001
   -708631.49608   -552175.58108  21564031.40908  21564031.03108         0.00001
 -10168640.11249  -7923612.03948         0.00041  20517644.34248  20517644.40649
 94 02 25 03 56 30.0000000  0  6 05 07 09 12 13 24
 -11940231.07149  -9304070.93647         0.00041  21527245.86347  21527246.90449
   1883448.05848   1467622.13144         0.00041  24107563.38744  24107564.84748
 -15298372.46649 -11920801.37247         0.00041  21236081.12447  21236081.71849
 -18087895.50308 -14094456.47808  20707997.94908  20707998.51808         0.00001
   -649055.58608   -505752.78908  21575368.14208  21575368.45108         0.00001
 -10198793.19349  -7947107.92548         0.00041  20511906.07748  20511906.43149
 94 02 25 03 57 00.0000000  0  7 05 07 09 12 13 20 24
 -12008258.89249  -9357079.60847         0.00041  21514300.92847  21514302.31749
   1958876.22148   1526397.23044         0.00041  24121913.02444  24121917.54048
 -15258413.95549 -11889664.87647         0.00041  21243685.34747  21243686.06749
 -18089441.19708 -14095660.91008  20707703.74608  20707704.37708         0.00001
   -589270.66108   -459167.10908  21586744.85408  21586745.53608         0.00001
        -0.60657        -0.28454         0.00051  24433177.24854  24433179.98857
 -10228387.66749  -7970168.53848         0.00041  20506274.45348  20506274.80349
 94 02 25 03 57 30.0000000  0  7 05 07 09 12 13 20 24
 -12076099.17749  -9409942.16247         0.00041  21501391.59847  21501392.73449
   2034325.68447   1585188.95844         0.00041  24136276.83044  24136271.68147
 -15217939.32648 -11858126.20246         0.00041  21251386.73946  21251387.28948
 -18090397.88108 -14096406.37808  20707521.56208  20707522.33808         0.00001
   -529327.94608   -412458.47808  21598151.74708  21598152.35108         0.00001
    -97630.61447    -76075.91944         0.00041  24414607.12144  24414601.99547
 -10257451.42249  -7992815.60648         0.00041  20500743.49448  20500744.08749
 94 02 25 03 58 00.0000000  0  7 05 07 09 12 13 20 24
 -12143784.22449  -9462683.75447         0.00041  21488512.04447  21488512.67349
   2109765.50047   1643973.11744         0.00041  24150623.39044  24150625.44947
 -15176986.58948 -11826214.97846         0.00041  21259180.08546  21259180.60048
 -18090800.10508 -14096719.80208  20707444.94208  20707445.81708         0.00001
   -469264.69208   -365655.92608  21609581.47008  21609581.76708         0.00001
   -195314.44348   -152193.07844         0.00041  24396015.40744  24396014.07648
 -10286006.71449  -8015066.46948         0.00041  20495309.58548  20495310.09549
 94 02 25 03 58 30.0000000  0  7 05 07 09 12 13 20 24
 -12211276.41349  -9515275.06747         0.00041  21475669.48047  21475669.34749
   2185218.76547   1702767.92244         0.00041  24164979.34244  24164985.08847
 -15135520.43548 -11793903.68946         0.00041  21267070.13746  21267071.24948
 -18090618.36408 -14096578.18908  20707479.55508  20707480.38008         0.00001
   -409053.85808   -318738.38908  21621039.15908  21621039.18508         0.00001
   -293021.66748   -228327.50344         0.00041  24377424.23144  24377421.77348
 -10314029.67049  -8036902.52248         0.00041  20489976.86248  20489977.18349
 94 02 25 03 59 00.0000000  0  7 05 07 09 12 13 20 24
 -12278572.75249  -9567713.77247         0.00041  21462863.42647  21462863.17749
   2260666.30647   1761557.98944         0.00041  24179338.36044  24179342.06747
 -15093543.63248 -11761194.49846         0.00041  21275058.32446  21275059.32748
 -18089864.09308 -14095990.44908  20707623.09808  20707623.89208         0.00001
   -348709.53508   -271716.84508  21632522.19008  21632522.18208         0.00001
   -390762.83948   -304488.81544         0.00041  24358822.29344  24358821.51248
 -10341526.23849  -8058328.39948         0.00041  20484744.40848  20484744.46449
 94 02 25 03 59 30.0000000  0  7 05 07 09 12 13 20 24
 -12345639.49849  -9619973.57348         0.00041  21450101.37948  21450101.04549
   2336091.10047   1820329.99244         0.00041  24193696.93944  24193694.72747
 -15051050.23648 -11728082.77046         0.00041  21283145.00746  21283145.33248
 -18088532.59208 -14094952.92208  20707876.45908  20707877.24708         0.00001
   -288229.64908   -224589.65908  21644030.83708  21644031.23608         0.00001
   -488532.15548   -380672.61744         0.00041  24340213.46344  24340217.01548
 -10368494.51949  -8079342.62148         0.00041  20479612.80848  20479612.88049
 94 02 25 04 00 00.0000000  0  7 05 07 09 12 13 20 24
 -12412469.41449  -9672048.82948         0.00041  21437383.55948  21437383.73549
   2411472.72947   1879068.65844         0.00041  24208038.56744  24208038.97447
 -15008034.10148 -11694563.72146         0.00041  21291330.56346  21291330.94948
 -18086615.16708 -14093458.82708  20708241.36708  20708242.09508         0.00001
   -227607.77308   -177351.82008  21655566.66408  21655567.37008         0.00001
   -586320.22548   -456870.84044         0.00041  24321604.55144  24321608.15448
 -10394932.33649  -8099943.49448         0.00041  20474582.02048  20474582.11649
 94 02 25 04 00 30.0000000  0  6 05 09 12 13 20 24
 -12479062.24849  -9723939.34547         0.00041  21424711.28447  21424711.53549
 -14964491.56948 -11660634.49346         0.00041  21299617.26546  21299617.02848
 -18084092.43208 -14091493.06508  20708721.57208  20708722.18608         0.00001
   -166827.20008   -129990.32308  21667132.83208  21667133.48108         0.00001
   -684106.74548   -533068.06044         0.00041  24303001.09144  24303000.77848
 -10420831.73049  -8120124.82248         0.00041  20469653.55048  20469653.83149
 94 02 25 04 01 00.0000000  0  6 05 09 12 13 20 24
 -12545459.99849  -9775677.84347         0.00041  21412075.84247  21412076.37649
 -14920478.57548 -11626338.66146         0.00041  21307992.31746  21307992.56048
 -18080993.50208 -14089078.31108  20709311.32708  20709311.97608         0.00001
   -105919.41908    -82529.71408  21678723.39908  21678723.65408         0.00001
   -781919.87148   -609285.66644         0.00041  24284393.66444  24284387.33748
 -10446228.16249  -8139914.23348         0.00041  20464820.66248  20464821.10549
 94 02 25 04 01 30.0000000  0  6 05 09 12 13 20 24
 -12611643.62149  -9827249.48347         0.00041  21399481.19347  21399481.74149
 -14875975.88048 -11591661.24546         0.00041  21316461.18546  21316461.04948
 -18077282.75008 -14086186.81608  20710017.44808  20710018.22508         0.00001
    -44851.07508    -34943.99308  21690344.22008  21690344.58908         0.00001
   -879722.80448   -685495.07144         0.00041  24265773.53644  24265777.43748
 -10471092.07549  -8159288.69548         0.00041  20460089.30948  20460089.47749
 94 02 25 04 02 00.0000000  0  6 05 09 12 13 20 24
 -12677595.37749  -9878640.44347         0.00041  21386930.51947  21386931.61749
 -14830958.37648 -11556582.68546         0.00041  21325027.47046  21325027.47048
 -18072926.27508 -14082792.16008  20710846.37808  20710847.26608         0.00001
     16409.35208     12791.41008  21702001.64808  21702002.29608         0.00001
   -977480.41247   -761669.84344         0.00041  24247175.01044  24247174.51947
 -10495387.64549  -8178220.29348         0.00041  20455465.82448  20455465.80649
 94 02 25 04 02 30.0000000  0  6 05 09 12 13 20 24
 -12743322.00249  -9929855.98447         0.00041  21374423.14047  21374424.16449
 -14785452.09748 -11521123.26446         0.00041  21333686.73346  21333686.86248
 -18067947.99308 -14078912.97708  20711793.68808  20711794.63208         0.00001
     77835.51208     60655.95508  21713690.83408  21713691.23908         0.00001
  -1075215.59947   -837827.22844         0.00041  24228584.47444  24228577.09547
 -10519142.05349  -8196730.21248         0.00041  20450945.42148  20450945.24149
 94 02 25 04 03 00.0000000  0  5 05 09 12 13 24
 -12808787.13549  -9980867.76847         0.00041  21361965.41447  21361966.39049
 -14739425.52648 -11485258.42746         0.00041  21342446.09346  21342445.78348
 -18062333.77608 -14074538.26608  20712861.91108  20712862.99708         0.00001
    139439.36008    108658.95208  21725413.69308  21725413.73608         0.00001
 -10542330.91749  -8214799.44748         0.00041  20446532.54048  20446532.54449
 94 02 25 04 03 30.0000000  0  5 05 09 12 13 24
 -12874061.11449 -10031730.59647         0.00041  21349544.34547  21349544.64649
 -14692925.91448 -11449024.98546         0.00041  21351294.15046  21351294.02348
 -18056146.87408 -14069717.31508  20714039.27708  20714040.39908         0.00001
    201155.11208    156749.14408  21737157.66808  21737157.66808         0.00001
 -10564999.79449  -8232463.50448         0.00041  20442218.42948  20442218.91049
 94 02 25 04 04 00.0000000  0  5 05 09 12 13 24
 -12939145.03549 -10082445.32547         0.00041  21337159.67447  21337159.68549
 -14645962.39748 -11412430.06546         0.00041  21360231.78246  21360231.42148
 -18049402.33908 -14064461.84108  20715322.83608  20715323.87208         0.00001
    262965.70208    204913.23808  21748919.85908  21748919.78408         0.00001
 -10587155.66349  -8249727.81048         0.00041  20438002.34748  20438002.84549
 94 02 25 04 04 30.0000000  0  5 05 09 12 13 24
 -13003932.28649 -10132928.88447         0.00041  21324831.16147  21324831.06849
 -14598425.64648 -11375388.45146         0.00041  21369277.05446  21369277.02448
 -18042004.73209 -14058697.48308  20716730.70909  20716731.52608         0.00001
    324964.45008    253223.94708  21760718.13008  21760717.76508         0.00001
 -10608698.14349  -8266514.15448         0.00041  20433902.99548  20433903.57849
 94 02 25 04 05 00.0000000  0  5 05 09 12 13 24
 -13068471.01449 -10183218.78848         0.00041  21312549.65048  21312549.99749
 -14550343.07148 -11337921.51746         0.00041  21378426.31446  21378426.79148
 -18033983.94009 -14052447.52508  20718257.13409  20718257.79708         0.00001
    387119.28208    301656.26708  21772546.10108  21772545.53708         0.00001
 -10629652.21849  -8282841.99448         0.00041  20429915.53248  20429916.17549
 94 02 25 04 05 30.0000000  0  5 05 09 12 13 24
 -13132782.70049 -10233331.78048         0.00041  21300311.80348  21300312.04249
 -14501739.81248 -11300048.85346         0.00041  21387675.56046  21387676.00548
 -18025356.15609 -14045724.58708  20719898.94309  20719899.57808         0.00001
    449411.82408    350195.89508  21784399.93308  21784399.48608         0.00001
 -10650042.94249  -8298730.85848         0.00041  20426035.48748  20426035.99749
 94 02 25 04 06 00.0000000  0  5 05 09 12 13 24
 -13196846.80649 -10283251.85048         0.00041  21288120.89648  21288121.00849
 -14452615.80948 -11261770.41346         0.00041  21397022.84946  21397024.20648
 -18016123.58409 -14038530.38308  20721655.89109  20721656.42208         0.00001
    511837.74508    398839.47108  21796278.90708  21796278.95108         0.00001
 -10669893.57549  -8314198.87348         0.00041  20422258.04448  20422258.46149
 94 02 25 04 06 30.0000000  0  6 05 09 12 13 20 24
 -13260663.22649 -10332978.92148         0.00041  21275977.37748  21275977.08649
 -14402975.98848 -11223090.03946         0.00041  21406469.33346  21406470.41348
 -18006289.86409 -14030867.74708  20723527.21309  20723527.70408         0.00001
    574391.49108    447582.65608  21808182.23408  21808182.76908         0.00001
        -0.64957        -0.14954         0.00051  24079863.75054  24079861.73157
 -10689215.46649  -8329254.88048         0.00041  20418581.23648  20418581.75749
 94 02 25 04 07 00.0000000  0  6 05 09 12 13 20 24
 -13324303.22349 -10382568.51948         0.00041  21263867.28948  21263866.84449
 -14352911.95048 -11184079.10746         0.00041  21415997.28746  21415997.34848
 -17995926.00909 -14022792.01608  20725499.37609  20725499.88908         0.00001
    636999.81908    496368.38008  21820096.20008  21820096.87808         0.00001
    -97687.87147    -76119.97745         0.00041  24061274.06745  24061273.73947
 -10708089.72349  -8343962.08648         0.00041  20414989.44548  20414990.07549
 94 02 25 04 07 30.0000000  0  6 05 09 12 13 20 24
 -13387758.00149 -10432013.79348         0.00041  21251792.34948  21251791.99049
 -14302446.34648 -11144755.26846         0.00041  21425600.37546  21425600.45248
 -17985040.02509 -14014309.42808  20727570.96409  20727571.41308         0.00001
    699653.03508    545189.08308  21832018.80608  21832019.43508         0.00001
   -195438.97448   -152289.66144         0.00041  24042671.21744  24042672.41648
 -10726536.99949  -8358336.57648         0.00041  20411479.37348  20411479.56649
 94 02 25 04 08 00.0000000  0  6 05 09 12 13 20 24
 -13450963.03249 -10481264.46348         0.00041  21239764.44848  21239764.35049
 -14251523.10048 -11105074.81746         0.00041  21435290.24546  21435289.92248
 -17973566.23609 -14005368.80608  20729754.44609  20729754.83208         0.00001
    762414.74908    594094.32608  21843962.03208  21843962.45208         0.00001
   -293186.88948   -228456.84444         0.00041  24024071.10044  24024071.59148
 -10744484.09249  -8372321.31448         0.00041  20408064.20548  20408064.38249
 94 02 25 04 08 30.0000000  0  6 05 09 12 13 20 24
 -13513907.97249 -10530312.46548         0.00041  21227786.70848  21227786.44549
 -14200136.02648 -11065032.95346         0.00041  21445068.96646  21445068.42648
 -17961478.62209 -13995949.88008  20732054.62909  20732055.10208         0.00001
    825309.22608    643103.02408  21855930.23508  21855930.71108         0.00001
   -390904.18748   -304600.15145         0.00041  24005476.83645  24005476.91548
 -10761896.73949  -8385889.59748         0.00041  20404750.66148  20404750.80549
 94 02 25 04 09 00.0000000  0  6 05 09 12 13 20 24
 -13576584.39449 -10579151.24048         0.00041  21215859.77048  21215859.69749
 -14148280.18748 -11024625.82046         0.00041  21454937.17846  21454936.25348
 -17948762.69809 -13986041.36208  20734474.29609  20734474.92308         0.00001
    888348.78508    692224.76908  21867926.09908  21867926.57108         0.00001
   -488574.72848   -380707.02245         0.00041  23986888.87045  23986890.75848
 -10778758.02749  -8399028.24548         0.00041  20401542.07448  20401541.92449
 94 02 25 04 09 30.0000000  0  6 05 09 12 13 20 24
 -13638989.01749 -10627778.21848         0.00041  21203984.25748  21203984.32549
 -14095934.11048 -10983836.66546         0.00041  21464898.79946  21464898.01948
 -17935412.57409 -13975638.66608  20737014.66409  20737015.35608         0.00001
    951537.73408    741462.92408  21879950.49608  21879951.13208         0.00001
   -586191.02848   -456771.65445         0.00041  23968308.98845  23968315.09648
 -10795055.24549  -8411727.35948         0.00041  20398440.94948  20398440.76849
 94 02 25 04 10 00.0000000  0  6 05 09 12 13 20 24
 -13701129.14649 -10676199.09248         0.00041  21192159.21948  21192159.48449
 -14043090.85548 -10942660.10346         0.00041  21474953.81746  21474953.87248
 -17921431.26308 -13964744.14008  20739675.06608  20739675.80308         0.00001
   1014870.98408    790813.52808  21892002.81508  21892003.29208         0.00001
   -683754.48248   -532795.05445         0.00041  23949748.15645  23949749.82748
 -10810777.23749  -8423978.24548         0.00041  20395449.09648  20395449.14549
 94 02 25 04 10 30.0000000  0  6 05 09 12 13 20 24
 -13763001.45449 -10724411.27348         0.00041  21180385.08748  21180385.77949
 -13989748.30248 -10901094.49046         0.00041  21485103.89246  21485104.79148
 -17906824.35708 -13953362.14108  20742454.57208  20742455.32108         0.00001
   1078341.55508    840271.12808  21904081.16508  21904081.36208         0.00001
   -781268.65448   -608780.08645         0.00041  23931193.26145  23931193.29948
 -10825932.34549  -8435787.41348         0.00041  20392565.33648  20392565.32049
 94 02 25 04 11 00.0000000  0  6 05 09 12 13 20 24
 -13824600.10649 -10772410.22148         0.00041  21168662.84548  21168663.58749
 -13935907.13848 -10859140.34746         0.00041  21495349.69046  21495350.15748
 -17891602.39808 -13941500.89008  20745351.07008  20745351.98308         0.00001
   1141937.01208    889826.03008  21916183.24708  21916183.07508         0.00001
   -878742.48348   -684733.68045         0.00041  23912644.38545  23912644.75848
 -10840528.01149  -8447160.64448         0.00041  20389787.84248  20389787.84849
 94 02 25 04 11 30.0000000  0  6 05 09 12 13 20 24
 -13885954.90549 -10820219.15248         0.00041  21156987.29348  21156987.41649
 -13881606.32948 -10816828.03146         0.00041  21505683.15246  21505682.85548
 -17875798.38708 -13929186.09108  20748358.51808  20748359.38308         0.00001
   1205622.75808    939451.28108  21928302.38208  21928301.95908         0.00001
   -976207.09548   -760680.08945         0.00041  23894097.75145  23894097.30048
 -10854598.20049  -8458124.41848         0.00041  20387110.35248  20387110.41849
 94 02 25 04 12 00.0000000  0  6 05 09 12 13 20 24
 -13947044.24549 -10867821.23047         0.00041  21145362.44347  21145361.84049
 -13826836.43148 -10774150.21146         0.00041  21516106.29746  21516104.43448
 -17859392.43708 -13916402.24308  20751480.62508  20751481.38308         0.00001
   1269416.82308    989160.94008  21940441.84508  21940441.34408         0.00001
  -1073640.71248   -836602.34945         0.00041  23875556.27645  23875556.24748
 -10868126.84049  -8468666.20248         0.00041  20384535.87348  20384535.99249
 94 02 25 04 12 30.0000000  0  6 05 09 12 13 20 24
 -14007862.62049 -10915212.16147         0.00041  21133789.17847  21133788.26949
 -13771606.65248 -10731114.01946         0.00041  21526615.84346  21526614.28348
 -17842391.83208 -13903155.02608  20754715.85308  20754716.42708         0.00001
   1333310.65208   1038948.32908  21952600.23508  21952599.77208         0.00001
  -1171048.90548   -912504.81645         0.00041  23857018.23945  23857019.45248
 -10881123.74349  -8478793.64848         0.00041  20382062.60248  20382062.42049
 94 02 25 04 13 00.0000000  0  6 05 09 12 13 20 24
 -14068415.32849 -10962396.07547         0.00041  21122266.19647  21122265.69749
 -13715922.51448 -10687723.78646         0.00041  21537211.60246  21537211.70848
 -17824798.76008 -13889446.14008  20758063.80808  20758064.24408         0.00001
   1397300.14808   1088810.26708  21964776.82708  21964776.52308         0.00001
  -1268431.93348   -988387.63845         0.00041  23838487.38745  23838487.60148
 -10893591.09449  -8488508.45148         0.00041  20379690.15348  20379689.67649
 94 02 25 04 13 30.0000000  0  6 05 09 12 13 20 24
 -14128707.11149 -11009376.66947         0.00041  21110793.08547  21110792.98749
 -13659779.69848 -10643976.15146         0.00041  21547896.32146  21547896.33248
 -17806612.73809 -13875275.21708  20761524.50909  20761524.92908         0.00001
   1461384.45308   1138746.07708  21976971.45208  21976971.49508         0.00001
  -1365787.34448  -1064248.92545         0.00041  23819963.89845  23819960.93348
 -10905528.90149  -8497810.61948         0.00041  20377418.43348  20377417.81749
 94 02 25 04 14 00.0000000  0  6 05 09 12 13 20 24
 -14188731.73149 -11056149.08448         0.00041  21099371.01448  21099371.55249
 -13603165.39448 -10599861.11846         0.00041  21558669.88046  21558669.79248
 -17787836.12608 -13860644.09408  20765097.50308  20765098.03808         0.00001
   1525559.64108   1188752.72308  21989183.06508  21989183.94008         0.00001
  -1463115.50948  -1140089.00645         0.00041  23801442.57445  23801440.04048
 -10916936.13049  -8506699.34948         0.00041  20375247.43548  20375247.38349
 94 02 25 04 14 30.0000000  0  6 05 09 12 13 20 24
 -14248475.77249 -11102702.86648         0.00041  21088002.04148  21088003.19749
 -13546081.26548 -10555379.98846         0.00041  21569531.94846  21569531.34048
 -17768459.99308 -13845545.81108  20768784.62408  20768785.21108         0.00001
   1589833.31908   1238836.11908  22001413.77208  22001415.00108         0.00001
  -1560405.61948  -1215899.43445         0.00041  23782925.26045  23782925.83448
 -10927801.75849  -8515166.05948         0.00041  20373179.84848  20373180.00949
 94 02 25 04 15 00.0000000  0  6 05 09 12 13 20 24
 -14307961.54549 -11149055.40348         0.00041  21076682.01348  21076683.47249
 -13488536.48348 -10510539.92046         0.00041  21580482.61646  21580481.88348
 -17748488.30508 -13829983.46008  20772585.03608  20772585.77308         0.00001
   1654199.83708   1288991.86008  22013662.47108  22013663.64208         0.00001
  -1657659.67248  -1291681.75445         0.00041  23764418.82245  23764418.55348
 -10938136.49949  -8523219.09448         0.00041  20371213.03848  20371213.54749
 94 02 25 04 15 30.0000000  0  6 05 09 12 13 20 24
 -14367184.40249 -11195203.06948         0.00041  21065411.98548  21065413.56249
 -13430547.21048 -10465353.51146         0.00041  21591516.30746  21591517.01148
 -17727923.43208 -13813958.88908  20776498.29708  20776499.16808         0.00001
   1718655.56408   1339217.11508  22025928.28008  22025929.11408         0.00001
  -1754877.86148  -1367436.20544         0.00041  23745917.57444  23745917.59248
 -10947953.10449  -8530868.39048         0.00041  20369345.02848  20369345.47349
 94 02 25 04 16 00.0000000  0  6 05 09 12 13 20 24
 -14426135.84149 -11241139.24748         0.00041  21054193.75648  21054195.43849
 -13372135.58448 -10419837.99046         0.00041  21602633.03146  21602633.50148
 -17706767.97308 -13797474.12108  20780524.07308  20780524.85908         0.00001
   1783196.63908   1389508.87108  22038210.42108  22038210.97608         0.00001
  -1852060.61448  -1443162.99944         0.00041  23727427.04244  23727425.05548
 -10957259.23249  -8538119.91948         0.00041  20367574.31048  20367574.37649
 94 02 25 04 16 30.0000000  0  6 05 09 12 13 20 24
 -14484813.83749 -11286862.35648         0.00041  21043028.07048  21043029.36249
 -13313311.45748 -10374001.05246         0.00041  21613826.07846  21613826.97548
 -17685022.76008 -13780529.80108  20784662.03908  20784662.70508         0.00001
   1847820.84208   1439865.40108  22050508.24908  22050508.75408         0.00001
  -1949206.71648  -1518861.18844         0.00041  23708936.22744  23708939.08048
 -10966054.73449  -8544973.55348         0.00041  20365900.48048  20365900.67549
 94 02 25 04 17 00.0000000  0  6 05 09 12 13 20 24
 -14543206.54149 -11332363.16548         0.00041  21031916.60348  21031917.37949
 -13254060.39248 -10327831.41846         0.00041  21625101.67046  21625101.99748
 -17662679.06808 -13763119.13408  20788913.89008  20788914.50508         0.00001
   1912535.70908   1490292.57508  22062823.46708  22062823.65708         0.00001
  -2046305.23548  -1594522.32044         0.00041  23690466.45244  23690461.36948
 -10974332.13249  -8551423.46648         0.00041  20364325.45348  20364325.40049
 94 02 25 04 17 30.0000000  0  6 05 09 12 13 20 24
 -14601296.38149 -11377627.97548         0.00041  21020862.81548  21020863.00149
 -13194385.53048 -10281331.55546         0.00041  21636457.90046  21636458.14648
 -17639733.76808 -13745239.68508  20793280.08508  20793280.87608         0.00001
   1977343.11808   1540791.86208  22075156.03808  22075156.07308         0.00001
  -2143350.74848  -1670142.19944         0.00041  23671999.45844  23671994.47248
 -10982079.97749  -8557460.73748         0.00041  20362851.12048  20362850.94349
 94 02 25 04 18 00.0000000  0  6 05 09 12 13 20 24
 -14659078.35949 -11422652.89148         0.00041  21009867.39048  21009867.74849
 -13134252.80248 -10234474.90246         0.00041  21647900.50746  21647901.08148
 -17616172.67608 -13726880.40108  20797763.59008  20797764.53608         0.00001
   2042255.85308   1591373.21008  22087508.62608  22087508.22008         0.00001
  -2240326.92048  -1745708.04244         0.00041  23653543.99944  23653540.65748
 -10989263.85849  -8563058.55448         0.00041  20361483.98448  20361483.74949
 94 02 25 04 18 30.0000000  0  6 05 09 12 13 20 24
 -14716579.65849 -11467459.09548         0.00041  20998925.13948  20998925.70749
 -13073655.02848 -10187255.86646         0.00041  21659431.89846  21659431.74648
 -17592003.86608 -13708047.56908  20802362.71108  20802363.75508         0.00001
   2107264.73808   1642029.48008  22099879.28108  22099878.67308         0.00001
  -2337239.62248  -1821224.35244         0.00041  23635099.35844  23635098.35448
 -10995890.95249  -8568222.50648         0.00041  20360222.94848  20360222.67049
 94 02 25 04 19 00.0000000  0  6 05 09 12 13 20 24
 -14773803.17249 -11512048.84148         0.00041  20988035.80348  20988036.52049
 -13012594.86348 -10139676.51146         0.00041  21671050.69746  21671049.92748
 -17567223.37208 -13688738.10108  20807078.21408  20807079.32808         0.00001
   2172372.56108   1692762.84208  22112268.75108  22112267.93508         0.00001
  -2434082.47448  -1896686.26444         0.00041  23616669.30844  23616670.55648
 -11001959.42349  -8572951.16948         0.00041  20359067.92748  20359067.79949
 94 02 25 04 19 30.0000000  0  6 05 09 12 13 20 24
 -14830762.11749 -11556432.43148         0.00041  20977196.95748  20977197.68449
 -12951094.40048 -10091754.05046         0.00041  21682753.79946  21682753.23548
 -17541854.02408 -13668969.78708  20811905.76508  20811906.88908         0.00001
   2237555.64708   1743554.83708  22124672.62208  22124671.93908         0.00001
  -2530875.74947  -1972109.56744         0.00041  23598253.49344  23598250.89347
 -11007489.45249  -8577260.26848         0.00041  20358015.47948  20358015.49349
 94 02 25 04 20 00.0000000  0  5 05 09 12 13 24
 -14887477.85749 -11600626.50548         0.00041  20966404.30048  20966404.81749
 -12889177.03648 -10043506.76446         0.00041  21694536.83346  21694536.27848
 -17515923.62208 -13648764.28208  20816840.12208  20816841.25508         0.00001
   2302785.07108   1794382.96108  22137085.18308  22137084.70508         0.00001
 -11012509.11049  -8581171.68448         0.00041  20357060.18648  20357060.70849
 94 02 25 04 20 30.0000000  0  5 05 09 12 13 24
 -14943939.80749 -11644622.82248         0.00041  20955659.96848  20955660.03749
 -12826881.54048  -9994964.81246         0.00041  21706390.94746  21706390.25148
 -17489443.66908 -13628130.55908  20821879.26608  20821880.26408         0.00001
   2368048.36308   1845237.48508  22149504.12208  22149504.06008         0.00001
 -11017039.30149  -8584701.69648         0.00041  20356198.11848  20356198.76749
 94 02 25 04 21 00.0000000  0  5 05 09 12 13 24
 -15000086.37649 -11688373.38448         0.00041  20944975.24048  20944975.47249
 -12764187.30348  -9946112.16346         0.00041  21718321.73946  21718320.65048
 -17462387.43808 -13607047.78808  20827027.93008  20827028.97308         0.00001
   2433371.08108   1896138.30808  22161934.65708  22161934.56808         0.00001
 -11021047.80649  -8587825.20148         0.00041  20355435.37148  20355435.91649
 94 02 25 04 21 30.0000000  0  5 05 09 12 13 24
 -15055896.78749 -11731862.00548         0.00041  20934355.15248  20934355.17649
 -12701074.77348  -9896933.56846         0.00041  21730331.35446  21730330.68448
 -17434737.79308 -13585502.62008  20832289.50908  20832290.61908         0.00001
   2498769.47608   1947098.09808  22174379.54308  22174379.35908         0.00001
 -11024526.14849  -8590535.59148         0.00041  20354773.61748  20354773.87349
 94 02 25 04 22 00.0000000  0  5 05 09 12 13 24
 -15111358.41049 -11775078.84448         0.00041  20923801.43348  20923801.46649
 -12637535.20248  -9847422.22346         0.00041  21742422.16046  21742421.91648
 -17406479.21008 -13563482.94908  20837667.06208  20837668.12908         0.00001
   2564258.24808   1998128.31208  22186841.55108  22186841.45308         0.00001
 -11027474.32649  -8592832.85448         0.00041  20354212.55048  20354212.30449
 94 02 25 04 22 30.0000000  0  6 05 09 12 13 20 24
 -15166446.59849 -11818004.69948         0.00041  20913318.38048  20913318.21949
 -12573540.61548  -9797556.33146         0.00041  21754599.61146  21754599.54248
 -17377584.53708 -13540967.64908  20843165.66108  20843166.55108         0.00001
   2629863.60808   2049249.37708  22199325.76408  22199325.73008         0.00001
        -1.03558        -0.88254         0.00051  23487898.70754  23487897.86158
 -11029879.15749  -8594706.73548         0.00041  20353755.19248  20353754.69849
 94 02 25 04 23 00.0000000  0  6 05 09 12 13 20 24
 -15221201.84649 -11860671.11248         0.00041  20902898.79748  20902898.96349
 -12509103.72048  -9747345.78146         0.00041  21766860.27846  21766861.36348
 -17348077.71608 -13517975.32908  20848780.68108  20848781.38908         0.00001
   2695560.91308   2100442.08908  22211827.60208  22211827.69408         0.00001
    -96363.24348    -75088.25545         0.00041  23469561.45745  23469561.82848
 -11031779.76649  -8596187.70848         0.00041  20353393.33748  20353393.44049
 94 02 25 04 23 30.0000000  0  6 05 09 12 13 20 24
 -15275703.04749 -11903139.56748         0.00041  20892527.51548  20892528.15349
 -12444306.25348  -9696854.26846         0.00041  21779191.84846  21779192.53048
 -17318024.70708 -13494557.40608  20854499.67108  20854500.19608         0.00001
   2761283.25608   2151654.30508  22224334.34608  22224334.37408         0.00001
   -192698.11348   -150154.35545         0.00041  23451229.70545  23451230.43748
 -11033251.65149  -8597334.61548         0.00041  20353113.09148  20353113.24649
 94 02 25 04 24 00.0000000  0  6 05 09 12 13 20 24
 -15329889.05149 -11945362.41648         0.00041  20882215.89148  20882217.04549
 -12379096.52448  -9646041.52446         0.00041  21791601.16946  21791601.22248
 -17287367.77608 -13470668.88308  20860333.50908  20860333.92508         0.00001
   2827087.63808   2202930.44908  22236856.45408  22236856.47908         0.00001
   -288945.56348   -225152.31346         0.00041  23432914.40346  23432915.61748
 -11034219.47849  -8598088.75448         0.00041  20352929.00048  20352929.11649
 94 02 25 04 24 30.0000000  0  6 05 09 12 13 20 24
 -15383756.03449 -11987336.68148         0.00041  20871965.58748  20871966.69649
 -12313458.73048  -9594895.18246         0.00041  21804091.07146  21804091.55248
 -17256094.70309 -13446300.24308  20866284.58709  20866285.00008         0.00001
   2892985.63308   2254279.54708  22249396.22508  22249396.41108         0.00001
   -385090.60848   -300070.50946         0.00041  23414618.69046  23414620.21248
 -11034649.21049  -8598423.59848         0.00041  20352847.40748  20352847.27149
 94 02 25 04 25 00.0000000  0  6 05 09 12 13 20 24
 -15437323.07349 -12029077.22548         0.00041  20861772.11848  20861773.14449
 -12247428.86248  -9543443.38646         0.00041  21816656.93146  21816656.65848
 -17224226.40409 -13421467.80108  20872348.88509  20872349.45708         0.00001
   2958955.57208   2305684.71508  22261949.76208  22261950.06808         0.00001
   -481151.52648   -374923.12046         0.00041  23396338.72246  23396339.99848
 -11034542.21049  -8598340.20948         0.00041  20352867.53548  20352867.43849
 94 02 25 04 25 30.0000000  0  6 05 09 12 13 20 24
 -15490588.00249 -12070582.36248         0.00041  20851636.06648  20851637.10449
 -12181021.32848  -9491697.26446         0.00041  21829294.45746  21829294.27548
 -17191771.30409 -13396178.11108  20878524.86809  20878525.58208         0.00001
   3024988.61908   2357139.04808  22274515.60208  22274515.68208         0.00001
   -577133.87248   -449714.53646         0.00041  23378074.37146  23378075.19948
 -11033878.28549  -8597822.85748         0.00041  20352993.60648  20352993.94549
 94 02 25 04 26 00.0000000  0  6 05 09 12 13 20 24
 -15543550.68049 -12111851.97948         0.00041  20841557.35748  20841558.31849
 -12114216.93948  -9439641.91846         0.00041  21842007.54246  21842006.70348
 -17158729.81509 -13370431.50008  20884812.50109  20884813.32308         0.00001
   3091083.42908   2408641.49608  22287093.13408  22287093.07308         0.00001
   -673035.34348   -524442.94146         0.00041  23359823.61646  23359825.83748
 -11032646.85549  -8596863.29348         0.00041  20353227.85548  20353228.42249
 94 02 25 04 26 30.0000000  0  6 05 09 12 13 20 24
 -15596184.00949 -12152864.96248         0.00041  20831541.42748  20831542.35449
 -12047010.90948  -9387273.59746         0.00041  21854795.96646  21854795.10048
 -17125100.52509 -13344226.86808  20891212.00809  20891212.79208         0.00001
   3157241.10908   2460192.93608  22299682.58108  22299682.10908         0.00001
   -768851.51248   -599104.86246         0.00041  23341591.86646  23341592.57648
 -11030860.16449  -8595471.06148         0.00041  20353568.07248  20353568.64849
 94 02 25 04 27 00.0000000  0  6 05 09 12 13 20 24
 -15648481.48149 -12193616.23548         0.00041  20821590.03448  20821590.40149
 -11979436.78748  -9334618.44346         0.00041  21867654.71646  21867654.55848
 -17090907.50109 -13317582.96608  20897718.75509  20897719.46708         0.00001
   3223436.78908   2511773.98308  22312279.23208  22312278.58408         0.00001
   -864603.40348   -673716.69846         0.00041  23323370.79246  23323371.62348
 -11028556.44949  -8593675.95848         0.00041  20354006.37648  20354007.01749
 94 02 25 04 27 30.0000000  0  6 05 09 12 13 20 24
 -15700413.73549 -12234082.92148         0.00041  20811707.75248  20811707.91149
 -11911462.36248  -9281651.36746         0.00041  21880590.03046  21880589.81848
 -17056129.71608 -13290483.40708  20904336.74208  20904337.38808         0.00001
   3289691.13908   2563400.75008  22324886.75408  22324886.30308         0.00001
   -960267.41848   -748260.06046         0.00041  23305166.99746  23305167.39748
 -11025737.22249  -8591479.15848         0.00041  20354542.99448  20354543.39249
 94 02 25 04 28 00.0000000  0  6 05 09 12 13 20 24
 -15751980.66549 -12274264.95148         0.00041  20801894.74848  20801894.59949
 -11843080.55848  -9228366.83946         0.00041  21893601.58246  21893602.02048
 -17020764.57008 -13262926.16308  20911066.40108  20911067.07008         0.00001
   3356006.29308   2615074.88608  22337505.99208  22337505.59708         0.00001
  -1055837.89048   -822730.53446         0.00041  23286980.15046  23286980.53248
 -11022421.54349  -8588895.50648         0.00041  20355173.86048  20355174.29549
 94 02 25 04 28 30.0000000  0  6 05 09 12 13 20 24
 -15803181.49949 -12314161.70748         0.00041  20792151.51848  20792151.43649
 -11774302.94048  -9174773.90446         0.00041  21906689.91446  21906690.47148
 -16984810.50008 -13234910.02408  20917908.11408  20917908.82708         0.00001
   3422383.29208   2666797.21408  22350137.03608  22350136.90008         0.00001
  -1151310.23348   -897124.54746         0.00041  23268812.10546  23268812.94648
 -11018616.26749  -8585930.35048         0.00041  20355898.17648  20355898.34349
 94 02 25 04 29 00.0000000  0  6 05 09 12 13 20 24
 -15854029.25649 -12353783.32948         0.00041  20782475.40848  20782475.53549
 -11705119.40748  -9120864.67746         0.00041  21919854.39146  21919856.05248
 -16948254.11308 -13206424.53108  20924864.48308  20924865.25308         0.00001
   3488835.40608   2718578.09708  22362782.16708  22362782.76308         0.00001
  -1246667.93348   -971429.23346         0.00041  23250666.80746  23250667.29348
 -11014303.97549  -8582570.11048         0.00041  20356718.78648  20356718.80349
 94 02 25 04 29 30.0000000  0  6 05 09 12 13 20 24
 -15904551.11949 -12393151.00448         0.00041  20772861.35748  20772861.50649
 -11635520.53448  -9066631.79746         0.00041  21933099.60246  21933099.84148
 -16911096.86508 -13177470.84508  20931935.36408  20931936.05908         0.00001
   3555360.64108   2770415.96108  22375441.26208  22375442.45908         0.00001
  -1341909.15448  -1045643.14846         0.00041  23232543.25746  23232543.57048
 -11009466.04149  -8578800.27748         0.00041  20357639.40448  20357639.21949
 94 02 25 04 30 00.0000000  0  6 05 09 12 13 20 24
 -15954753.28549 -12432269.56848         0.00041  20763308.46748  20763308.78949
 -11565526.95348  -9012091.36446         0.00041  21946418.87546  21946419.20248
 -16873345.52708 -13148054.23408  20939119.37308  20939119.94808         0.00001
   3621951.70508   2822305.13008  22388113.05508  22388114.30208         0.00001
  -1437037.97348  -1119769.48546         0.00041  23214441.32046  23214441.25948
 -11004084.91349  -8574607.17448         0.00041  20358663.47448  20358663.30449
 94 02 25 04 30 30.0000000  0  6 05 09 12 13 20 24
 -16004643.13049 -12471144.76748         0.00041  20753814.81948  20753815.24449
 -11495169.53648  -8957267.45546         0.00041  21959807.42246  21959808.09848
 -16835023.39408 -13118192.84008  20946411.89908  20946412.48008         0.00001
   3688585.61508   2874227.67308  22400793.17608  22400794.21108         0.00001
  -1532074.32748  -1193823.78546         0.00041  23196356.39446  23196355.96248
 -10998180.63649  -8570006.42948         0.00041  20359786.74548  20359786.80149
 94 02 25 04 31 00.0000000  0  6 05 09 12 13 20 24
 -16054230.08449 -12509783.94448         0.00041  20744378.86148  20744379.00349
 -11424471.62948  -8902178.21146         0.00041  21973260.29346  21973261.72248
 -16796147.70208 -13087900.10308  20953809.78708  20953810.38508         0.00001
   3755244.56108   2926169.72208  22413478.16808  22413478.71708         0.00001
  -1627032.26548  -1267816.96046         0.00041  23178286.40946  23178285.43448
 -10991759.41749  -8565002.87148         0.00041  20361008.45748  20361008.68249
 94 02 25 04 31 30.0000000  0  6 05 09 12 13 20 24
 -16103484.46449 -12548163.97248         0.00041  20735006.06648  20735006.06749
 -11353418.67148  -8846812.31546         0.00041  21986782.12146  21986782.52748
 -16756698.42608 -13057160.41008  20961316.74508  20961317.33508         0.00001
   3821948.29008   2978146.66108  22426171.40508  22426171.77608         0.00001
  -1721888.48548  -1341730.88146         0.00041  23160235.85946  23160234.09848
 -10984805.15249  -8559583.96048         0.00041  20362331.79348  20362332.07049
 94 02 25 04 32 00.0000000  0  6 05 09 12 13 20 24
 -16152398.13349 -12586278.50948         0.00041  20725697.74348  20725698.03549
 -11282027.64448  -8791182.96946         0.00041  22000366.91346  22000367.73048
 -16716692.10608 -13025986.66308  20968929.71608  20968930.25008         0.00001
   3888680.17508   3030145.54208  22438870.14208  22438870.26908         0.00001
  -1816656.40448  -1415575.99446         0.00041  23142202.93046  23142199.09648
 -10977362.27149  -8553784.30548         0.00041  20363748.01648  20363748.69249
 94 02 25 04 32 30.0000000  0  6 05 09 12 13 20 24
 -16200941.83749 -12624104.76548         0.00041  20716459.78848  20716460.41549
 -11210253.93748  -8735255.41946         0.00041  22014025.72446  22014025.89348
 -16676100.86708 -12994357.13808  20976653.85308  20976654.43108         0.00001
   3955467.94708   3082187.95908  22451579.77808  22451579.55008         0.00001
  -1911304.78248  -1489327.97046         0.00041  23124190.23346  23124187.35548
 -10969411.92649  -8547589.22948         0.00041  20365261.15148  20365261.61749
 94 02 25 04 33 00.0000000  0  6 05 09 12 13 20 24
 -16249137.39649 -12661659.74048         0.00041  20707288.22348  20707289.24849
 -11138114.07548  -8679042.53946         0.00041  22027753.57846  22027754.00548
 -16634943.34608 -12962286.36608  20984485.70908  20984486.41108         0.00001
   4022292.74808   3134259.21908  22464296.64908  22464295.69208         0.00001
  -2005849.08048  -1562998.86546         0.00041  23106199.74546  23106195.59548
 -10960960.35849  -8541003.58648         0.00041  20366869.50148  20366869.85249
 94 02 25 04 33 30.0000000  0  6 05 09 12 13 20 24
 -16296976.12249 -12698936.65948         0.00041  20698184.80648  20698186.08449
 -11065598.83748  -8622537.17246         0.00041  22041551.93746  22041553.32548
 -16593219.41708 -12929774.23208  20992425.49808  20992426.18008         0.00001
   4089154.78708   3186359.49408  22477020.18008  22477019.20908         0.00001
  -2100285.67148  -1636585.79946         0.00041  23088229.24046  23088225.17648
 -10952017.43949  -8534035.07048         0.00041  20368571.28848  20368571.37949
 94 02 25 04 34 00.0000000  0  6 05 09 12 13 20 24
 -16344458.82649 -12735936.15548         0.00041  20689149.36048  20689150.55349
 -10992720.41148  -8565748.80046         0.00041  22055421.18146  22055421.09148
 -16550940.32708 -12896829.50708  21000470.98308  21000471.59108         0.00001
   4156042.68508   3238479.91508  22489748.37608  22489747.78508         0.00001
  -2194622.36548  -1710094.89646         0.00041  23070276.44846  23070274.41248
 -10942583.75949  -8526684.14348         0.00041  20370366.36248  20370366.54949
 94 02 25 04 34 30.0000000  0  6 05 09 12 13 20 24
 -16391579.46749 -12772653.52948         0.00041  20680182.65748  20680183.55649
 -10919489.29448  -8508685.59546         0.00041  22069355.79046  22069355.86048
 -16508095.99208 -12863444.33208  21008623.96708  21008624.68908         0.00001
   4222966.68108   3290628.47708  22502483.15408  22502482.80308         0.00001
  -2288845.70848  -1783515.66746         0.00041  23052346.59746  23052345.23148
 -10932633.54349  -8518930.71748         0.00041  20372259.94748  20372260.14949
 94 02 25 04 35 00.0000000  0  6 05 09 12 13 20 24
 -16438337.26249 -12809088.16648         0.00041  20671284.82548  20671285.94649
 -10845933.26148  -8451369.22146         0.00041  22083354.21046  22083353.57048
 -16464697.73208 -12829627.52708  21016882.39508  21016883.12708         0.00001
   4289915.67108   3342796.52008  22515222.85308  22515222.85508         0.00001
  -2382963.64448  -1856854.30746         0.00041  23034435.96846  23034436.24248
 -10922193.14349  -8510795.33548         0.00041  20374246.80348  20374247.07349
 94 02 25 04 35 30.0000000  0  6 05 09 12 13 20 24
 -16484717.26549 -12845228.42848         0.00041  20662459.18248  20662460.26349
 -10772034.33548  -8393785.63846         0.00041  22097416.20246  22097415.12748
 -16420723.79908 -12795362.13808  21025250.47708  21025251.17108         0.00001
   4356911.20608   3395000.84208  22527971.64508  22527971.75108         0.00001
  -2476951.04248  -1930091.21246         0.00041  23016550.41746  23016551.30648
 -10911255.48949  -8502272.47948         0.00041  20376328.51648  20376328.45249
 94 02 25 04 36 00.0000000  0  6 05 09 12 13 20 24
 -16530734.21749 -12881085.79448         0.00041  20653702.69748  20653703.59249
 -10697806.90548  -8335946.08146         0.00041  22111540.65146  22111539.52948
 -16376184.25908 -12760656.01408  21033726.21608  21033726.80808         0.00001
   4423943.26308   3447233.61608  22540727.57208  22540727.56808         0.00001
  -2570814.48348  -2003231.51846         0.00041  22998688.54146  22998689.26548
 -10899832.11749  -8493371.13548         0.00041  20378502.18548  20378501.70749
